Wetterdaten: Dienstag, 04.12.2018
Datum Zeit Temp. A. Pool Temp. Temp. 5cm Feuchte A. Luftdruck Regen Wind Richtung Richtung Sonnenschein ET UV Solar Taupunkt Windchill Windben Empfang
04.12.2018 00:00 6,9 C 3,3 C 6,7 C 99 % 1008,4 hPa 0,0 l/m 8,1 km/h (2 Bft) W 259 0 min 0,000 mm 0,0 UV-I 0 W/m 6,8 C 5,5 C 14,5 km/h (3 Bft) 98,00 %
04.12.2018 00:02 7,1 C 3,3 C 6,7 C 99 % 1008,4 hPa 0,0 l/m 6,2 km/h (2 Bft) W 259 0 min 0,000 mm 0,0 UV-I 0 W/m 7,0 C 7,1 C 9,7 km/h (2 Bft) 94,44 %
04.12.2018 00:04 7,2 C 3,3 C 7,2 C 99 % 1008,3 hPa 0,0 l/m 12,3 km/h (3 Bft) SW 229 0 min 0,000 mm 0,0 UV-I 0 W/m 7,1 C 3,1 C 17,7 km/h (3 Bft) 100,00 %
04.12.2018 00:06 7,3 C 3,3 C 7,2 C 99 % 1008,4 hPa 0,0 l/m 9,0 km/h (2 Bft) W-SW 240 0 min 0,000 mm 0,0 UV-I 0 W/m 7,2 C 5,3 C 14,5 km/h (3 Bft) 97,87 %
04.12.2018 00:08 7,5 C 3,3 C 7,2 C 99 % 1008,4 hPa 0,0 l/m 10,6 km/h (2 Bft) S-SW 205 0 min 0,000 mm 0,0 UV-I 0 W/m 7,4 C 4,5 C 19,3 km/h (3 Bft) 100,00 %
04.12.2018 00:10 7,6 C 3,3 C 7,2 C 99 % 1008,3 hPa 0,0 l/m 15,4 km/h (3 Bft) W-SW 250 0 min 0,000 mm 0,0 UV-I 0 W/m 7,5 C 2,0 C 24,1 km/h (4 Bft) 100,00 %
04.12.2018 00:12 7,8 C 3,3 C 7,8 C 99 % 1008,3 hPa 0,0 l/m 14,7 km/h (3 Bft) W 268 0 min 0,000 mm 0,0 UV-I 0 W/m 7,7 C 2,6 C 24,1 km/h (4 Bft) 96,15 %
04.12.2018 00:14 8,1 C 3,3 C 7,8 C 99 % 1008,3 hPa 0,0 l/m 16,3 km/h (3 Bft) SW 233 0 min 0,000 mm 0,0 UV-I 0 W/m 8,0 C 2,3 C 27,4 km/h (4 Bft) 100,00 %
04.12.2018 00:16 8,2 C 3,3 C 7,8 C 99 % 1008,2 hPa 0,2 l/m 17,8 km/h (3 Bft) S-SW 205 0 min 0,000 mm 0,0 UV-I 0 W/m 8,1 C 1,8 C 29,0 km/h (5 Bft) 97,56 %
04.12.2018 00:18 8,4 C 3,3 C 7,8 C 99 % 1008,2 hPa 0,0 l/m 17,4 km/h (3 Bft) S-SW 196 0 min 0,000 mm 0,0 UV-I 0 W/m 8,3 C 2,2 C 25,7 km/h (4 Bft) 100,00 %
04.12.2018 00:20 8,4 C 3,3 C 7,8 C 99 % 1008,1 hPa 0,0 l/m 19,4 km/h (3 Bft) SW 224 0 min 0,000 mm 0,0 UV-I 0 W/m 8,3 C 1,4 C 29,0 km/h (5 Bft) 98,00 %
04.12.2018 00:22 8,5 C 3,3 C 8,3 C 99 % 1008,2 hPa 0,0 l/m 17,9 km/h (3 Bft) SW 221 0 min 0,000 mm 0,0 UV-I 0 W/m 8,4 C 2,1 C 24,1 km/h (4 Bft) 100,00 %
04.12.2018 00:24 8,6 C 3,3 C 8,3 C 99 % 1008,1 hPa 0,0 l/m 16,7 km/h (3 Bft) SW 225 0 min 0,000 mm 0,0 UV-I 0 W/m 8,5 C 2,7 C 27,4 km/h (4 Bft) 97,87 %
04.12.2018 00:26 8,7 C 3,3 C 8,3 C 99 % 1008,1 hPa 0,0 l/m 19,3 km/h (3 Bft) SW 217 0 min 0,000 mm 0,0 UV-I 0 W/m 8,6 C 1,9 C 29,0 km/h (5 Bft) 97,56 %
04.12.2018 00:28 8,8 C 3,3 C 8,3 C 99 % 1008,2 hPa 0,0 l/m 19,2 km/h (3 Bft) SW 231 0 min 0,000 mm 0,0 UV-I 0 W/m 8,7 C 2,0 C 24,1 km/h (4 Bft) 97,62 %
04.12.2018 00:30 8,8 C 3,3 C 8,3 C 99 % 1008,1 hPa 0,0 l/m 14,4 km/h (3 Bft) S-SW 193 0 min 0,000 mm 0,0 UV-I 0 W/m 8,7 C 4,0 C 22,5 km/h (4 Bft) 98,15 %
04.12.2018 00:32 8,9 C 3,3 C 8,3 C 99 % 1008,1 hPa 0,0 l/m 16,0 km/h (3 Bft) W-SW 244 0 min 0,000 mm 0,0 UV-I 0 W/m 8,8 C 3,4 C 25,7 km/h (4 Bft) 96,15 %
04.12.2018 00:34 8,9 C 3,3 C 8,3 C 99 % 1008,0 hPa 0,0 l/m 18,2 km/h (3 Bft) SW 225 0 min 0,000 mm 0,0 UV-I 0 W/m 8,8 C 2,5 C 29,0 km/h (5 Bft) 100,00 %
04.12.2018 00:36 8,9 C 3,3 C 8,3 C 99 % 1008,1 hPa 0,0 l/m 17,6 km/h (3 Bft) W-SW 256 0 min 0,000 mm 0,0 UV-I 0 W/m 8,8 C 2,7 C 29,0 km/h (5 Bft) 95,38 %
04.12.2018 00:38 9,1 C 3,3 C 8,3 C 99 % 1008,0 hPa 0,0 l/m 19,7 km/h (3 Bft) W-SW 242 0 min 0,000 mm 0,0 UV-I 0 W/m 9,0 C 2,2 C 29,0 km/h (5 Bft) 98,00 %
04.12.2018 00:40 9,1 C 3,3 C 8,3 C 99 % 1008,0 hPa 0,0 l/m 17,6 km/h (3 Bft) SW 232 0 min 0,000 mm 0,0 UV-I 0 W/m 9,0 C 3,0 C 32,2 km/h (5 Bft) 97,37 %
04.12.2018 00:42 9,2 C 3,3 C 8,3 C 99 % 1008,0 hPa 0,0 l/m 18,3 km/h (3 Bft) W 265 0 min 0,000 mm 0,0 UV-I 0 W/m 9,1 C 2,8 C 29,0 km/h (5 Bft) 97,73 %
04.12.2018 00:44 9,2 C 3,3 C 8,3 C 99 % 1008,0 hPa 0,0 l/m 26,6 km/h (4 Bft) S-SW 202 0 min 0,000 mm 0,0 UV-I 0 W/m 9,1 C 0,3 C 37,0 km/h (5 Bft) 96,61 %
04.12.2018 00:46 9,3 C 3,3 C 8,9 C 99 % 1008,1 hPa 0,0 l/m 22,2 km/h (4 Bft) W-NW 293 0 min 0,000 mm 0,0 UV-I 0 W/m 9,2 C 1,7 C 35,4 km/h (5 Bft) 94,74 %
04.12.2018 00:48 9,4 C 3,3 C 8,9 C 99 % 1008,1 hPa 0,0 l/m 19,8 km/h (3 Bft) W-NW 286 0 min 0,000 mm 0,0 UV-I 0 W/m 9,3 C 2,6 C 27,4 km/h (4 Bft) 96,00 %
04.12.2018 00:50 9,4 C 3,3 C 8,9 C 99 % 1008,1 hPa 0,0 l/m 23,4 km/h (4 Bft) SW 231 0 min 0,000 mm 0,0 UV-I 0 W/m 9,3 C 1,5 C 37,0 km/h (5 Bft) 94,00 %
04.12.2018 00:52 9,6 C 3,3 C 8,9 C 99 % 1008,1 hPa 0,0 l/m 30,1 km/h (5 Bft) W-SW 242 0 min 0,000 mm 0,0 UV-I 0 W/m 9,5 C 0,1 C 45,1 km/h (6 Bft) 96,00 %
04.12.2018 00:54 9,7 C 3,3 C 8,9 C 98 % 1008,2 hPa 0,0 l/m 26,3 km/h (4 Bft) W 268 0 min 0,000 mm 0,0 UV-I 0 W/m 9,4 C 1,1 C 40,2 km/h (6 Bft) 94,74 %
04.12.2018 00:56 9,8 C 3,3 C 8,9 C 98 % 1008,2 hPa 0,0 l/m 29,0 km/h (5 Bft) W-SW 237 0 min 0,000 mm 0,0 UV-I 0 W/m 9,5 C 0,6 C 38,6 km/h (5 Bft) 96,43 %
04.12.2018 00:58 9,8 C 3,3 C 8,9 C 98 % 1008,2 hPa 0,0 l/m 25,1 km/h (4 Bft) W-SW 242 0 min 0,000 mm 0,0 UV-I 0 W/m 9,5 C 1,5 C 38,6 km/h (5 Bft) 94,74 %
04.12.2018 01:00 9,9 C 3,3 C 8,9 C 98 % 1008,2 hPa 0,0 l/m 23,7 km/h (4 Bft) W-SW 251 0 min 0,000 mm 0,0 UV-I 0 W/m 9,6 C 2,0 C 41,8 km/h (6 Bft) 96,23 %
04.12.2018 01:02 9,9 C 3,3 C 8,9 C 97 % 1008,2 hPa 0,0 l/m 25,4 km/h (4 Bft) W-SW 241 0 min 0,000 mm 0,0 UV-I 0 W/m 9,4 C 1,6 C 38,6 km/h (5 Bft) 95,45 %
04.12.2018 01:04 10,1 C 3,3 C 9,4 C 97 % 1008,3 hPa 0,0 l/m 31,1 km/h (5 Bft) W 261 0 min 0,000 mm 0,0 UV-I 0 W/m 9,6 C 0,6 C 48,3 km/h (6 Bft) 98,11 %
04.12.2018 01:06 10,2 C 3,3 C 9,4 C 96 % 1008,4 hPa 0,0 l/m 27,5 km/h (4 Bft) W-SW 249 0 min 0,000 mm 0,0 UV-I 0 W/m 9,6 C 1,5 C 45,1 km/h (6 Bft) 97,87 %
04.12.2018 01:08 10,3 C 3,3 C 9,4 C 95 % 1008,3 hPa 0,0 l/m 26,7 km/h (4 Bft) W-SW 241 0 min 0,000 mm 0,0 UV-I 0 W/m 9,5 C 1,8 C 38,6 km/h (5 Bft) 100,00 %
04.12.2018 01:10 10,3 C 3,3 C 9,4 C 95 % 1008,3 hPa 0,0 l/m 25,5 km/h (4 Bft) W-SW 250 0 min 0,000 mm 0,0 UV-I 0 W/m 9,5 C 2,1 C 46,7 km/h (6 Bft) 97,14 %
04.12.2018 01:12 10,3 C 3,3 C 9,4 C 94 % 1008,3 hPa 0,0 l/m 30,1 km/h (5 Bft) W-SW 252 0 min 0,000 mm 0,0 UV-I 0 W/m 9,4 C 1,1 C 49,9 km/h (6 Bft) 100,00 %
04.12.2018 01:14 10,4 C 3,3 C 9,4 C 93 % 1008,5 hPa 0,0 l/m 20,5 km/h (4 Bft) W-SW 243 0 min 0,000 mm 0,0 UV-I 0 W/m 9,3 C 3,6 C 30,6 km/h (5 Bft) 100,00 %
04.12.2018 01:16 10,4 C 3,3 C 9,4 C 92 % 1008,4 hPa 0,0 l/m 27,3 km/h (4 Bft) W 269 0 min 0,000 mm 0,0 UV-I 0 W/m 9,2 C 1,8 C 37,0 km/h (5 Bft) 98,46 %
04.12.2018 01:18 10,4 C 3,3 C 9,4 C 91 % 1008,5 hPa 0,0 l/m 25,5 km/h (4 Bft) SW 221 0 min 0,000 mm 0,0 UV-I 0 W/m 9,0 C 2,2 C 35,4 km/h (5 Bft) 98,04 %
04.12.2018 01:20 10,5 C 3,3 C 9,4 C 90 % 1008,6 hPa 0,0 l/m 25,5 km/h (4 Bft) W 263 0 min 0,000 mm 0,0 UV-I 0 W/m 8,9 C 2,4 C 33,8 km/h (5 Bft) 100,00 %
04.12.2018 01:22 10,6 C 3,3 C 9,4 C 89 % 1008,7 hPa 0,0 l/m 22,2 km/h (4 Bft) W 263 0 min 0,000 mm 0,0 UV-I 0 W/m 8,9 C 3,4 C 30,6 km/h (5 Bft) 100,00 %
04.12.2018 01:24 10,6 C 3,3 C 9,4 C 89 % 1008,6 hPa 0,0 l/m 29,7 km/h (5 Bft) W-SW 248 0 min 0,000 mm 0,0 UV-I 0 W/m 8,9 C 1,6 C 43,5 km/h (6 Bft) 100,00 %
04.12.2018 01:26 10,7 C 3,3 C 9,4 C 88 % 1008,7 hPa 0,0 l/m 27,2 km/h (4 Bft) W 274 0 min 0,000 mm 0,0 UV-I 0 W/m 8,8 C 2,3 C 40,2 km/h (6 Bft) 96,23 %
04.12.2018 01:28 10,7 C 3,3 C 9,4 C 88 % 1008,8 hPa 0,0 l/m 25,2 km/h (4 Bft) W 268 0 min 0,000 mm 0,0 UV-I 0 W/m 8,8 C 2,7 C 40,2 km/h (6 Bft) 100,00 %
04.12.2018 01:30 10,7 C 3,3 C 9,4 C 87 % 1008,8 hPa 0,0 l/m 24,8 km/h (4 Bft) SW 235 0 min 0,000 mm 0,0 UV-I 0 W/m 8,6 C 2,8 C 37,0 km/h (5 Bft) 98,00 %
04.12.2018 01:32 10,7 C 3,3 C 9,4 C 87 % 1008,9 hPa 0,0 l/m 23,8 km/h (4 Bft) SW 219 0 min 0,000 mm 0,0 UV-I 0 W/m 8,6 C 3,1 C 37,0 km/h (5 Bft) 100,00 %
04.12.2018 01:34 10,8 C 3,3 C 9,4 C 86 % 1008,9 hPa 0,0 l/m 26,5 km/h (4 Bft) W-SW 237 0 min 0,000 mm 0,0 UV-I 0 W/m 8,6 C 2,6 C 43,5 km/h (6 Bft) 97,37 %
04.12.2018 01:36 10,8 C 3,3 C 9,4 C 86 % 1009,0 hPa 0,0 l/m 22,4 km/h (4 Bft) W 266 0 min 0,000 mm 0,0 UV-I 0 W/m 8,6 C 3,6 C 33,8 km/h (5 Bft) 100,00 %
04.12.2018 01:38 10,8 C 3,3 C 9,4 C 86 % 1009,0 hPa 0,0 l/m 23,2 km/h (4 Bft) SW 236 0 min 0,000 mm 0,0 UV-I 0 W/m 8,6 C 3,4 C 43,5 km/h (6 Bft) 100,00 %
04.12.2018 01:40 10,8 C 3,3 C 9,4 C 85 % 1009,3 hPa 0,0 l/m 29,8 km/h (5 Bft) W 269 0 min 0,000 mm 0,0 UV-I 0 W/m 8,4 C 1,8 C 48,3 km/h (6 Bft) 100,00 %
04.12.2018 01:42 10,8 C 3,3 C 9,4 C 85 % 1009,5 hPa 0,0 l/m 29,7 km/h (5 Bft) W-NW 292 0 min 0,000 mm 0,0 UV-I 0 W/m 8,4 C 1,8 C 48,3 km/h (6 Bft) 100,00 %
04.12.2018 01:44 10,8 C 3,3 C 9,4 C 85 % 1009,5 hPa 0,0 l/m 27,6 km/h (4 Bft) W 271 0 min 0,000 mm 0,0 UV-I 0 W/m 8,4 C 2,3 C 45,1 km/h (6 Bft) 100,00 %
04.12.2018 01:46 10,7 C 3,3 C 8,9 C 86 % 1009,7 hPa 0,0 l/m 25,7 km/h (4 Bft) W-SW 257 0 min 0,000 mm 0,0 UV-I 0 W/m 8,5 C 2,6 C 37,0 km/h (5 Bft) 100,00 %
04.12.2018 01:48 10,6 C 3,3 C 8,9 C 86 % 1009,8 hPa 0,0 l/m 25,2 km/h (4 Bft) W 273 0 min 0,000 mm 0,0 UV-I 0 W/m 8,4 C 2,6 C 37,0 km/h (5 Bft) 100,00 %
04.12.2018 01:50 10,4 C 3,3 C 8,9 C 87 % 1009,9 hPa 0,2 l/m 22,5 km/h (4 Bft) W 261 0 min 0,000 mm 0,0 UV-I 0 W/m 8,3 C 3,0 C 33,8 km/h (5 Bft) 98,00 %
04.12.2018 01:52 10,3 C 3,3 C 8,9 C 88 % 1009,8 hPa 0,0 l/m 20,3 km/h (4 Bft) W 277 0 min 0,000 mm 0,0 UV-I 0 W/m 8,4 C 3,6 C 29,0 km/h (5 Bft) 100,00 %
04.12.2018 01:54 10,1 C 3,3 C 8,3 C 89 % 1009,8 hPa 0,0 l/m 27,4 km/h (4 Bft) W-SW 257 0 min 0,000 mm 0,0 UV-I 0 W/m 8,4 C 1,4 C 40,2 km/h (6 Bft) 100,00 %
04.12.2018 01:56 10,0 C 3,3 C 8,3 C 89 % 1009,8 hPa 0,0 l/m 26,7 km/h (4 Bft) W 265 0 min 0,000 mm 0,0 UV-I 0 W/m 8,3 C 1,4 C 43,5 km/h (6 Bft) 98,11 %
04.12.2018 01:58 9,8 C 3,3 C 8,3 C 89 % 1010,0 hPa 0,0 l/m 30,5 km/h (5 Bft) W 264 0 min 0,000 mm 0,0 UV-I 0 W/m 8,1 C 0,3 C 49,9 km/h (6 Bft) 98,00 %
04.12.2018 02:00 9,8 C 3,3 C 8,3 C 89 % 1010,0 hPa 0,2 l/m 27,1 km/h (4 Bft) W-SW 257 0 min 0,025 mm 0,0 UV-I 0 W/m 8,1 C 1,0 C 41,8 km/h (6 Bft) 100,00 %
04.12.2018 02:02 9,7 C 3,3 C 8,3 C 90 % 1010,1 hPa 0,0 l/m 26,6 km/h (4 Bft) W-NW 300 0 min 0,000 mm 0,0 UV-I 0 W/m 8,1 C 1,0 C 38,6 km/h (5 Bft) 100,00 %
04.12.2018 02:04 9,6 C 3,3 C 8,3 C 90 % 1010,2 hPa 0,0 l/m 22,9 km/h (4 Bft) W 277 0 min 0,000 mm 0,0 UV-I 0 W/m 8,0 C 1,9 C 40,2 km/h (6 Bft) 100,00 %
04.12.2018 02:06 9,5 C 3,3 C 8,3 C 90 % 1010,3 hPa 0,0 l/m 28,4 km/h (4 Bft) W-SW 252 0 min 0,000 mm 0,0 UV-I 0 W/m 7,9 C 0,3 C 38,6 km/h (5 Bft) 100,00 %
04.12.2018 02:08 9,5 C 3,3 C 8,3 C 90 % 1010,4 hPa 0,2 l/m 28,3 km/h (4 Bft) W-SW 245 0 min 0,000 mm 0,0 UV-I 0 W/m 7,9 C 0,3 C 46,7 km/h (6 Bft) 97,14 %
04.12.2018 02:10 9,4 C 3,3 C 8,3 C 90 % 1010,5 hPa 0,0 l/m 20,7 km/h (4 Bft) W 267 0 min 0,000 mm 0,0 UV-I 0 W/m 7,8 C 2,3 C 32,2 km/h (5 Bft) 96,61 %
04.12.2018 02:12 9,3 C 3,3 C 8,3 C 91 % 1010,4 hPa 0,0 l/m 21,8 km/h (4 Bft) W-SW 245 0 min 0,000 mm 0,0 UV-I 0 W/m 7,9 C 1,8 C 48,3 km/h (6 Bft) 97,37 %
04.12.2018 02:14 9,2 C 3,3 C 8,3 C 91 % 1010,5 hPa 0,0 l/m 23,8 km/h (4 Bft) W 281 0 min 0,000 mm 0,0 UV-I 0 W/m 7,8 C 1,1 C 43,5 km/h (6 Bft) 98,11 %
04.12.2018 02:16 9,2 C 3,3 C 8,3 C 91 % 1010,5 hPa 0,0 l/m 21,5 km/h (4 Bft) W-SW 257 0 min 0,000 mm 0,0 UV-I 0 W/m 7,8 C 1,8 C 32,2 km/h (5 Bft) 94,74 %
04.12.2018 02:18 9,1 C 3,3 C 7,8 C 91 % 1010,7 hPa 0,0 l/m 19,5 km/h (3 Bft) W 271 0 min 0,000 mm 0,0 UV-I 0 W/m 7,7 C 2,3 C 32,2 km/h (5 Bft) 98,00 %
04.12.2018 02:20 9,1 C 3,3 C 7,8 C 91 % 1010,6 hPa 0,0 l/m 26,6 km/h (4 Bft) W 277 0 min 0,000 mm 0,0 UV-I 0 W/m 7,7 C 0,2 C 46,7 km/h (6 Bft) 96,00 %
04.12.2018 02:22 9,0 C 3,3 C 7,8 C 91 % 1010,6 hPa 0,0 l/m 23,0 km/h (4 Bft) W-NW 290 0 min 0,000 mm 0,0 UV-I 0 W/m 7,6 C 1,0 C 37,0 km/h (5 Bft) 97,62 %
04.12.2018 02:24 9,0 C 3,3 C 7,8 C 92 % 1010,6 hPa 0,2 l/m 23,2 km/h (4 Bft) W 264 0 min 0,000 mm 0,0 UV-I 0 W/m 7,8 C 1,0 C 40,2 km/h (6 Bft) 98,18 %
04.12.2018 02:26 8,9 C 3,3 C 7,8 C 92 % 1010,6 hPa 0,0 l/m 19,8 km/h (3 Bft) W-NW 282 0 min 0,000 mm 0,0 UV-I 0 W/m 7,7 C 1,9 C 25,7 km/h (4 Bft) 97,44 %
04.12.2018 02:28 8,9 C 3,3 C 7,8 C 92 % 1010,6 hPa 0,0 l/m 20,6 km/h (4 Bft) W-NW 290 0 min 0,000 mm 0,0 UV-I 0 W/m 7,7 C 1,7 C 30,6 km/h (5 Bft) 97,87 %
04.12.2018 02:30 8,8 C 3,3 C 7,8 C 92 % 1010,7 hPa 0,2 l/m 23,4 km/h (4 Bft) W-SW 254 0 min 0,000 mm 0,0 UV-I 0 W/m 7,6 C 0,7 C 43,5 km/h (6 Bft) 97,87 %
04.12.2018 02:32 8,8 C 3,3 C 7,8 C 92 % 1010,7 hPa 0,0 l/m 21,5 km/h (4 Bft) W 273 0 min 0,000 mm 0,0 UV-I 0 W/m 7,6 C 1,2 C 35,4 km/h (5 Bft) 97,87 %
04.12.2018 02:34 8,8 C 3,3 C 7,8 C 92 % 1010,7 hPa 0,0 l/m 22,0 km/h (4 Bft) W 265 0 min 0,000 mm 0,0 UV-I 0 W/m 7,6 C 1,1 C 37,0 km/h (5 Bft) 98,11 %
04.12.2018 02:36 8,8 C 3,3 C 7,8 C 92 % 1010,7 hPa 0,0 l/m 21,4 km/h (4 Bft) W-SW 254 0 min 0,000 mm 0,0 UV-I 0 W/m 7,6 C 1,3 C 33,8 km/h (5 Bft) 97,56 %
04.12.2018 02:38 8,8 C 3,3 C 7,8 C 92 % 1010,6 hPa 0,0 l/m 21,0 km/h (4 Bft) SW 223 0 min 0,000 mm 0,0 UV-I 0 W/m 7,6 C 1,4 C 29,0 km/h (5 Bft) 96,00 %
04.12.2018 02:40 8,7 C 3,3 C 7,8 C 92 % 1010,6 hPa 0,0 l/m 17,9 km/h (3 Bft) W-SW 254 0 min 0,000 mm 0,0 UV-I 0 W/m 7,5 C 2,4 C 30,6 km/h (5 Bft) 94,34 %
04.12.2018 02:42 8,7 C 3,3 C 7,8 C 92 % 1010,6 hPa 0,0 l/m 20,9 km/h (4 Bft) W 280 0 min 0,000 mm 0,0 UV-I 0 W/m 7,5 C 1,3 C 30,6 km/h (5 Bft) 95,12 %
04.12.2018 02:44 8,7 C 3,3 C 7,8 C 92 % 1010,7 hPa 0,0 l/m 17,7 km/h (3 Bft) W-SW 253 0 min 0,000 mm 0,0 UV-I 0 W/m 7,5 C 2,4 C 25,7 km/h (4 Bft) 95,74 %
04.12.2018 02:46 8,7 C 3,3 C 7,8 C 92 % 1010,7 hPa 0,0 l/m 17,3 km/h (3 Bft) W-SW 254 0 min 0,000 mm 0,0 UV-I 0 W/m 7,5 C 2,6 C 20,9 km/h (4 Bft) 93,62 %
04.12.2018 02:48 8,7 C 3,3 C 7,8 C 92 % 1010,7 hPa 0,0 l/m 17,9 km/h (3 Bft) W-SW 246 0 min 0,000 mm 0,0 UV-I 0 W/m 7,5 C 2,4 C 24,1 km/h (4 Bft) 95,12 %
04.12.2018 02:50 8,7 C 3,3 C 7,8 C 92 % 1010,7 hPa 0,0 l/m 16,6 km/h (3 Bft) W-SW 246 0 min 0,000 mm 0,0 UV-I 0 W/m 7,5 C 2,9 C 30,6 km/h (5 Bft) 94,44 %
04.12.2018 02:52 8,7 C 3,3 C 7,8 C 92 % 1010,7 hPa 0,0 l/m 17,9 km/h (3 Bft) W 271 0 min 0,000 mm 0,0 UV-I 0 W/m 7,5 C 2,4 C 25,7 km/h (4 Bft) 93,75 %
04.12.2018 02:54 8,7 C 3,3 C 7,8 C 92 % 1010,7 hPa 0,0 l/m 21,9 km/h (4 Bft) W-SW 252 0 min 0,000 mm 0,0 UV-I 0 W/m 7,5 C 1,0 C 32,2 km/h (5 Bft) 95,45 %
04.12.2018 02:56 8,8 C 3,3 C 7,8 C 92 % 1010,7 hPa 0,0 l/m 17,0 km/h (3 Bft) W-SW 257 0 min 0,000 mm 0,0 UV-I 0 W/m 7,6 C 2,8 C 24,1 km/h (4 Bft) 95,74 %
04.12.2018 02:58 8,8 C 3,3 C 7,8 C 92 % 1010,8 hPa 0,0 l/m 20,7 km/h (4 Bft) W-NW 284 0 min 0,000 mm 0,0 UV-I 0 W/m 7,6 C 1,5 C 25,7 km/h (4 Bft) 100,00 %
04.12.2018 03:00 8,8 C 3,3 C 7,8 C 92 % 1010,8 hPa 0,0 l/m 18,5 km/h (3 Bft) SW 235 0 min 0,026 mm 0,0 UV-I 0 W/m 7,6 C 2,3 C 27,4 km/h (4 Bft) 94,29 %
04.12.2018 03:02 8,8 C 3,3 C 7,8 C 92 % 1010,8 hPa 0,0 l/m 17,8 km/h (3 Bft) W-SW 246 0 min 0,000 mm 0,0 UV-I 0 W/m 7,6 C 2,5 C 24,1 km/h (4 Bft) 95,24 %
04.12.2018 03:04 8,8 C 3,3 C 7,8 C 91 % 1010,8 hPa 0,0 l/m 19,1 km/h (3 Bft) W-SW 254 0 min 0,000 mm 0,0 UV-I 0 W/m 7,4 C 2,1 C 29,0 km/h (5 Bft) 96,00 %
04.12.2018 03:06 8,8 C 3,3 C 7,8 C 91 % 1010,8 hPa 0,0 l/m 19,3 km/h (3 Bft) SW 230 0 min 0,000 mm 0,0 UV-I 0 W/m 7,4 C 2,0 C 25,7 km/h (4 Bft) 96,00 %
04.12.2018 03:08 8,8 C 3,3 C 7,8 C 91 % 1010,8 hPa 0,0 l/m 17,3 km/h (3 Bft) W 262 0 min 0,000 mm 0,0 UV-I 0 W/m 7,4 C 2,7 C 25,7 km/h (4 Bft) 93,62 %
04.12.2018 03:10 8,8 C 3,3 C 7,8 C 91 % 1010,8 hPa 0,0 l/m 19,1 km/h (3 Bft) W-SW 257 0 min 0,000 mm 0,0 UV-I 0 W/m 7,4 C 2,1 C 30,6 km/h (5 Bft) 93,18 %
04.12.2018 03:12 8,8 C 3,3 C 7,8 C 91 % 1010,9 hPa 0,0 l/m 17,6 km/h (3 Bft) W-SW 254 0 min 0,000 mm 0,0 UV-I 0 W/m 7,4 C 2,6 C 20,9 km/h (4 Bft) 92,68 %
04.12.2018 03:14 8,8 C 3,3 C 7,8 C 91 % 1010,9 hPa 0,0 l/m 16,5 km/h (3 Bft) W-SW 257 0 min 0,000 mm 0,0 UV-I 0 W/m 7,4 C 3,0 C 27,4 km/h (4 Bft) 98,00 %
04.12.2018 03:16 8,8 C 3,3 C 7,8 C 91 % 1010,9 hPa 0,0 l/m 17,3 km/h (3 Bft) SW 234 0 min 0,000 mm 0,0 UV-I 0 W/m 7,4 C 2,7 C 27,4 km/h (4 Bft) 97,62 %
04.12.2018 03:18 8,8 C 3,3 C 7,8 C 91 % 1010,9 hPa 0,0 l/m 15,5 km/h (3 Bft) W-NW 291 0 min 0,000 mm 0,0 UV-I 0 W/m 7,4 C 3,5 C 20,9 km/h (4 Bft) 96,00 %
04.12.2018 03:20 8,8 C 3,3 C 7,8 C 91 % 1010,9 hPa 0,0 l/m 15,5 km/h (3 Bft) W 275 0 min 0,000 mm 0,0 UV-I 0 W/m 7,4 C 3,5 C 25,7 km/h (4 Bft) 96,23 %
04.12.2018 03:22 8,8 C 3,3 C 7,8 C 91 % 1010,9 hPa 0,0 l/m 17,7 km/h (3 Bft) W-SW 257 0 min 0,000 mm 0,0 UV-I 0 W/m 7,4 C 2,6 C 25,7 km/h (4 Bft) 96,00 %
04.12.2018 03:24 8,8 C 3,3 C 7,8 C 91 % 1010,9 hPa 0,0 l/m 16,8 km/h (3 Bft) W 271 0 min 0,000 mm 0,0 UV-I 0 W/m 7,4 C 2,9 C 22,5 km/h (4 Bft) 92,68 %
04.12.2018 03:26 8,8 C 3,3 C 7,8 C 91 % 1010,9 hPa 0,0 l/m 13,0 km/h (3 Bft) W 262 0 min 0,000 mm 0,0 UV-I 0 W/m 7,4 C 4,6 C 17,7 km/h (3 Bft) 96,30 %
04.12.2018 03:28 8,8 C 3,3 C 7,8 C 91 % 1010,9 hPa 0,0 l/m 15,3 km/h (3 Bft) W 271 0 min 0,000 mm 0,0 UV-I 0 W/m 7,4 C 3,5 C 20,9 km/h (4 Bft) 98,51 %
04.12.2018 03:30 8,7 C 3,3 C 7,8 C 91 % 1010,9 hPa 0,0 l/m 14,6 km/h (3 Bft) W 267 0 min 0,000 mm 0,0 UV-I 0 W/m 7,3 C 3,7 C 20,9 km/h (4 Bft) 93,62 %
04.12.2018 03:32 8,7 C 3,3 C 7,8 C 91 % 1010,9 hPa 0,0 l/m 15,9 km/h (3 Bft) W-SW 255 0 min 0,000 mm 0,0 UV-I 0 W/m 7,3 C 3,2 C 24,1 km/h (4 Bft) 91,49 %
04.12.2018 03:34 8,7 C 3,3 C 7,8 C 91 % 1011,0 hPa 0,0 l/m 13,4 km/h (3 Bft) W-SW 252 0 min 0,000 mm 0,0 UV-I 0 W/m 7,3 C 4,3 C 16,1 km/h (3 Bft) 96,00 %
04.12.2018 03:36 8,6 C 3,3 C 7,8 C 92 % 1011,0 hPa 0,0 l/m 11,7 km/h (2 Bft) W 281 0 min 0,000 mm 0,0 UV-I 0 W/m 7,4 C 5,1 C 17,7 km/h (3 Bft) 94,44 %
04.12.2018 03:38 8,6 C 3,3 C 7,8 C 92 % 1011,0 hPa 0,0 l/m 12,0 km/h (2 Bft) W 271 0 min 0,000 mm 0,0 UV-I 0 W/m 7,4 C 4,9 C 19,3 km/h (3 Bft) 96,00 %
04.12.2018 03:41 8,6 C 3,3 C 7,8 C 92 % 1011,0 hPa 0,2 l/m 11,2 km/h (2 Bft) W 269 0 min 0,000 mm 0,0 UV-I 0 W/m 7,4 C 5,3 C 14,5 km/h (3 Bft) 97,56 %
04.12.2018 03:42 8,5 C 3,3 C 7,8 C 92 % 1011,0 hPa 0,0 l/m 12,8 km/h (3 Bft) W 273 0 min 0,000 mm 0,0 UV-I 0 W/m 7,3 C 4,4 C 14,5 km/h (3 Bft) 100,00 %
04.12.2018 03:44 8,5 C 3,3 C 7,8 C 92 % 1010,9 hPa 0,0 l/m 9,4 km/h (2 Bft) W-SW 252 0 min 0,000 mm 0,0 UV-I 0 W/m 7,3 C 6,3 C 14,5 km/h (3 Bft) 98,11 %
04.12.2018 03:46 8,5 C 3,3 C 7,8 C 92 % 1011,0 hPa 0,0 l/m 8,0 km/h (2 Bft) W 261 0 min 0,000 mm 0,0 UV-I 0 W/m 7,3 C 7,3 C 11,3 km/h (2 Bft) 97,37 %
04.12.2018 03:48 8,4 C 3,3 C 7,2 C 93 % 1011,0 hPa 0,0 l/m 10,7 km/h (2 Bft) W 273 0 min 0,000 mm 0,0 UV-I 0 W/m 7,3 C 5,4 C 16,1 km/h (3 Bft) 96,23 %
04.12.2018 03:50 8,4 C 3,3 C 7,2 C 93 % 1011,0 hPa 0,0 l/m 10,7 km/h (2 Bft) W 269 0 min 0,000 mm 0,0 UV-I 0 W/m 7,3 C 5,4 C 14,5 km/h (3 Bft) 96,00 %
04.12.2018 03:52 8,3 C 3,3 C 7,2 C 93 % 1011,0 hPa 0,0 l/m 9,3 km/h (2 Bft) W-SW 258 0 min 0,000 mm 0,0 UV-I 0 W/m 7,2 C 6,2 C 12,9 km/h (3 Bft) 98,00 %
04.12.2018 03:54 8,3 C 3,3 C 7,2 C 93 % 1010,9 hPa 0,0 l/m 9,6 km/h (2 Bft) W-SW 257 0 min 0,000 mm 0,0 UV-I 0 W/m 7,2 C 6,0 C 12,9 km/h (3 Bft) 100,00 %
04.12.2018 03:56 8,3 C 3,3 C 7,2 C 93 % 1010,9 hPa 0,0 l/m 7,8 km/h (2 Bft) W-SW 257 0 min 0,000 mm 0,0 UV-I 0 W/m 7,2 C 7,2 C 11,3 km/h (2 Bft) 97,56 %
04.12.2018 03:58 8,3 C 3,3 C 7,2 C 93 % 1010,9 hPa 0,0 l/m 8,4 km/h (2 Bft) W-SW 258 0 min 0,000 mm 0,0 UV-I 0 W/m 7,2 C 6,8 C 14,5 km/h (3 Bft) 100,00 %
04.12.2018 04:00 8,3 C 3,3 C 7,2 C 94 % 1010,9 hPa 0,0 l/m 8,3 km/h (2 Bft) W 263 0 min 0,025 mm 0,0 UV-I 0 W/m 7,4 C 6,9 C 14,5 km/h (3 Bft) 100,00 %
04.12.2018 04:02 8,3 C 3,3 C 7,2 C 94 % 1011,2 hPa 0,0 l/m 8,9 km/h (2 Bft) W-NW 290 0 min 0,000 mm 0,0 UV-I 0 W/m 7,4 C 6,4 C 12,9 km/h (3 Bft) 100,00 %
04.12.2018 04:04 8,2 C 3,3 C 7,2 C 94 % 1011,1 hPa 0,0 l/m 4,6 km/h (1 Bft) W-NW 290 0 min 0,000 mm 0,0 UV-I 0 W/m 7,3 C 8,2 C 11,3 km/h (2 Bft) 98,00 %
04.12.2018 04:06 8,2 C 3,3 C 7,2 C 94 % 1010,9 hPa 0,0 l/m 4,6 km/h (1 Bft) W 261 0 min 0,000 mm 0,0 UV-I 0 W/m 7,3 C 8,2 C 9,7 km/h (2 Bft) 100,00 %
04.12.2018 04:08 8,1 C 3,3 C 7,2 C 94 % 1010,9 hPa 0,0 l/m 5,7 km/h (1 Bft) W-SW 240 0 min 0,000 mm 0,0 UV-I 0 W/m 7,2 C 8,1 C 9,7 km/h (2 Bft) 100,00 %
04.12.2018 04:10 8,1 C 3,3 C 7,2 C 94 % 1010,9 hPa 0,0 l/m 6,5 km/h (2 Bft) W 271 0 min 0,000 mm 0,0 UV-I 0 W/m 7,2 C 8,0 C 9,7 km/h (2 Bft) 100,00 %
04.12.2018 04:12 8,1 C 3,3 C 7,2 C 94 % 1010,9 hPa 0,0 l/m 8,1 km/h (2 Bft) W 261 0 min 0,000 mm 0,0 UV-I 0 W/m 7,2 C 6,8 C 11,3 km/h (2 Bft) 100,00 %
04.12.2018 04:14 8,1 C 3,3 C 7,2 C 94 % 1010,9 hPa 0,0 l/m 7,5 km/h (2 Bft) W 262 0 min 0,000 mm 0,0 UV-I 0 W/m 7,2 C 7,2 C 9,7 km/h (2 Bft) 100,00 %
04.12.2018 04:16 8,1 C 3,3 C 7,2 C 94 % 1011,0 hPa 0,0 l/m 5,5 km/h (1 Bft) W-SW 252 0 min 0,000 mm 0,0 UV-I 0 W/m 7,2 C 8,1 C 9,7 km/h (2 Bft) 97,73 %
04.12.2018 04:18 8,1 C 3,3 C 7,2 C 94 % 1010,9 hPa 0,0 l/m 6,2 km/h (2 Bft) SW 226 0 min 0,000 mm 0,0 UV-I 0 W/m 7,2 C 8,1 C 8,0 km/h (2 Bft) 100,00 %
04.12.2018 04:20 8,1 C 3,3 C 7,2 C 94 % 1010,8 hPa 0,0 l/m 7,1 km/h (2 Bft) S-SW 209 0 min 0,000 mm 0,0 UV-I 0 W/m 7,2 C 7,6 C 11,3 km/h (2 Bft) 100,00 %
04.12.2018 04:22 8,0 C 3,3 C 7,2 C 94 % 1010,8 hPa 0,0 l/m 6,1 km/h (2 Bft) S-SW 199 0 min 0,000 mm 0,0 UV-I 0 W/m 7,1 C 8,0 C 9,7 km/h (2 Bft) 100,00 %
04.12.2018 04:24 7,9 C 3,3 C 7,2 C 94 % 1010,9 hPa 0,0 l/m 8,6 km/h (2 Bft) S-SW 213 0 min 0,000 mm 0,0 UV-I 0 W/m 7,0 C 6,2 C 12,9 km/h (3 Bft) 100,00 %
04.12.2018 04:26 8,0 C 3,3 C 7,2 C 95 % 1011,0 hPa 0,0 l/m 7,6 km/h (2 Bft) SW 229 0 min 0,000 mm 0,0 UV-I 0 W/m 7,2 C 7,1 C 11,3 km/h (2 Bft) 100,00 %
04.12.2018 04:28 8,1 C 3,3 C 7,2 C 95 % 1010,9 hPa 0,0 l/m 7,7 km/h (2 Bft) W-SW 243 0 min 0,000 mm 0,0 UV-I 0 W/m 7,3 C 7,1 C 12,9 km/h (3 Bft) 100,00 %
04.12.2018 04:30 8,1 C 3,3 C 7,2 C 95 % 1011,0 hPa 0,0 l/m 8,6 km/h (2 Bft) SW 235 0 min 0,000 mm 0,0 UV-I 0 W/m 7,3 C 6,4 C 12,9 km/h (3 Bft) 100,00 %
04.12.2018 04:32 8,1 C 3,3 C 7,2 C 94 % 1011,0 hPa 0,0 l/m 7,3 km/h (2 Bft) W-SW 238 0 min 0,000 mm 0,0 UV-I 0 W/m 7,2 C 7,4 C 11,3 km/h (2 Bft) 100,00 %
04.12.2018 04:34 8,1 C 3,3 C 7,2 C 94 % 1011,1 hPa 0,0 l/m 7,5 km/h (2 Bft) W 260 0 min 0,000 mm 0,0 UV-I 0 W/m 7,2 C 7,2 C 11,3 km/h (2 Bft) 100,00 %
04.12.2018 04:36 8,0 C 3,3 C 7,2 C 94 % 1011,1 hPa 0,0 l/m 7,6 km/h (2 Bft) W 272 0 min 0,000 mm 0,0 UV-I 0 W/m 7,1 C 7,1 C 9,7 km/h (2 Bft) 96,00 %
04.12.2018 04:38 8,0 C 3,3 C 7,2 C 94 % 1011,0 hPa 0,2 l/m 7,3 km/h (2 Bft) W 271 0 min 0,000 mm 0,0 UV-I 0 W/m 7,1 C 7,3 C 12,9 km/h (3 Bft) 100,00 %
04.12.2018 04:40 8,0 C 3,3 C 7,2 C 95 % 1011,0 hPa 0,0 l/m 7,1 km/h (2 Bft) W-SW 244 0 min 0,000 mm 0,0 UV-I 0 W/m 7,2 C 7,4 C 12,9 km/h (3 Bft) 100,00 %
04.12.2018 04:42 8,1 C 3,3 C 7,2 C 95 % 1010,9 hPa 0,0 l/m 7,6 km/h (2 Bft) SW 225 0 min 0,000 mm 0,0 UV-I 0 W/m 7,3 C 7,2 C 12,9 km/h (3 Bft) 100,00 %
04.12.2018 04:44 8,1 C 3,3 C 7,2 C 95 % 1010,9 hPa 0,0 l/m 7,6 km/h (2 Bft) SW 217 0 min 0,000 mm 0,0 UV-I 0 W/m 7,3 C 7,2 C 16,1 km/h (3 Bft) 100,00 %
04.12.2018 04:46 8,2 C 3,3 C 7,2 C 95 % 1010,9 hPa 0,0 l/m 8,2 km/h (2 Bft) SW 233 0 min 0,000 mm 0,0 UV-I 0 W/m 7,4 C 6,8 C 12,9 km/h (3 Bft) 97,87 %
04.12.2018 04:48 8,2 C 3,3 C 7,2 C 95 % 1010,9 hPa 0,0 l/m 10,1 km/h (2 Bft) W-SW 239 0 min 0,000 mm 0,0 UV-I 0 W/m 7,4 C 5,5 C 14,5 km/h (3 Bft) 95,45 %
04.12.2018 04:50 8,2 C 3,3 C 7,2 C 95 % 1010,9 hPa 0,0 l/m 8,7 km/h (2 Bft) SW 219 0 min 0,000 mm 0,0 UV-I 0 W/m 7,4 C 6,5 C 12,9 km/h (3 Bft) 98,00 %
04.12.2018 04:52 8,2 C 3,3 C 7,2 C 94 % 1010,9 hPa 0,0 l/m 8,8 km/h (2 Bft) W-SW 239 0 min 0,000 mm 0,0 UV-I 0 W/m 7,3 C 6,4 C 14,5 km/h (3 Bft) 94,34 %
04.12.2018 04:54 8,2 C 3,3 C 7,2 C 94 % 1010,9 hPa 0,0 l/m 11,1 km/h (2 Bft) SW 230 0 min 0,000 mm 0,0 UV-I 0 W/m 7,3 C 4,9 C 14,5 km/h (3 Bft) 100,00 %
04.12.2018 04:56 8,2 C 3,3 C 7,2 C 94 % 1010,9 hPa 0,0 l/m 14,8 km/h (3 Bft) W-SW 254 0 min 0,000 mm 0,0 UV-I 0 W/m 7,3 C 3,0 C 20,9 km/h (4 Bft) 93,22 %
04.12.2018 04:58 8,2 C 3,3 C 7,2 C 94 % 1011,0 hPa 0,0 l/m 12,1 km/h (2 Bft) SW 236 0 min 0,000 mm 0,0 UV-I 0 W/m 7,3 C 4,4 C 19,3 km/h (3 Bft) 96,23 %
04.12.2018 05:00 8,2 C 3,3 C 7,2 C 94 % 1010,9 hPa 0,0 l/m 16,5 km/h (3 Bft) W-SW 248 0 min 0,000 mm 0,0 UV-I 0 W/m 7,3 C 2,3 C 25,7 km/h (4 Bft) 95,12 %
04.12.2018 05:02 8,3 C 3,3 C 7,2 C 94 % 1010,9 hPa 0,0 l/m 14,3 km/h (3 Bft) W 265 0 min 0,000 mm 0,0 UV-I 0 W/m 7,4 C 3,4 C 20,9 km/h (4 Bft) 96,23 %
04.12.2018 05:04 8,3 C 3,3 C 7,2 C 94 % 1010,9 hPa 0,0 l/m 17,7 km/h (3 Bft) W 269 0 min 0,000 mm 0,0 UV-I 0 W/m 7,4 C 1,9 C 29,0 km/h (5 Bft) 95,45 %
04.12.2018 05:06 8,3 C 3,3 C 7,2 C 94 % 1010,9 hPa 0,0 l/m 20,4 km/h (4 Bft) W-SW 252 0 min 0,000 mm 0,0 UV-I 0 W/m 7,4 C 1,0 C 30,6 km/h (5 Bft) 94,74 %
04.12.2018 05:08 8,6 C 3,3 C 7,8 C 93 % 1011,0 hPa 0,0 l/m 19,1 km/h (3 Bft) W-SW 253 0 min 0,000 mm 0,0 UV-I 0 W/m 7,5 C 1,8 C 30,6 km/h (5 Bft) 96,23 %
04.12.2018 05:10 8,7 C 3,3 C 7,8 C 92 % 1011,0 hPa 0,0 l/m 16,4 km/h (3 Bft) W 259 0 min 0,000 mm 0,0 UV-I 0 W/m 7,5 C 3,0 C 25,7 km/h (4 Bft) 95,45 %
04.12.2018 05:12 8,9 C 3,3 C 7,8 C 91 % 1011,0 hPa 0,0 l/m 18,5 km/h (3 Bft) SW 225 0 min 0,000 mm 0,0 UV-I 0 W/m 7,5 C 2,4 C 30,6 km/h (5 Bft) 94,34 %
04.12.2018 05:14 9,0 C 3,3 C 7,8 C 90 % 1011,0 hPa 0,0 l/m 14,9 km/h (3 Bft) SW 231 0 min 0,000 mm 0,0 UV-I 0 W/m 7,4 C 4,0 C 22,5 km/h (4 Bft) 94,74 %
04.12.2018 05:16 9,1 C 3,3 C 7,8 C 90 % 1010,9 hPa 0,0 l/m 16,0 km/h (3 Bft) W-SW 245 0 min 0,000 mm 0,0 UV-I 0 W/m 7,5 C 3,6 C 22,5 km/h (4 Bft) 98,31 %
04.12.2018 05:18 9,1 C 3,3 C 7,8 C 89 % 1011,0 hPa 0,0 l/m 16,3 km/h (3 Bft) W-SW 244 0 min 0,000 mm 0,0 UV-I 0 W/m 7,4 C 3,5 C 20,9 km/h (4 Bft) 93,62 %
04.12.2018 05:20 9,1 C 3,3 C 7,8 C 89 % 1011,0 hPa 0,0 l/m 14,9 km/h (3 Bft) SW 230 0 min 0,000 mm 0,0 UV-I 0 W/m 7,4 C 4,1 C 19,3 km/h (3 Bft) 97,56 %
04.12.2018 05:22 9,0 C 3,3 C 7,8 C 89 % 1011,0 hPa 0,0 l/m 11,7 km/h (2 Bft) W-SW 244 0 min 0,000 mm 0,0 UV-I 0 W/m 7,3 C 5,5 C 17,7 km/h (3 Bft) 93,62 %
04.12.2018 05:24 9,0 C 3,3 C 7,8 C 89 % 1010,9 hPa 0,0 l/m 11,1 km/h (2 Bft) S-SW 209 0 min 0,000 mm 0,0 UV-I 0 W/m 7,3 C 5,9 C 16,1 km/h (3 Bft) 97,56 %
04.12.2018 05:26 8,9 C 3,3 C 7,8 C 89 % 1010,9 hPa 0,0 l/m 13,3 km/h (3 Bft) SW 231 0 min 0,000 mm 0,0 UV-I 0 W/m 7,2 C 4,6 C 20,9 km/h (4 Bft) 98,21 %
04.12.2018 05:28 9,0 C 3,3 C 7,8 C 89 % 1010,9 hPa 0,0 l/m 11,9 km/h (2 Bft) W-SW 252 0 min 0,000 mm 0,0 UV-I 0 W/m 7,3 C 5,4 C 19,3 km/h (3 Bft) 97,44 %
04.12.2018 05:30 9,0 C 3,3 C 7,8 C 89 % 1011,0 hPa 0,0 l/m 11,7 km/h (2 Bft) W-SW 242 0 min 0,000 mm 0,0 UV-I 0 W/m 7,3 C 5,5 C 16,1 km/h (3 Bft) 98,08 %
04.12.2018 05:32 9,0 C 3,3 C 7,8 C 88 % 1011,0 hPa 0,0 l/m 10,6 km/h (2 Bft) W-SW 238 0 min 0,000 mm 0,0 UV-I 0 W/m 7,1 C 6,1 C 14,5 km/h (3 Bft) 100,00 %
04.12.2018 05:34 8,9 C 3,3 C 7,8 C 89 % 1011,1 hPa 0,0 l/m 13,1 km/h (3 Bft) W-SW 242 0 min 0,000 mm 0,0 UV-I 0 W/m 7,2 C 4,7 C 19,3 km/h (3 Bft) 100,00 %
04.12.2018 05:36 8,9 C 3,3 C 7,8 C 89 % 1011,1 hPa 0,0 l/m 14,4 km/h (3 Bft) W-SW 240 0 min 0,000 mm 0,0 UV-I 0 W/m 7,2 C 4,1 C 19,3 km/h (3 Bft) 97,87 %
04.12.2018 05:38 8,9 C 3,3 C 7,8 C 89 % 1011,1 hPa 0,0 l/m 14,8 km/h (3 Bft) W-SW 240 0 min 0,000 mm 0,0 UV-I 0 W/m 7,2 C 3,9 C 20,9 km/h (4 Bft) 98,00 %
04.12.2018 05:40 8,9 C 3,3 C 7,8 C 89 % 1011,1 hPa 0,0 l/m 14,1 km/h (3 Bft) W-SW 240 0 min 0,000 mm 0,0 UV-I 0 W/m 7,2 C 4,2 C 19,3 km/h (3 Bft) 97,56 %
04.12.2018 05:42 8,9 C 3,3 C 7,8 C 89 % 1011,1 hPa 0,0 l/m 17,0 km/h (3 Bft) W-SW 240 0 min 0,000 mm 0,0 UV-I 0 W/m 7,2 C 3,0 C 24,1 km/h (4 Bft) 96,00 %
04.12.2018 05:44 8,9 C 3,3 C 7,8 C 88 % 1011,2 hPa 0,0 l/m 15,4 km/h (3 Bft) W 271 0 min 0,000 mm 0,0 UV-I 0 W/m 7,0 C 3,6 C 25,7 km/h (4 Bft) 100,00 %
04.12.2018 05:46 8,9 C 3,3 C 7,8 C 88 % 1011,2 hPa 0,0 l/m 16,3 km/h (3 Bft) SW 234 0 min 0,000 mm 0,0 UV-I 0 W/m 7,0 C 3,2 C 22,5 km/h (4 Bft) 100,00 %
04.12.2018 05:48 8,9 C 3,3 C 7,8 C 88 % 1011,2 hPa 0,0 l/m 14,6 km/h (3 Bft) W-NW 283 0 min 0,000 mm 0,0 UV-I 0 W/m 7,0 C 4,0 C 19,3 km/h (3 Bft) 100,00 %
04.12.2018 05:50 9,0 C 3,3 C 7,8 C 88 % 1011,3 hPa 0,0 l/m 16,1 km/h (3 Bft) W-SW 246 0 min 0,000 mm 0,0 UV-I 0 W/m 7,1 C 3,5 C 22,5 km/h (4 Bft) 100,00 %
04.12.2018 05:52 9,0 C 3,3 C 7,8 C 88 % 1011,3 hPa 0,0 l/m 20,0 km/h (4 Bft) SW 234 0 min 0,000 mm 0,0 UV-I 0 W/m 7,1 C 2,0 C 29,0 km/h (5 Bft) 100,00 %
04.12.2018 05:54 9,1 C 3,3 C 7,8 C 87 % 1011,3 hPa 0,0 l/m 16,3 km/h (3 Bft) SW 217 0 min 0,000 mm 0,0 UV-I 0 W/m 7,1 C 3,5 C 24,1 km/h (4 Bft) 97,87 %
04.12.2018 05:56 9,2 C 3,3 C 7,8 C 87 % 1011,3 hPa 0,2 l/m 18,8 km/h (3 Bft) W-SW 252 0 min 0,000 mm 0,0 UV-I 0 W/m 7,2 C 2,7 C 30,6 km/h (5 Bft) 100,00 %
04.12.2018 05:58 9,3 C 3,3 C 7,8 C 86 % 1011,3 hPa 0,0 l/m 15,5 km/h (3 Bft) W-SW 254 0 min 0,000 mm 0,0 UV-I 0 W/m 7,1 C 4,1 C 25,7 km/h (4 Bft) 100,00 %
04.12.2018 06:00 9,3 C 3,3 C 7,8 C 86 % 1011,3 hPa 0,0 l/m 17,3 km/h (3 Bft) SW 236 0 min 0,000 mm 0,0 UV-I 0 W/m 7,1 C 3,3 C 22,5 km/h (4 Bft) 96,23 %
04.12.2018 06:02 9,3 C 3,3 C 7,8 C 86 % 1011,3 hPa 0,0 l/m 18,4 km/h (3 Bft) W 259 0 min 0,026 mm 0,0 UV-I 0 W/m 7,1 C 2,9 C 27,4 km/h (4 Bft) 96,00 %
04.12.2018 06:04 9,4 C 3,3 C 8,3 C 85 % 1011,3 hPa 0,0 l/m 19,3 km/h (3 Bft) W 259 0 min 0,000 mm 0,0 UV-I 0 W/m 7,0 C 2,7 C 24,1 km/h (4 Bft) 94,74 %
04.12.2018 06:06 9,5 C 3,3 C 8,3 C 85 % 1011,3 hPa 0,0 l/m 19,1 km/h (3 Bft) W 259 0 min 0,000 mm 0,0 UV-I 0 W/m 7,1 C 2,9 C 27,4 km/h (4 Bft) 100,00 %
04.12.2018 06:08 9,6 C 3,3 C 8,3 C 85 % 1011,2 hPa 0,0 l/m 19,1 km/h (3 Bft) SW 234 0 min 0,000 mm 0,0 UV-I 0 W/m 7,2 C 3,1 C 33,8 km/h (5 Bft) 100,00 %
04.12.2018 06:10 9,6 C 3,3 C 8,3 C 84 % 1011,3 hPa 0,0 l/m 19,4 km/h (3 Bft) W-SW 252 0 min 0,000 mm 0,0 UV-I 0 W/m 7,0 C 3,0 C 30,6 km/h (5 Bft) 98,00 %
04.12.2018 06:12 9,7 C 3,3 C 8,3 C 84 % 1011,3 hPa 0,0 l/m 20,6 km/h (4 Bft) W 269 0 min 0,000 mm 0,0 UV-I 0 W/m 7,1 C 2,7 C 35,4 km/h (5 Bft) 100,00 %
04.12.2018 06:14 9,7 C 3,3 C 7,8 C 83 % 1011,4 hPa 0,0 l/m 21,6 km/h (4 Bft) W 259 0 min 0,000 mm 0,0 UV-I 0 W/m 7,0 C 2,4 C 30,6 km/h (5 Bft) 96,55 %
04.12.2018 06:16 9,7 C 3,3 C 7,8 C 83 % 1011,4 hPa 0,0 l/m 20,5 km/h (4 Bft) W-SW 246 0 min 0,000 mm 0,0 UV-I 0 W/m 7,0 C 2,7 C 29,0 km/h (5 Bft) 97,44 %
04.12.2018 06:18 9,8 C 3,3 C 8,3 C 83 % 1011,6 hPa 0,0 l/m 17,6 km/h (3 Bft) W 262 0 min 0,000 mm 0,0 UV-I 0 W/m 7,1 C 3,9 C 27,4 km/h (4 Bft) 98,00 %
04.12.2018 06:20 9,7 C 3,3 C 8,3 C 83 % 1011,7 hPa 0,0 l/m 17,3 km/h (3 Bft) W 267 0 min 0,000 mm 0,0 UV-I 0 W/m 7,0 C 3,9 C 27,4 km/h (4 Bft) 96,00 %
04.12.2018 06:22 9,7 C 3,3 C 8,3 C 83 % 1011,6 hPa 0,0 l/m 19,6 km/h (3 Bft) W 263 0 min 0,000 mm 0,0 UV-I 0 W/m 7,0 C 3,0 C 25,7 km/h (4 Bft) 97,14 %
04.12.2018 06:24 9,7 C 3,3 C 7,8 C 83 % 1011,8 hPa 0,0 l/m 22,8 km/h (4 Bft) W-NW 284 0 min 0,000 mm 0,0 UV-I 0 W/m 7,0 C 2,0 C 37,0 km/h (5 Bft) 96,23 %
04.12.2018 06:26 9,7 C 3,3 C 7,8 C 83 % 1012,0 hPa 0,0 l/m 18,8 km/h (3 Bft) W 263 0 min 0,000 mm 0,0 UV-I 0 W/m 7,0 C 3,3 C 25,7 km/h (4 Bft) 97,73 %
04.12.2018 06:28 9,6 C 3,3 C 7,8 C 83 % 1012,1 hPa 0,0 l/m 16,9 km/h (3 Bft) W 270 0 min 0,000 mm 0,0 UV-I 0 W/m 6,9 C 3,9 C 22,5 km/h (4 Bft) 98,11 %
04.12.2018 06:30 9,6 C 3,3 C 8,3 C 83 % 1012,1 hPa 0,0 l/m 20,6 km/h (4 Bft) W 259 0 min 0,000 mm 0,0 UV-I 0 W/m 6,9 C 2,6 C 27,4 km/h (4 Bft) 96,00 %
04.12.2018 06:32 9,6 C 3,3 C 8,3 C 83 % 1012,0 hPa 0,0 l/m 19,2 km/h (3 Bft) W-SW 253 0 min 0,000 mm 0,0 UV-I 0 W/m 6,9 C 3,0 C 27,4 km/h (4 Bft) 90,24 %
04.12.2018 06:34 9,7 C 3,3 C 8,3 C 83 % 1012,1 hPa 0,0 l/m 19,7 km/h (3 Bft) W 277 0 min 0,000 mm 0,0 UV-I 0 W/m 7,0 C 3,0 C 27,4 km/h (4 Bft) 94,74 %
04.12.2018 06:36 9,7 C 3,3 C 8,3 C 82 % 1012,2 hPa 0,0 l/m 21,4 km/h (4 Bft) W 261 0 min 0,000 mm 0,0 UV-I 0 W/m 6,8 C 2,5 C 32,2 km/h (5 Bft) 94,34 %
04.12.2018 06:38 9,8 C 3,3 C 8,3 C 82 % 1012,2 hPa 0,0 l/m 17,2 km/h (3 Bft) W 275 0 min 0,000 mm 0,0 UV-I 0 W/m 6,9 C 4,0 C 24,1 km/h (4 Bft) 95,74 %
04.12.2018 06:40 9,8 C 3,9 C 8,3 C 82 % 1012,1 hPa 0,0 l/m 19,1 km/h (3 Bft) W-SW 247 0 min 0,000 mm 0,0 UV-I 0 W/m 6,9 C 3,3 C 30,6 km/h (5 Bft) 97,87 %
04.12.2018 06:42 9,8 C 3,3 C 8,3 C 82 % 1012,2 hPa 0,0 l/m 17,5 km/h (3 Bft) SW 232 0 min 0,000 mm 0,0 UV-I 0 W/m 6,9 C 3,9 C 25,7 km/h (4 Bft) 97,87 %
04.12.2018 06:44 9,8 C 3,3 C 8,3 C 82 % 1012,2 hPa 0,0 l/m 20,7 km/h (4 Bft) SW 217 0 min 0,000 mm 0,0 UV-I 0 W/m 6,9 C 2,8 C 33,8 km/h (5 Bft) 96,00 %
04.12.2018 06:46 9,8 C 3,3 C 8,3 C 82 % 1012,2 hPa 0,0 l/m 17,6 km/h (3 Bft) W-SW 254 0 min 0,000 mm 0,0 UV-I 0 W/m 6,9 C 3,9 C 27,4 km/h (4 Bft) 97,62 %
04.12.2018 06:48 9,8 C 3,3 C 8,3 C 82 % 1012,2 hPa 0,0 l/m 17,9 km/h (3 Bft) W 271 0 min 0,000 mm 0,0 UV-I 0 W/m 6,9 C 3,8 C 24,1 km/h (4 Bft) 96,15 %
04.12.2018 06:50 9,8 C 3,3 C 8,3 C 82 % 1012,2 hPa 0,0 l/m 18,4 km/h (3 Bft) W-SW 252 0 min 0,000 mm 0,0 UV-I 0 W/m 6,9 C 3,6 C 30,6 km/h (5 Bft) 93,62 %
04.12.2018 06:52 9,8 C 3,3 C 8,3 C 81 % 1012,3 hPa 0,0 l/m 18,4 km/h (3 Bft) W-NW 291 0 min 0,000 mm 0,0 UV-I 0 W/m 6,7 C 3,6 C 29,0 km/h (5 Bft) 97,44 %
04.12.2018 06:54 9,8 C 3,3 C 8,3 C 81 % 1012,4 hPa 0,0 l/m 15,7 km/h (3 Bft) SW 222 0 min 0,000 mm 0,0 UV-I 0 W/m 6,7 C 4,6 C 22,5 km/h (4 Bft) 98,00 %
04.12.2018 06:56 9,7 C 3,3 C 8,3 C 82 % 1012,4 hPa 0,0 l/m 18,7 km/h (3 Bft) W-NW 290 0 min 0,000 mm 0,0 UV-I 0 W/m 6,8 C 3,3 C 25,7 km/h (4 Bft) 95,74 %
04.12.2018 06:58 9,7 C 3,3 C 8,3 C 82 % 1012,3 hPa 0,0 l/m 16,8 km/h (3 Bft) SW 234 0 min 0,000 mm 0,0 UV-I 0 W/m 6,8 C 4,0 C 27,4 km/h (4 Bft) 98,21 %
04.12.2018 07:00 9,6 C 3,3 C 8,3 C 82 % 1012,3 hPa 0,0 l/m 16,0 km/h (3 Bft) W-SW 242 0 min 0,025 mm 0,0 UV-I 0 W/m 6,7 C 4,2 C 22,5 km/h (4 Bft) 90,91 %
04.12.2018 07:02 9,6 C 3,3 C 8,3 C 82 % 1012,3 hPa 0,0 l/m 22,0 km/h (4 Bft) W-NW 284 0 min 0,000 mm 0,0 UV-I 0 W/m 6,7 C 2,1 C 32,2 km/h (5 Bft) 94,00 %
04.12.2018 07:04 9,6 C 3,3 C 8,3 C 82 % 1012,4 hPa 0,0 l/m 21,0 km/h (4 Bft) W-NW 290 0 min 0,000 mm 0,0 UV-I 0 W/m 6,7 C 2,4 C 30,6 km/h (5 Bft) 94,74 %
04.12.2018 07:06 9,6 C 3,3 C 8,3 C 82 % 1012,4 hPa 0,0 l/m 20,7 km/h (4 Bft) W-SW 240 0 min 0,000 mm 0,0 UV-I 0 W/m 6,7 C 2,5 C 29,0 km/h (5 Bft) 95,74 %
04.12.2018 07:08 9,6 C 3,3 C 8,3 C 82 % 1012,4 hPa 0,0 l/m 21,5 km/h (4 Bft) W 261 0 min 0,000 mm 0,0 UV-I 0 W/m 6,7 C 2,3 C 30,6 km/h (5 Bft) 93,62 %
04.12.2018 07:10 9,7 C 3,3 C 8,3 C 82 % 1012,5 hPa 0,0 l/m 20,4 km/h (4 Bft) SW 228 0 min 0,000 mm 0,0 UV-I 0 W/m 6,8 C 2,8 C 29,0 km/h (5 Bft) 92,45 %
04.12.2018 07:12 9,7 C 3,3 C 7,8 C 82 % 1012,5 hPa 0,0 l/m 19,4 km/h (3 Bft) W-SW 253 0 min 0,000 mm 0,0 UV-I 0 W/m 6,8 C 3,1 C 25,7 km/h (4 Bft) 97,56 %
04.12.2018 07:14 9,6 C 3,3 C 7,8 C 82 % 1012,5 hPa 0,0 l/m 19,9 km/h (4 Bft) W 271 0 min 0,000 mm 0,0 UV-I 0 W/m 6,7 C 2,8 C 27,4 km/h (4 Bft) 96,23 %
04.12.2018 07:16 9,7 C 3,3 C 7,8 C 82 % 1012,5 hPa 0,0 l/m 17,9 km/h (3 Bft) SW 234 0 min 0,000 mm 0,0 UV-I 0 W/m 6,8 C 3,6 C 27,4 km/h (4 Bft) 92,68 %
04.12.2018 07:18 9,7 C 3,3 C 7,8 C 82 % 1012,5 hPa 0,0 l/m 22,2 km/h (4 Bft) W-SW 250 0 min 0,000 mm 0,0 UV-I 0 W/m 6,8 C 2,2 C 32,2 km/h (5 Bft) 95,74 %
04.12.2018 07:20 9,7 C 3,3 C 7,8 C 81 % 1012,5 hPa 0,0 l/m 21,1 km/h (4 Bft) W 274 0 min 0,000 mm 0,0 UV-I 0 W/m 6,6 C 2,5 C 32,2 km/h (5 Bft) 93,62 %
04.12.2018 07:22 9,7 C 3,3 C 8,3 C 81 % 1012,5 hPa 0,0 l/m 21,0 km/h (4 Bft) W 276 0 min 0,000 mm 0,0 UV-I 0 W/m 6,6 C 2,6 C 30,6 km/h (5 Bft) 96,00 %
04.12.2018 07:24 9,7 C 3,3 C 8,3 C 81 % 1012,5 hPa 0,0 l/m 22,2 km/h (4 Bft) W-SW 246 0 min 0,000 mm 0,0 UV-I 0 W/m 6,6 C 2,2 C 32,2 km/h (5 Bft) 92,31 %
04.12.2018 07:26 9,7 C 3,3 C 8,3 C 81 % 1012,6 hPa 0,0 l/m 20,7 km/h (4 Bft) W-SW 240 0 min 0,000 mm 0,0 UV-I 0 W/m 6,6 C 2,7 C 27,4 km/h (4 Bft) 94,00 %
04.12.2018 07:28 9,7 C 3,3 C 8,3 C 81 % 1012,7 hPa 0,0 l/m 18,9 km/h (3 Bft) W 261 0 min 0,000 mm 0,0 UV-I 0 W/m 6,6 C 3,3 C 29,0 km/h (5 Bft) 94,34 %
04.12.2018 07:30 9,7 C 3,3 C 8,3 C 81 % 1012,6 hPa 0,0 l/m 20,4 km/h (4 Bft) W 271 0 min 0,000 mm 0,0 UV-I 0 W/m 6,6 C 2,8 C 32,2 km/h (5 Bft) 94,74 %
04.12.2018 07:32 9,7 C 3,3 C 8,3 C 81 % 1012,7 hPa 0,0 l/m 20,8 km/h (4 Bft) W 269 0 min 0,000 mm 0,0 UV-I 5 W/m 6,6 C 2,6 C 30,6 km/h (5 Bft) 92,86 %
04.12.2018 07:35 9,7 C 3,3 C 8,3 C 81 % 1012,8 hPa 0,0 l/m 21,0 km/h (4 Bft) W 267 0 min 0,000 mm 0,0 UV-I 5 W/m 6,6 C 2,6 C 33,8 km/h (5 Bft) 96,88 %
04.12.2018 07:36 9,7 C 3,3 C 8,3 C 81 % 1012,8 hPa 0,0 l/m 17,5 km/h (3 Bft) W 276 0 min 0,000 mm 0,0 UV-I 5 W/m 6,6 C 3,8 C 22,5 km/h (4 Bft) 95,83 %
04.12.2018 07:38 9,8 C 3,3 C 8,3 C 81 % 1012,7 hPa 0,0 l/m 16,3 km/h (3 Bft) W-SW 243 0 min 0,000 mm 0,0 UV-I 5 W/m 6,7 C 4,4 C 30,6 km/h (5 Bft) 97,56 %
04.12.2018 07:40 9,8 C 3,3 C 8,3 C 80 % 1012,8 hPa 0,0 l/m 20,8 km/h (4 Bft) W 267 0 min 0,000 mm 0,0 UV-I 7 W/m 6,5 C 2,8 C 32,2 km/h (5 Bft) 96,23 %
04.12.2018 07:42 9,8 C 3,3 C 8,3 C 80 % 1012,9 hPa 0,0 l/m 17,5 km/h (3 Bft) W-SW 258 0 min 0,000 mm 0,0 UV-I 7 W/m 6,5 C 3,9 C 24,1 km/h (4 Bft) 98,11 %
04.12.2018 07:44 9,8 C 3,3 C 8,3 C 80 % 1013,0 hPa 0,0 l/m 17,0 km/h (3 Bft) SW 229 0 min 0,000 mm 0,0 UV-I 8 W/m 6,5 C 4,1 C 24,1 km/h (4 Bft) 95,12 %
04.12.2018 07:46 9,7 C 3,9 C 8,3 C 80 % 1013,0 hPa 0,0 l/m 16,3 km/h (3 Bft) W 259 0 min 0,000 mm 0,0 UV-I 9 W/m 6,4 C 4,2 C 25,7 km/h (4 Bft) 94,34 %
04.12.2018 07:48 9,6 C 3,3 C 8,3 C 81 % 1013,1 hPa 0,0 l/m 18,0 km/h (3 Bft) SW 231 0 min 0,000 mm 0,0 UV-I 11 W/m 6,5 C 3,5 C 27,4 km/h (4 Bft) 97,87 %
04.12.2018 07:50 9,6 C 3,3 C 8,3 C 81 % 1013,1 hPa 0,0 l/m 20,1 km/h (4 Bft) W 272 2 min 0,000 mm 0,0 UV-I 14 W/m 6,5 C 2,7 C 29,0 km/h (5 Bft) 97,14 %
04.12.2018 07:52 9,6 C 3,3 C 8,3 C 81 % 1013,1 hPa 0,0 l/m 18,3 km/h (3 Bft) W-SW 248 2 min 0,000 mm 0,0 UV-I 19 W/m 6,5 C 3,4 C 25,7 km/h (4 Bft) 98,00 %
04.12.2018 07:55 9,7 C 3,3 C 8,3 C 80 % 1013,3 hPa 0,0 l/m 21,7 km/h (4 Bft) W 265 3 min 0,000 mm 0,0 UV-I 20 W/m 6,4 C 2,4 C 30,6 km/h (5 Bft) 97,40 %
04.12.2018 07:56 9,7 C 3,3 C 8,3 C 80 % 1013,3 hPa 0,0 l/m 15,4 km/h (3 Bft) W 272 1 min 0,000 mm 0,0 UV-I 21 W/m 6,4 C 4,6 C 22,5 km/h (4 Bft) 100,00 %
04.12.2018 07:58 9,7 C 3,3 C 8,3 C 80 % 1013,3 hPa 0,0 l/m 16,5 km/h (3 Bft) W-SW 238 2 min 0,000 mm 0,0 UV-I 21 W/m 6,4 C 4,2 C 20,9 km/h (4 Bft) 98,00 %
04.12.2018 08:00 9,6 C 3,3 C 8,3 C 80 % 1013,3 hPa 0,0 l/m 16,9 km/h (3 Bft) W 261 0 min 0,051 mm 0,0 UV-I 21 W/m 6,3 C 3,9 C 22,5 km/h (4 Bft) 97,14 %
04.12.2018 08:02 9,6 C 3,3 C 8,3 C 80 % 1013,3 hPa 0,0 l/m 17,8 km/h (3 Bft) W 272 0 min 0,000 mm 0,0 UV-I 22 W/m 6,3 C 3,5 C 27,4 km/h (4 Bft) 100,00 %
04.12.2018 08:04 9,6 C 3,3 C 8,3 C 80 % 1013,4 hPa 0,0 l/m 20,4 km/h (4 Bft) W 278 0 min 0,000 mm 0,0 UV-I 23 W/m 6,3 C 2,6 C 32,2 km/h (5 Bft) 100,00 %
04.12.2018 08:06 9,6 C 3,3 C 8,3 C 80 % 1013,3 hPa 0,0 l/m 17,6 km/h (3 Bft) W 260 0 min 0,000 mm 0,0 UV-I 22 W/m 6,3 C 3,6 C 25,7 km/h (4 Bft) 100,00 %
04.12.2018 08:08 9,7 C 3,3 C 8,3 C 80 % 1013,3 hPa 0,0 l/m 17,0 km/h (3 Bft) W-SW 245 0 min 0,000 mm 0,0 UV-I 21 W/m 6,4 C 4,0 C 27,4 km/h (4 Bft) 100,00 %
04.12.2018 08:10 9,7 C 3,3 C 8,3 C 80 % 1013,3 hPa 0,0 l/m 19,1 km/h (3 Bft) W-SW 252 0 min 0,000 mm 0,0 UV-I 21 W/m 6,4 C 3,2 C 30,6 km/h (5 Bft) 97,87 %
04.12.2018 08:12 9,7 C 3,3 C 8,3 C 80 % 1013,3 hPa 0,0 l/m 18,0 km/h (3 Bft) W-SW 249 0 min 0,000 mm 0,0 UV-I 22 W/m 6,4 C 3,6 C 29,0 km/h (5 Bft) 100,00 %
04.12.2018 08:14 9,7 C 3,3 C 8,3 C 79 % 1013,3 hPa 0,0 l/m 26,9 km/h (4 Bft) W 272 0 min 0,000 mm 0,0 UV-I 26 W/m 6,2 C 0,9 C 35,4 km/h (5 Bft) 100,00 %
04.12.2018 08:16 9,8 C 3,3 C 8,9 C 79 % 1013,3 hPa 0,0 l/m 23,3 km/h (4 Bft) W-SW 244 0 min 0,000 mm 0,0 UV-I 28 W/m 6,3 C 2,0 C 35,4 km/h (5 Bft) 96,00 %
04.12.2018 08:18 9,8 C 3,3 C 8,9 C 79 % 1013,3 hPa 0,0 l/m 18,8 km/h (3 Bft) W 267 0 min 0,000 mm 0,0 UV-I 28 W/m 6,3 C 3,4 C 25,7 km/h (4 Bft) 100,00 %
04.12.2018 08:20 9,8 C 3,3 C 8,9 C 79 % 1013,2 hPa 0,0 l/m 19,5 km/h (3 Bft) W 268 0 min 0,000 mm 0,0 UV-I 27 W/m 6,3 C 3,2 C 29,0 km/h (5 Bft) 100,00 %
04.12.2018 08:22 9,8 C 3,3 C 8,9 C 79 % 1013,2 hPa 0,0 l/m 23,0 km/h (4 Bft) W 263 0 min 0,000 mm 0,0 UV-I 26 W/m 6,3 C 2,1 C 33,8 km/h (5 Bft) 97,87 %
04.12.2018 08:24 9,8 C 3,3 C 8,9 C 79 % 1013,3 hPa 0,0 l/m 21,8 km/h (4 Bft) W 271 0 min 0,000 mm 0,0 UV-I 26 W/m 6,3 C 2,5 C 30,6 km/h (5 Bft) 100,00 %
04.12.2018 08:26 9,8 C 3,3 C 8,9 C 78 % 1013,3 hPa 0,0 l/m 24,5 km/h (4 Bft) W-SW 247 0 min 0,000 mm 0,0 UV-I 28 W/m 6,1 C 1,7 C 33,8 km/h (5 Bft) 100,00 %
04.12.2018 08:28 9,9 C 3,3 C 8,9 C 78 % 1013,2 hPa 0,0 l/m 25,4 km/h (4 Bft) W 267 0 min 0,000 mm 0,0 UV-I 35 W/m 6,2 C 1,6 C 35,4 km/h (5 Bft) 97,87 %
04.12.2018 08:30 9,9 C 3,3 C 8,9 C 78 % 1013,3 hPa 0,0 l/m 23,5 km/h (4 Bft) W 263 0 min 0,000 mm 0,0 UV-I 42 W/m 6,2 C 2,1 C 37,0 km/h (5 Bft) 100,00 %
04.12.2018 08:32 9,9 C 3,3 C 8,9 C 78 % 1013,3 hPa 0,0 l/m 19,3 km/h (3 Bft) W 277 0 min 0,000 mm 0,0 UV-I 50 W/m 6,2 C 3,4 C 25,7 km/h (4 Bft) 100,00 %
04.12.2018 08:34 9,9 C 3,9 C 8,9 C 78 % 1013,2 hPa 0,0 l/m 19,2 km/h (3 Bft) W 280 0 min 0,000 mm 0,0 UV-I 55 W/m 6,2 C 3,4 C 29,0 km/h (5 Bft) 97,87 %
04.12.2018 08:36 9,9 C 3,9 C 8,9 C 79 % 1013,2 hPa 0,0 l/m 17,9 km/h (3 Bft) W-SW 253 0 min 0,000 mm 0,0 UV-I 57 W/m 6,4 C 3,9 C 27,4 km/h (4 Bft) 100,00 %
04.12.2018 08:38 9,8 C 3,3 C 8,9 C 79 % 1013,2 hPa 0,0 l/m 17,3 km/h (3 Bft) W-SW 254 0 min 0,000 mm 0,0 UV-I 60 W/m 6,3 C 4,0 C 22,5 km/h (4 Bft) 100,00 %
04.12.2018 08:40 9,8 C 3,3 C 8,9 C 79 % 1013,2 hPa 0,0 l/m 18,9 km/h (3 Bft) W 267 0 min 0,000 mm 0,0 UV-I 63 W/m 6,3 C 3,4 C 25,7 km/h (4 Bft) 97,56 %
04.12.2018 08:42 9,8 C 3,3 C 8,9 C 79 % 1013,4 hPa 0,0 l/m 21,4 km/h (4 Bft) W 273 0 min 0,000 mm 0,0 UV-I 67 W/m 6,3 C 2,6 C 29,0 km/h (5 Bft) 100,00 %
04.12.2018 08:44 9,8 C 3,9 C 8,9 C 79 % 1013,4 hPa 0,0 l/m 20,1 km/h (4 Bft) W-SW 247 0 min 0,000 mm 0,0 UV-I 73 W/m 6,3 C 3,0 C 25,7 km/h (4 Bft) 100,00 %
04.12.2018 08:46 9,8 C 3,3 C 8,9 C 79 % 1013,4 hPa 0,0 l/m 22,1 km/h (4 Bft) W 261 2 min 0,000 mm 0,0 UV-I 81 W/m 6,3 C 2,4 C 30,6 km/h (5 Bft) 98,53 %
04.12.2018 08:48 9,8 C 3,3 C 9,4 C 79 % 1013,4 hPa 0,0 l/m 20,3 km/h (4 Bft) W 270 0 min 0,000 mm 0,0 UV-I 75 W/m 6,3 C 2,9 C 33,8 km/h (5 Bft) 100,00 %
04.12.2018 08:50 9,8 C 3,3 C 9,4 C 79 % 1013,4 hPa 0,0 l/m 17,8 km/h (3 Bft) W-SW 240 0 min 0,000 mm 0,0 UV-I 80 W/m 6,3 C 3,8 C 27,4 km/h (4 Bft) 100,00 %
04.12.2018 08:52 9,8 C 3,3 C 9,4 C 79 % 1013,5 hPa 0,0 l/m 17,2 km/h (3 Bft) W 274 2 min 0,000 mm 0,0 UV-I 95 W/m 6,3 C 4,0 C 24,1 km/h (4 Bft) 100,00 %
04.12.2018 08:54 9,8 C 3,3 C 9,4 C 79 % 1013,5 hPa 0,0 l/m 19,3 km/h (3 Bft) W-SW 250 2 min 0,000 mm 0,0 UV-I 158 W/m 6,3 C 3,3 C 27,4 km/h (4 Bft) 100,00 %
04.12.2018 08:56 9,9 C 3,3 C 9,4 C 80 % 1013,5 hPa 0,0 l/m 18,4 km/h (3 Bft) W-NW 285 2 min 0,000 mm 0,0 UV-I 172 W/m 6,6 C 3,7 C 27,4 km/h (4 Bft) 100,00 %
04.12.2018 08:59 9,9 C 3,3 C 9,4 C 79 % 1013,6 hPa 0,0 l/m 20,7 km/h (4 Bft) W 281 3 min 0,000 mm 0,0 UV-I 124 W/m 6,4 C 2,9 C 32,2 km/h (5 Bft) 98,68 %
04.12.2018 09:00 9,9 C 3,3 C 9,4 C 79 % 1013,6 hPa 0,0 l/m 15,2 km/h (3 Bft) W-NW 290 0 min 0,000 mm 0,0 UV-I 90 W/m 6,4 C 4,9 C 27,4 km/h (4 Bft) 86,67 %
04.12.2018 09:02 10,0 C 3,3 C 9,4 C 79 % 1013,6 hPa 0,0 l/m 18,2 km/h (3 Bft) W-SW 249 0 min 0,076 mm 0,0 UV-I 87 W/m 6,5 C 3,9 C 25,7 km/h (4 Bft) 98,11 %
04.12.2018 09:04 10,0 C 3,3 C 9,4 C 79 % 1013,6 hPa 0,0 l/m 18,2 km/h (3 Bft) W 275 0 min 0,000 mm 0,0 UV-I 79 W/m 6,5 C 3,9 C 24,1 km/h (4 Bft) 98,00 %
04.12.2018 09:06 10,0 C 3,3 C 9,4 C 80 % 1013,6 hPa 0,0 l/m 18,1 km/h (3 Bft) W 264 0 min 0,000 mm 0,0 UV-I 74 W/m 6,7 C 3,9 C 27,4 km/h (4 Bft) 98,00 %
04.12.2018 09:08 10,0 C 3,3 C 9,4 C 79 % 1013,6 hPa 0,0 l/m 16,9 km/h (3 Bft) W-SW 237 0 min 0,000 mm 0,0 UV-I 77 W/m 6,5 C 4,4 C 24,1 km/h (4 Bft) 93,10 %
04.12.2018 09:10 9,9 C 3,3 C 9,4 C 79 % 1013,6 hPa 0,0 l/m 17,5 km/h (3 Bft) W 265 0 min 0,000 mm 0,0 UV-I 82 W/m 6,4 C 4,0 C 22,5 km/h (4 Bft) 96,23 %
04.12.2018 09:12 10,0 C 3,9 C 9,4 C 79 % 1013,7 hPa 0,0 l/m 20,8 km/h (4 Bft) W-SW 248 0 min 0,000 mm 0,0 UV-I 84 W/m 6,5 C 3,0 C 29,0 km/h (5 Bft) 94,87 %
04.12.2018 09:14 10,0 C 3,9 C 9,4 C 80 % 1013,7 hPa 0,0 l/m 22,1 km/h (4 Bft) W 269 0 min 0,000 mm 0,0 UV-I 83 W/m 6,7 C 2,6 C 27,4 km/h (4 Bft) 95,08 %
04.12.2018 09:16 10,0 C 3,9 C 9,4 C 80 % 1013,7 hPa 0,0 l/m 19,2 km/h (3 Bft) W-SW 252 0 min 0,000 mm 0,0 UV-I 80 W/m 6,7 C 3,6 C 25,7 km/h (4 Bft) 94,00 %
04.12.2018 09:18 10,0 C 3,3 C 9,4 C 80 % 1013,8 hPa 0,0 l/m 19,0 km/h (3 Bft) W 268 0 min 0,000 mm 0,0 UV-I 83 W/m 6,7 C 3,6 C 29,0 km/h (5 Bft) 95,74 %
04.12.2018 09:20 10,0 C 3,3 C 10,0 C 80 % 1013,8 hPa 0,0 l/m 16,3 km/h (3 Bft) W 269 0 min 0,000 mm 0,0 UV-I 86 W/m 6,7 C 4,6 C 24,1 km/h (4 Bft) 95,24 %
04.12.2018 09:22 10,1 C 3,9 C 10,0 C 80 % 1013,8 hPa 0,0 l/m 20,3 km/h (4 Bft) W-SW 254 0 min 0,000 mm 0,0 UV-I 85 W/m 6,8 C 3,3 C 27,4 km/h (4 Bft) 95,74 %
04.12.2018 09:24 10,1 C 3,9 C 10,0 C 79 % 1013,8 hPa 0,0 l/m 21,4 km/h (4 Bft) W-SW 248 0 min 0,000 mm 0,0 UV-I 84 W/m 6,6 C 3,0 C 30,6 km/h (5 Bft) 96,23 %
04.12.2018 09:26 10,2 C 3,3 C 10,0 C 79 % 1013,8 hPa 0,0 l/m 21,0 km/h (4 Bft) W 279 0 min 0,000 mm 0,0 UV-I 83 W/m 6,7 C 3,2 C 32,2 km/h (5 Bft) 97,56 %
04.12.2018 09:28 10,2 C 3,3 C 10,0 C 79 % 1013,9 hPa 0,0 l/m 22,8 km/h (4 Bft) W-SW 248 0 min 0,000 mm 0,0 UV-I 83 W/m 6,7 C 2,7 C 33,8 km/h (5 Bft) 98,00 %
04.12.2018 09:30 10,2 C 3,9 C 10,0 C 79 % 1013,9 hPa 0,0 l/m 18,9 km/h (3 Bft) W 274 0 min 0,000 mm 0,0 UV-I 80 W/m 6,7 C 3,9 C 27,4 km/h (4 Bft) 97,56 %
04.12.2018 09:32 10,2 C 3,3 C 10,0 C 79 % 1014,0 hPa 0,0 l/m 15,7 km/h (3 Bft) W-SW 240 0 min 0,000 mm 0,0 UV-I 81 W/m 6,7 C 5,1 C 22,5 km/h (4 Bft) 95,74 %
04.12.2018 09:34 10,2 C 3,3 C 10,0 C 79 % 1013,9 hPa 0,0 l/m 14,7 km/h (3 Bft) SW 228 0 min 0,000 mm 0,0 UV-I 91 W/m 6,7 C 5,5 C 27,4 km/h (4 Bft) 98,00 %
04.12.2018 09:36 10,2 C 3,9 C 10,0 C 79 % 1014,0 hPa 0,0 l/m 17,0 km/h (3 Bft) W 279 0 min 0,000 mm 0,0 UV-I 104 W/m 6,7 C 4,6 C 24,1 km/h (4 Bft) 96,00 %
04.12.2018 09:38 10,2 C 3,9 C 10,0 C 79 % 1014,0 hPa 0,0 l/m 17,9 km/h (3 Bft) W-SW 254 0 min 0,000 mm 0,0 UV-I 110 W/m 6,7 C 4,3 C 25,7 km/h (4 Bft) 97,87 %
04.12.2018 09:40 10,2 C 3,3 C 10,0 C 79 % 1014,0 hPa 0,0 l/m 20,9 km/h (4 Bft) W 273 0 min 0,000 mm 0,0 UV-I 117 W/m 6,7 C 3,3 C 29,0 km/h (5 Bft) 98,00 %
04.12.2018 09:42 10,2 C 3,3 C 10,0 C 79 % 1014,0 hPa 0,0 l/m 22,9 km/h (4 Bft) SW 232 0 min 0,000 mm 0,0 UV-I 112 W/m 6,7 C 2,7 C 30,6 km/h (5 Bft) 97,73 %
04.12.2018 09:44 10,2 C 3,3 C 10,0 C 79 % 1014,0 hPa 0,0 l/m 15,0 km/h (3 Bft) W 261 0 min 0,000 mm 0,0 UV-I 73 W/m 6,7 C 5,4 C 22,5 km/h (4 Bft) 100,00 %
04.12.2018 09:46 10,2 C 3,9 C 10,0 C 79 % 1014,0 hPa 0,0 l/m 19,6 km/h (3 Bft) W-NW 289 0 min 0,000 mm 0,0 UV-I 65 W/m 6,7 C 3,7 C 35,4 km/h (5 Bft) 100,00 %
04.12.2018 09:48 10,2 C 3,9 C 10,0 C 79 % 1014,1 hPa 0,0 l/m 16,6 km/h (3 Bft) W-NW 293 0 min 0,000 mm 0,0 UV-I 71 W/m 6,7 C 4,7 C 24,1 km/h (4 Bft) 96,23 %
04.12.2018 09:50 10,2 C 3,3 C 10,0 C 79 % 1014,2 hPa 0,0 l/m 22,1 km/h (4 Bft) W 276 0 min 0,000 mm 0,0 UV-I 89 W/m 6,7 C 2,9 C 41,8 km/h (6 Bft) 100,00 %
04.12.2018 09:52 10,2 C 3,9 C 10,0 C 78 % 1014,2 hPa 0,0 l/m 20,0 km/h (4 Bft) W-SW 256 0 min 0,000 mm 0,0 UV-I 73 W/m 6,5 C 3,5 C 32,2 km/h (5 Bft) 100,00 %
04.12.2018 09:54 10,3 C 3,9 C 10,0 C 78 % 1014,1 hPa 0,0 l/m 23,1 km/h (4 Bft) W 273 0 min 0,000 mm 0,0 UV-I 66 W/m 6,6 C 2,7 C 30,6 km/h (5 Bft) 100,00 %
04.12.2018 09:56 10,3 C 3,3 C 10,0 C 78 % 1014,2 hPa 0,0 l/m 23,4 km/h (4 Bft) W-NW 283 0 min 0,000 mm 0,0 UV-I 73 W/m 6,6 C 2,7 C 37,0 km/h (5 Bft) 100,00 %
04.12.2018 09:58 10,3 C 3,3 C 10,0 C 78 % 1014,2 hPa 0,0 l/m 21,0 km/h (4 Bft) W 259 0 min 0,000 mm 0,0 UV-I 67 W/m 6,6 C 3,4 C 29,0 km/h (5 Bft) 100,00 %
04.12.2018 10:00 10,3 C 3,9 C 10,0 C 78 % 1014,2 hPa 0,0 l/m 17,0 km/h (3 Bft) W-SW 257 0 min 0,076 mm 0,0 UV-I 57 W/m 6,6 C 4,7 C 24,1 km/h (4 Bft) 98,00 %
04.12.2018 10:02 10,3 C 3,9 C 10,0 C 78 % 1014,4 hPa 0,0 l/m 17,8 km/h (3 Bft) W 264 0 min 0,000 mm 0,0 UV-I 62 W/m 6,6 C 4,4 C 24,1 km/h (4 Bft) 100,00 %
04.12.2018 10:04 10,3 C 3,3 C 10,0 C 78 % 1014,4 hPa 0,0 l/m 17,7 km/h (3 Bft) W-SW 254 0 min 0,000 mm 0,0 UV-I 69 W/m 6,6 C 4,5 C 27,4 km/h (4 Bft) 100,00 %
04.12.2018 10:06 10,3 C 3,9 C 10,0 C 78 % 1014,3 hPa 0,0 l/m 17,7 km/h (3 Bft) W 273 0 min 0,000 mm 0,0 UV-I 58 W/m 6,6 C 4,5 C 30,6 km/h (5 Bft) 100,00 %
04.12.2018 10:08 10,3 C 3,3 C 10,0 C 78 % 1014,3 hPa 0,0 l/m 19,5 km/h (3 Bft) W 270 0 min 0,000 mm 0,0 UV-I 58 W/m 6,6 C 3,8 C 25,7 km/h (4 Bft) 100,00 %
04.12.2018 10:10 10,3 C 3,9 C 10,0 C 78 % 1014,4 hPa 0,0 l/m 17,2 km/h (3 Bft) W 275 0 min 0,000 mm 0,0 UV-I 61 W/m 6,6 C 4,6 C 29,0 km/h (5 Bft) 100,00 %
04.12.2018 10:12 10,3 C 3,9 C 10,0 C 78 % 1014,4 hPa 0,0 l/m 21,4 km/h (4 Bft) W-SW 245 0 min 0,000 mm 0,0 UV-I 63 W/m 6,6 C 3,2 C 33,8 km/h (5 Bft) 100,00 %
04.12.2018 10:14 10,3 C 3,9 C 10,0 C 77 % 1014,3 hPa 0,0 l/m 27,6 km/h (4 Bft) W-NW 292 0 min 0,000 mm 0,0 UV-I 60 W/m 6,4 C 1,6 C 45,1 km/h (6 Bft) 100,00 %
04.12.2018 10:16 10,4 C 3,9 C 10,0 C 77 % 1014,4 hPa 0,0 l/m 27,2 km/h (4 Bft) W-NW 287 0 min 0,000 mm 0,0 UV-I 59 W/m 6,5 C 1,8 C 41,8 km/h (6 Bft) 97,87 %
04.12.2018 10:18 10,4 C 3,9 C 10,0 C 77 % 1014,4 hPa 0,0 l/m 24,7 km/h (4 Bft) W 269 0 min 0,000 mm 0,0 UV-I 55 W/m 6,5 C 2,5 C 38,6 km/h (5 Bft) 100,00 %
04.12.2018 10:20 10,4 C 3,3 C 10,0 C 77 % 1014,5 hPa 0,0 l/m 18,3 km/h (3 Bft) W-NW 283 0 min 0,000 mm 0,0 UV-I 56 W/m 6,5 C 4,4 C 24,1 km/h (4 Bft) 94,74 %
04.12.2018 10:22 10,4 C 3,9 C 10,0 C 77 % 1014,5 hPa 0,0 l/m 20,0 km/h (4 Bft) W 271 0 min 0,000 mm 0,0 UV-I 55 W/m 6,5 C 3,8 C 29,0 km/h (5 Bft) 95,74 %
04.12.2018 10:25 10,3 C 3,3 C 10,0 C 77 % 1014,5 hPa 0,0 l/m 17,6 km/h (3 Bft) W 267 0 min 0,000 mm 0,0 UV-I 55 W/m 6,4 C 4,5 C 27,4 km/h (4 Bft) 98,70 %
04.12.2018 10:26 10,3 C 3,3 C 10,0 C 78 % 1014,5 hPa 0,0 l/m 21,0 km/h (4 Bft) W 267 0 min 0,000 mm 0,0 UV-I 45 W/m 6,6 C 3,4 C 27,4 km/h (4 Bft) 95,65 %
04.12.2018 10:28 10,3 C 3,3 C 9,4 C 77 % 1014,5 hPa 0,0 l/m 22,1 km/h (4 Bft) W-NW 285 0 min 0,000 mm 0,0 UV-I 43 W/m 6,4 C 3,0 C 33,8 km/h (5 Bft) 97,56 %
04.12.2018 10:30 10,3 C 3,3 C 9,4 C 77 % 1014,7 hPa 0,0 l/m 22,5 km/h (4 Bft) W-SW 251 0 min 0,000 mm 0,0 UV-I 47 W/m 6,4 C 2,9 C 43,5 km/h (6 Bft) 98,21 %
04.12.2018 10:32 10,3 C 3,3 C 9,4 C 77 % 1014,6 hPa 0,0 l/m 21,0 km/h (4 Bft) W 265 0 min 0,000 mm 0,0 UV-I 47 W/m 6,4 C 3,4 C 30,6 km/h (5 Bft) 97,22 %
04.12.2018 10:35 10,3 C 3,3 C 9,4 C 77 % 1014,5 hPa 0,0 l/m 25,1 km/h (4 Bft) W 279 0 min 0,000 mm 0,0 UV-I 43 W/m 6,4 C 2,2 C 45,1 km/h (6 Bft) 95,89 %
04.12.2018 10:36 10,3 C 3,9 C 9,4 C 77 % 1014,5 hPa 0,0 l/m 20,4 km/h (4 Bft) W-SW 248 0 min 0,000 mm 0,0 UV-I 35 W/m 6,4 C 3,5 C 30,6 km/h (5 Bft) 100,00 %
04.12.2018 10:38 10,3 C 3,9 C 9,4 C 77 % 1014,6 hPa 0,0 l/m 21,8 km/h (4 Bft) W-NW 294 0 min 0,000 mm 0,0 UV-I 34 W/m 6,4 C 3,1 C 32,2 km/h (5 Bft) 96,15 %
04.12.2018 10:40 10,3 C 3,9 C 9,4 C 77 % 1014,6 hPa 0,0 l/m 24,5 km/h (4 Bft) W 269 0 min 0,000 mm 0,0 UV-I 38 W/m 6,4 C 2,4 C 33,8 km/h (5 Bft) 97,44 %
04.12.2018 10:42 10,3 C 3,9 C 9,4 C 77 % 1014,7 hPa 0,0 l/m 24,9 km/h (4 Bft) W 271 0 min 0,000 mm 0,0 UV-I 42 W/m 6,4 C 2,3 C 41,8 km/h (6 Bft) 96,43 %
04.12.2018 10:44 10,3 C 3,3 C 9,4 C 78 % 1014,7 hPa 0,0 l/m 21,1 km/h (4 Bft) W 266 0 min 0,000 mm 0,0 UV-I 48 W/m 6,6 C 3,3 C 32,2 km/h (5 Bft) 97,56 %
04.12.2018 10:46 10,2 C 3,3 C 9,4 C 78 % 1014,7 hPa 0,0 l/m 22,4 km/h (4 Bft) W-NW 288 0 min 0,000 mm 0,0 UV-I 50 W/m 6,5 C 2,8 C 30,6 km/h (5 Bft) 98,11 %
04.12.2018 10:48 10,2 C 3,3 C 9,4 C 78 % 1014,7 hPa 0,0 l/m 15,3 km/h (3 Bft) W 267 0 min 0,000 mm 0,0 UV-I 47 W/m 6,5 C 5,3 C 25,7 km/h (4 Bft) 95,45 %
04.12.2018 10:50 10,1 C 3,9 C 9,4 C 78 % 1014,7 hPa 0,0 l/m 19,4 km/h (3 Bft) W-NW 293 0 min 0,000 mm 0,0 UV-I 43 W/m 6,4 C 3,6 C 27,4 km/h (4 Bft) 97,56 %
04.12.2018 10:52 10,1 C 3,9 C 9,4 C 78 % 1014,7 hPa 0,0 l/m 16,7 km/h (3 Bft) W 275 0 min 0,000 mm 0,0 UV-I 43 W/m 6,4 C 4,6 C 27,4 km/h (4 Bft) 98,00 %
04.12.2018 10:54 10,1 C 3,9 C 9,4 C 78 % 1014,8 hPa 0,0 l/m 19,9 km/h (4 Bft) W-SW 246 0 min 0,000 mm 0,0 UV-I 39 W/m 6,4 C 3,4 C 29,0 km/h (5 Bft) 96,15 %
04.12.2018 10:56 10,1 C 3,9 C 9,4 C 78 % 1014,8 hPa 0,0 l/m 19,0 km/h (3 Bft) W-SW 255 0 min 0,000 mm 0,0 UV-I 38 W/m 6,4 C 3,7 C 30,6 km/h (5 Bft) 97,30 %
04.12.2018 10:58 10,1 C 3,9 C 9,4 C 78 % 1014,8 hPa 0,0 l/m 14,3 km/h (3 Bft) W 280 0 min 0,000 mm 0,0 UV-I 36 W/m 6,4 C 5,6 C 30,6 km/h (5 Bft) 97,87 %
04.12.2018 11:00 10,1 C 3,3 C 9,4 C 78 % 1014,8 hPa 0,0 l/m 12,4 km/h (3 Bft) W 269 0 min 0,000 mm 0,0 UV-I 33 W/m 6,4 C 6,4 C 22,5 km/h (4 Bft) 95,12 %
04.12.2018 11:02 10,1 C 3,3 C 9,4 C 78 % 1014,9 hPa 0,0 l/m 14,1 km/h (3 Bft) W-NW 294 0 min 0,076 mm 0,0 UV-I 36 W/m 6,4 C 5,6 C 22,5 km/h (4 Bft) 97,56 %
04.12.2018 11:05 10,1 C 3,9 C 9,4 C 78 % 1014,8 hPa 0,0 l/m 25,2 km/h (4 Bft) W 270 0 min 0,000 mm 0,0 UV-I 39 W/m 6,4 C 1,9 C 45,1 km/h (6 Bft) 96,39 %
04.12.2018 11:06 10,1 C 3,3 C 9,4 C 78 % 1014,8 hPa 0,0 l/m 16,9 km/h (3 Bft) W 269 0 min 0,000 mm 0,0 UV-I 47 W/m 6,4 C 4,5 C 20,9 km/h (4 Bft) 100,00 %
04.12.2018 11:08 10,1 C 3,3 C 10,0 C 78 % 1014,9 hPa 0,0 l/m 20,6 km/h (4 Bft) W-NW 282 0 min 0,000 mm 0,0 UV-I 45 W/m 6,4 C 3,2 C 35,4 km/h (5 Bft) 95,74 %
04.12.2018 11:10 10,1 C 3,3 C 10,0 C 78 % 1014,9 hPa 0,0 l/m 19,5 km/h (3 Bft) W-NW 294 0 min 0,000 mm 0,0 UV-I 49 W/m 6,4 C 3,6 C 27,4 km/h (4 Bft) 91,49 %
04.12.2018 11:12 10,1 C 3,9 C 10,0 C 79 % 1014,9 hPa 0,0 l/m 19,8 km/h (3 Bft) W 263 0 min 0,000 mm 0,0 UV-I 57 W/m 6,6 C 3,5 C 30,6 km/h (5 Bft) 94,12 %
04.12.2018 11:14 10,0 C 3,9 C 10,0 C 79 % 1015,0 hPa 0,0 l/m 18,7 km/h (3 Bft) W-SW 250 0 min 0,000 mm 0,0 UV-I 58 W/m 6,5 C 3,7 C 24,1 km/h (4 Bft) 94,23 %
04.12.2018 11:16 9,9 C 3,9 C 10,0 C 79 % 1015,0 hPa 0,0 l/m 20,0 km/h (4 Bft) W 261 0 min 0,000 mm 0,0 UV-I 57 W/m 6,4 C 3,2 C 30,6 km/h (5 Bft) 94,87 %
04.12.2018 11:18 9,9 C 3,9 C 10,0 C 80 % 1015,0 hPa 0,0 l/m 23,6 km/h (4 Bft) W-SW 258 0 min 0,000 mm 0,0 UV-I 52 W/m 6,6 C 2,1 C 33,8 km/h (5 Bft) 96,23 %
04.12.2018 11:20 9,9 C 3,3 C 9,4 C 80 % 1015,0 hPa 0,0 l/m 18,2 km/h (3 Bft) W-NW 282 0 min 0,000 mm 0,0 UV-I 52 W/m 6,6 C 3,8 C 27,4 km/h (4 Bft) 95,74 %
04.12.2018 11:22 9,9 C 3,3 C 9,4 C 81 % 1015,0 hPa 0,0 l/m 17,7 km/h (3 Bft) W 270 0 min 0,000 mm 0,0 UV-I 68 W/m 6,8 C 4,0 C 27,4 km/h (4 Bft) 89,47 %
04.12.2018 11:24 9,8 C 3,3 C 9,4 C 81 % 1015,1 hPa 0,0 l/m 18,1 km/h (3 Bft) W-NW 298 0 min 0,000 mm 0,0 UV-I 63 W/m 6,7 C 3,7 C 29,0 km/h (5 Bft) 94,34 %
04.12.2018 11:26 9,8 C 3,3 C 9,4 C 81 % 1015,0 hPa 0,0 l/m 15,1 km/h (3 Bft) W 279 0 min 0,000 mm 0,0 UV-I 52 W/m 6,7 C 4,8 C 25,7 km/h (4 Bft) 96,00 %
04.12.2018 11:28 9,7 C 3,9 C 9,4 C 82 % 1015,0 hPa 0,0 l/m 14,5 km/h (3 Bft) W 268 0 min 0,000 mm 0,0 UV-I 52 W/m 6,8 C 5,0 C 22,5 km/h (4 Bft) 95,45 %
04.12.2018 11:30 9,7 C 3,9 C 9,4 C 82 % 1015,0 hPa 0,0 l/m 15,4 km/h (3 Bft) W 264 0 min 0,000 mm 0,0 UV-I 68 W/m 6,8 C 4,6 C 20,9 km/h (4 Bft) 93,62 %
04.12.2018 11:32 9,6 C 3,9 C 9,4 C 82 % 1015,0 hPa 0,0 l/m 14,3 km/h (3 Bft) W-SW 244 0 min 0,000 mm 0,0 UV-I 80 W/m 6,7 C 5,0 C 24,1 km/h (4 Bft) 97,37 %
04.12.2018 11:34 9,6 C 3,9 C 9,4 C 83 % 1015,0 hPa 0,0 l/m 12,1 km/h (2 Bft) W 276 0 min 0,000 mm 0,0 UV-I 77 W/m 6,9 C 6,0 C 19,3 km/h (3 Bft) 92,50 %
04.12.2018 11:36 9,6 C 3,9 C 8,9 C 84 % 1015,0 hPa 0,0 l/m 5,1 km/h (1 Bft) W-NW 298 0 min 0,000 mm 0,0 UV-I 85 W/m 7,0 C 9,6 C 9,7 km/h (2 Bft) 88,68 %
04.12.2018 11:38 9,4 C 3,9 C 8,9 C 85 % 1015,0 hPa 0,0 l/m 11,5 km/h (2 Bft) W-SW 257 0 min 0,000 mm 0,0 UV-I 91 W/m 7,0 C 6,1 C 24,1 km/h (4 Bft) 96,23 %
04.12.2018 11:40 9,3 C 3,9 C 8,9 C 86 % 1015,1 hPa 0,0 l/m 13,6 km/h (3 Bft) W-NW 296 0 min 0,000 mm 0,0 UV-I 55 W/m 7,1 C 4,9 C 20,9 km/h (4 Bft) 96,00 %
04.12.2018 11:42 9,2 C 3,9 C 8,3 C 87 % 1015,2 hPa 0,0 l/m 9,9 km/h (2 Bft) N-NW 335 0 min 0,000 mm 0,0 UV-I 51 W/m 7,2 C 6,8 C 17,7 km/h (3 Bft) 95,12 %
04.12.2018 11:44 9,0 C 3,9 C 8,3 C 88 % 1015,2 hPa 0,0 l/m 8,9 km/h (2 Bft) W 264 0 min 0,000 mm 0,0 UV-I 49 W/m 7,1 C 7,2 C 14,5 km/h (3 Bft) 95,24 %
04.12.2018 11:46 8,9 C 3,9 C 8,3 C 88 % 1015,2 hPa 0,0 l/m 10,9 km/h (2 Bft) W-NW 286 0 min 0,000 mm 0,0 UV-I 46 W/m 7,0 C 5,9 C 17,7 km/h (3 Bft) 94,00 %
04.12.2018 11:48 8,8 C 3,9 C 8,3 C 89 % 1015,3 hPa 0,2 l/m 11,0 km/h (2 Bft) W 276 0 min 0,000 mm 0,0 UV-I 41 W/m 7,1 C 5,7 C 17,7 km/h (3 Bft) 96,36 %
04.12.2018 11:50 8,7 C 3,3 C 8,3 C 90 % 1015,4 hPa 0,0 l/m 14,4 km/h (3 Bft) W 271 0 min 0,000 mm 0,0 UV-I 34 W/m 7,2 C 3,8 C 25,7 km/h (4 Bft) 94,00 %
04.12.2018 11:52 8,6 C 3,9 C 7,8 C 91 % 1015,5 hPa 0,2 l/m 15,8 km/h (3 Bft) W 275 0 min 0,000 mm 0,0 UV-I 35 W/m 7,2 C 3,1 C 24,1 km/h (4 Bft) 95,24 %
04.12.2018 11:54 8,5 C 3,9 C 8,3 C 91 % 1015,5 hPa 0,0 l/m 14,7 km/h (3 Bft) W-SW 242 0 min 0,000 mm 0,0 UV-I 64 W/m 7,1 C 3,5 C 30,6 km/h (5 Bft) 94,74 %
04.12.2018 11:56 8,4 C 3,9 C 8,3 C 92 % 1015,5 hPa 0,0 l/m 17,5 km/h (3 Bft) W-NW 284 0 min 0,000 mm 0,0 UV-I 99 W/m 7,2 C 2,1 C 29,0 km/h (5 Bft) 94,92 %
04.12.2018 11:58 8,4 C 3,9 C 8,3 C 92 % 1015,5 hPa 0,0 l/m 17,1 km/h (3 Bft) W 273 0 min 0,000 mm 0,0 UV-I 98 W/m 7,2 C 2,3 C 25,7 km/h (4 Bft) 96,00 %
04.12.2018 12:00 8,4 C 3,9 C 8,3 C 92 % 1015,5 hPa 0,0 l/m 15,5 km/h (3 Bft) W 277 0 min 0,051 mm 0,0 UV-I 96 W/m 7,2 C 3,0 C 29,0 km/h (5 Bft) 97,73 %
04.12.2018 12:02 8,4 C 3,9 C 8,3 C 93 % 1015,5 hPa 0,0 l/m 15,9 km/h (3 Bft) W-NW 287 0 min 0,000 mm 0,0 UV-I 106 W/m 7,3 C 2,8 C 24,1 km/h (4 Bft) 97,87 %
04.12.2018 12:04 8,4 C 3,9 C 8,9 C 92 % 1015,5 hPa 0,0 l/m 16,7 km/h (3 Bft) W 269 0 min 0,000 mm 0,0 UV-I 123 W/m 7,2 C 2,5 C 22,5 km/h (4 Bft) 94,74 %
04.12.2018 12:06 8,5 C 3,9 C 8,9 C 93 % 1015,5 hPa 0,0 l/m 16,0 km/h (3 Bft) W 265 0 min 0,000 mm 0,0 UV-I 137 W/m 7,4 C 2,9 C 27,4 km/h (4 Bft) 98,00 %
04.12.2018 12:08 8,5 C 3,9 C 8,9 C 93 % 1015,6 hPa 0,0 l/m 17,6 km/h (3 Bft) W 261 0 min 0,000 mm 0,0 UV-I 149 W/m 7,4 C 2,2 C 25,7 km/h (4 Bft) 96,23 %
04.12.2018 12:10 8,6 C 3,9 C 9,4 C 93 % 1015,6 hPa 0,0 l/m 15,5 km/h (3 Bft) W-SW 242 0 min 0,000 mm 0,0 UV-I 161 W/m 7,5 C 3,2 C 24,1 km/h (4 Bft) 97,37 %
04.12.2018 12:12 8,7 C 3,9 C 9,4 C 93 % 1015,6 hPa 0,2 l/m 14,3 km/h (3 Bft) W-SW 242 0 min 0,000 mm 0,0 UV-I 159 W/m 7,6 C 3,9 C 19,3 km/h (3 Bft) 98,11 %
04.12.2018 12:14 8,7 C 3,9 C 9,4 C 92 % 1015,7 hPa 0,0 l/m 20,0 km/h (4 Bft) W 259 0 min 0,000 mm 0,0 UV-I 138 W/m 7,5 C 1,6 C 32,2 km/h (5 Bft) 100,00 %
04.12.2018 12:16 8,8 C 3,9 C 8,9 C 92 % 1015,7 hPa 0,0 l/m 19,2 km/h (3 Bft) W 267 0 min 0,000 mm 0,0 UV-I 121 W/m 7,6 C 2,0 C 33,8 km/h (5 Bft) 97,87 %
04.12.2018 12:18 8,8 C 3,9 C 8,9 C 92 % 1015,8 hPa 0,0 l/m 21,1 km/h (4 Bft) W 263 0 min 0,000 mm 0,0 UV-I 109 W/m 7,6 C 1,4 C 32,2 km/h (5 Bft) 100,00 %
04.12.2018 12:20 8,8 C 3,9 C 8,9 C 92 % 1015,8 hPa 0,0 l/m 16,8 km/h (3 Bft) SW 236 0 min 0,000 mm 0,0 UV-I 141 W/m 7,6 C 2,9 C 27,4 km/h (4 Bft) 100,00 %
04.12.2018 12:22 8,8 C 3,9 C 9,4 C 92 % 1015,8 hPa 0,0 l/m 15,3 km/h (3 Bft) W 269 0 min 0,000 mm 0,0 UV-I 153 W/m 7,6 C 3,5 C 24,1 km/h (4 Bft) 98,00 %
04.12.2018 12:24 8,8 C 3,9 C 9,4 C 92 % 1015,8 hPa 0,0 l/m 20,1 km/h (4 Bft) NW 306 0 min 0,000 mm 0,0 UV-I 151 W/m 7,6 C 1,7 C 33,8 km/h (5 Bft) 100,00 %
04.12.2018 12:26 8,8 C 3,9 C 8,9 C 92 % 1015,9 hPa 0,0 l/m 17,4 km/h (3 Bft) W 264 0 min 0,000 mm 0,0 UV-I 122 W/m 7,6 C 2,7 C 25,7 km/h (4 Bft) 100,00 %
04.12.2018 12:28 8,8 C 3,9 C 8,9 C 92 % 1015,9 hPa 0,0 l/m 18,4 km/h (3 Bft) W-SW 252 0 min 0,000 mm 0,0 UV-I 78 W/m 7,6 C 2,3 C 25,7 km/h (4 Bft) 100,00 %
04.12.2018 12:30 8,7 C 3,9 C 8,3 C 92 % 1016,0 hPa 0,0 l/m 20,0 km/h (4 Bft) W-NW 283 0 min 0,000 mm 0,0 UV-I 51 W/m 7,5 C 1,6 C 27,4 km/h (4 Bft) 98,18 %
04.12.2018 12:32 8,7 C 3,9 C 8,3 C 92 % 1016,0 hPa 0,0 l/m 20,3 km/h (4 Bft) W-NW 284 0 min 0,000 mm 0,0 UV-I 52 W/m 7,5 C 1,5 C 32,2 km/h (5 Bft) 100,00 %
04.12.2018 12:34 8,7 C 3,9 C 8,3 C 92 % 1016,0 hPa 0,0 l/m 17,2 km/h (3 Bft) W 262 0 min 0,000 mm 0,0 UV-I 86 W/m 7,5 C 2,6 C 22,5 km/h (4 Bft) 100,00 %
04.12.2018 12:36 8,7 C 3,9 C 8,3 C 92 % 1016,1 hPa 0,0 l/m 21,5 km/h (4 Bft) W-SW 241 0 min 0,000 mm 0,0 UV-I 94 W/m 7,5 C 1,1 C 30,6 km/h (5 Bft) 98,00 %
04.12.2018 12:38 8,6 C 3,9 C 8,3 C 92 % 1016,1 hPa 0,0 l/m 16,5 km/h (3 Bft) W-NW 298 0 min 0,000 mm 0,0 UV-I 82 W/m 7,4 C 2,8 C 27,4 km/h (4 Bft) 100,00 %
04.12.2018 12:40 8,6 C 3,9 C 8,3 C 92 % 1016,1 hPa 0,0 l/m 20,7 km/h (4 Bft) W-SW 251 0 min 0,000 mm 0,0 UV-I 61 W/m 7,4 C 1,2 C 32,2 km/h (5 Bft) 100,00 %
04.12.2018 12:42 8,5 C 3,9 C 8,3 C 93 % 1016,1 hPa 0,0 l/m 18,2 km/h (3 Bft) W-SW 256 0 min 0,000 mm 0,0 UV-I 45 W/m 7,4 C 2,0 C 29,0 km/h (5 Bft) 100,00 %
04.12.2018 12:44 8,5 C 3,9 C 8,3 C 92 % 1016,1 hPa 0,0 l/m 22,7 km/h (4 Bft) W-SW 251 0 min 0,000 mm 0,0 UV-I 45 W/m 7,3 C 0,5 C 37,0 km/h (5 Bft) 97,37 %
04.12.2018 12:46 8,4 C 3,9 C 8,3 C 93 % 1016,1 hPa 0,2 l/m 16,5 km/h (3 Bft) W 262 0 min 0,000 mm 0,0 UV-I 48 W/m 7,3 C 2,5 C 24,1 km/h (4 Bft) 100,00 %
04.12.2018 12:48 8,4 C 3,9 C 8,3 C 93 % 1016,1 hPa 0,0 l/m 16,3 km/h (3 Bft) W 263 0 min 0,000 mm 0,0 UV-I 44 W/m 7,3 C 2,6 C 27,4 km/h (4 Bft) 100,00 %
04.12.2018 12:50 8,4 C 3,9 C 7,8 C 93 % 1016,1 hPa 0,0 l/m 17,3 km/h (3 Bft) SW 232 0 min 0,000 mm 0,0 UV-I 39 W/m 7,3 C 2,2 C 27,4 km/h (4 Bft) 100,00 %
04.12.2018 12:52 8,4 C 3,9 C 7,8 C 93 % 1016,1 hPa 0,0 l/m 17,9 km/h (3 Bft) W 273 0 min 0,000 mm 0,0 UV-I 44 W/m 7,3 C 2,0 C 24,1 km/h (4 Bft) 100,00 %
04.12.2018 12:54 8,4 C 3,9 C 7,8 C 93 % 1016,1 hPa 0,0 l/m 16,0 km/h (3 Bft) W 260 0 min 0,000 mm 0,0 UV-I 48 W/m 7,3 C 2,8 C 22,5 km/h (4 Bft) 100,00 %
04.12.2018 12:56 8,4 C 3,9 C 7,8 C 93 % 1016,2 hPa 0,0 l/m 20,6 km/h (4 Bft) W-SW 239 0 min 0,000 mm 0,0 UV-I 48 W/m 7,3 C 1,0 C 30,6 km/h (5 Bft) 100,00 %
04.12.2018 12:58 8,4 C 3,9 C 7,8 C 92 % 1016,2 hPa 0,0 l/m 17,3 km/h (3 Bft) W 262 0 min 0,000 mm 0,0 UV-I 41 W/m 7,2 C 2,2 C 25,7 km/h (4 Bft) 100,00 %
04.12.2018 13:00 8,4 C 3,9 C 7,8 C 92 % 1016,2 hPa 0,0 l/m 19,4 km/h (3 Bft) W 273 0 min 0,051 mm 0,0 UV-I 38 W/m 7,2 C 1,4 C 24,1 km/h (4 Bft) 100,00 %
04.12.2018 13:02 8,4 C 3,9 C 7,8 C 92 % 1016,3 hPa 0,0 l/m 16,7 km/h (3 Bft) W 275 0 min 0,000 mm 0,0 UV-I 39 W/m 7,2 C 2,5 C 25,7 km/h (4 Bft) 100,00 %
04.12.2018 13:04 8,4 C 3,9 C 7,8 C 92 % 1016,3 hPa 0,0 l/m 16,7 km/h (3 Bft) W-NW 282 0 min 0,000 mm 0,0 UV-I 48 W/m 7,2 C 2,5 C 22,5 km/h (4 Bft) 98,11 %
04.12.2018 13:06 8,4 C 3,9 C 7,8 C 91 % 1016,3 hPa 0,0 l/m 14,8 km/h (3 Bft) W 269 0 min 0,000 mm 0,0 UV-I 63 W/m 7,0 C 3,3 C 22,5 km/h (4 Bft) 98,00 %
04.12.2018 13:08 8,4 C 3,9 C 7,8 C 91 % 1016,4 hPa 0,0 l/m 16,0 km/h (3 Bft) W-SW 257 0 min 0,000 mm 0,0 UV-I 71 W/m 7,0 C 2,8 C 22,5 km/h (4 Bft) 97,22 %
04.12.2018 13:10 8,4 C 3,9 C 8,3 C 91 % 1016,4 hPa 0,0 l/m 17,8 km/h (3 Bft) W 279 0 min 0,000 mm 0,0 UV-I 76 W/m 7,0 C 2,0 C 24,1 km/h (4 Bft) 94,00 %
04.12.2018 13:12 8,4 C 3,9 C 8,3 C 91 % 1016,4 hPa 0,0 l/m 18,7 km/h (3 Bft) W 271 0 min 0,000 mm 0,0 UV-I 68 W/m 7,0 C 1,7 C 25,7 km/h (4 Bft) 95,74 %
04.12.2018 13:14 8,4 C 3,9 C 7,8 C 90 % 1016,5 hPa 0,0 l/m 18,4 km/h (3 Bft) W 271 0 min 0,000 mm 0,0 UV-I 53 W/m 6,9 C 1,8 C 25,7 km/h (4 Bft) 95,74 %
04.12.2018 13:16 8,4 C 3,9 C 7,8 C 90 % 1016,5 hPa 0,0 l/m 17,2 km/h (3 Bft) W-NW 295 0 min 0,000 mm 0,0 UV-I 50 W/m 6,9 C 2,3 C 22,5 km/h (4 Bft) 93,62 %
04.12.2018 13:18 8,4 C 3,9 C 7,8 C 90 % 1016,6 hPa 0,0 l/m 16,8 km/h (3 Bft) W 263 0 min 0,000 mm 0,0 UV-I 48 W/m 6,9 C 2,4 C 25,7 km/h (4 Bft) 94,34 %
04.12.2018 13:20 8,4 C 3,9 C 7,8 C 90 % 1016,6 hPa 0,0 l/m 17,5 km/h (3 Bft) W-SW 255 0 min 0,000 mm 0,0 UV-I 43 W/m 6,9 C 2,1 C 25,7 km/h (4 Bft) 94,74 %
04.12.2018 13:22 8,4 C 3,9 C 7,8 C 90 % 1016,5 hPa 0,0 l/m 14,4 km/h (3 Bft) W-SW 238 0 min 0,000 mm 0,0 UV-I 34 W/m 6,9 C 3,5 C 22,5 km/h (4 Bft) 96,23 %
04.12.2018 13:24 8,4 C 3,9 C 7,8 C 90 % 1016,5 hPa 0,0 l/m 12,6 km/h (3 Bft) W 260 0 min 0,000 mm 0,0 UV-I 27 W/m 6,9 C 4,4 C 22,5 km/h (4 Bft) 96,00 %
04.12.2018 13:26 8,4 C 3,9 C 7,8 C 90 % 1016,5 hPa 0,0 l/m 21,0 km/h (4 Bft) W-SW 252 0 min 0,000 mm 0,0 UV-I 25 W/m 6,9 C 0,9 C 30,6 km/h (5 Bft) 94,74 %
04.12.2018 13:28 8,4 C 3,9 C 7,8 C 90 % 1016,6 hPa 0,0 l/m 17,4 km/h (3 Bft) W-SW 257 0 min 0,000 mm 0,0 UV-I 29 W/m 6,9 C 2,2 C 24,1 km/h (4 Bft) 92,86 %
04.12.2018 13:30 8,4 C 3,9 C 7,8 C 91 % 1016,5 hPa 0,0 l/m 19,0 km/h (3 Bft) W 277 0 min 0,000 mm 0,0 UV-I 40 W/m 7,0 C 1,6 C 30,6 km/h (5 Bft) 97,73 %
04.12.2018 13:32 8,4 C 3,9 C 7,8 C 91 % 1016,5 hPa 0,0 l/m 21,2 km/h (4 Bft) W 269 0 min 0,000 mm 0,0 UV-I 46 W/m 7,0 C 0,8 C 29,0 km/h (5 Bft) 94,00 %
04.12.2018 13:34 8,5 C 3,9 C 7,8 C 90 % 1016,5 hPa 0,0 l/m 17,5 km/h (3 Bft) W 271 0 min 0,000 mm 0,0 UV-I 50 W/m 7,0 C 2,3 C 29,0 km/h (5 Bft) 95,12 %
04.12.2018 13:36 8,5 C 3,9 C 7,8 C 90 % 1016,5 hPa 0,0 l/m 14,8 km/h (3 Bft) W 260 0 min 0,000 mm 0,0 UV-I 60 W/m 7,0 C 3,4 C 20,9 km/h (4 Bft) 94,34 %
04.12.2018 13:38 8,6 C 3,9 C 8,3 C 90 % 1016,5 hPa 0,0 l/m 15,0 km/h (3 Bft) W 275 0 min 0,000 mm 0,0 UV-I 80 W/m 7,1 C 3,4 C 19,3 km/h (3 Bft) 97,87 %
04.12.2018 13:40 8,6 C 3,9 C 8,3 C 90 % 1016,5 hPa 0,0 l/m 16,2 km/h (3 Bft) W-NW 285 0 min 0,000 mm 0,0 UV-I 99 W/m 7,1 C 2,9 C 29,0 km/h (5 Bft) 97,56 %
04.12.2018 13:42 8,6 C 3,9 C 8,3 C 90 % 1016,5 hPa 0,0 l/m 15,7 km/h (3 Bft) W-SW 257 0 min 0,000 mm 0,0 UV-I 86 W/m 7,1 C 3,1 C 20,9 km/h (4 Bft) 96,30 %
04.12.2018 13:44 8,6 C 3,9 C 8,3 C 90 % 1016,5 hPa 0,0 l/m 17,5 km/h (3 Bft) W-SW 242 0 min 0,000 mm 0,0 UV-I 74 W/m 7,1 C 2,4 C 24,1 km/h (4 Bft) 98,57 %
04.12.2018 13:46 8,7 C 3,9 C 8,3 C 90 % 1016,6 hPa 0,0 l/m 18,3 km/h (3 Bft) W 260 0 min 0,000 mm 0,0 UV-I 76 W/m 7,2 C 2,2 C 25,7 km/h (4 Bft) 97,62 %
04.12.2018 13:48 8,7 C 3,9 C 8,3 C 89 % 1016,6 hPa 0,0 l/m 18,1 km/h (3 Bft) W 267 0 min 0,000 mm 0,0 UV-I 84 W/m 7,0 C 2,3 C 22,5 km/h (4 Bft) 100,00 %
04.12.2018 13:50 8,7 C 3,9 C 8,3 C 89 % 1016,6 hPa 0,0 l/m 15,3 km/h (3 Bft) W 262 0 min 0,000 mm 0,0 UV-I 76 W/m 7,0 C 3,4 C 25,7 km/h (4 Bft) 98,00 %
04.12.2018 13:52 8,8 C 3,9 C 8,3 C 89 % 1016,7 hPa 0,0 l/m 17,9 km/h (3 Bft) W-SW 257 0 min 0,000 mm 0,0 UV-I 52 W/m 7,1 C 2,5 C 27,4 km/h (4 Bft) 100,00 %
04.12.2018 13:54 8,8 C 3,9 C 8,3 C 88 % 1016,8 hPa 0,0 l/m 19,3 km/h (3 Bft) W-NW 282 0 min 0,000 mm 0,0 UV-I 40 W/m 6,9 C 2,0 C 27,4 km/h (4 Bft) 100,00 %
04.12.2018 13:56 8,8 C 3,9 C 8,3 C 88 % 1016,9 hPa 0,0 l/m 17,8 km/h (3 Bft) W 273 0 min 0,000 mm 0,0 UV-I 31 W/m 6,9 C 2,5 C 24,1 km/h (4 Bft) 100,00 %
04.12.2018 13:58 8,8 C 3,9 C 7,8 C 88 % 1016,9 hPa 0,0 l/m 19,0 km/h (3 Bft) W-SW 246 0 min 0,000 mm 0,0 UV-I 30 W/m 6,9 C 2,1 C 25,7 km/h (4 Bft) 98,21 %
04.12.2018 14:00 8,8 C 3,9 C 7,8 C 87 % 1017,0 hPa 0,0 l/m 15,3 km/h (3 Bft) W 267 0 min 0,051 mm 0,0 UV-I 38 W/m 6,8 C 3,5 C 20,9 km/h (4 Bft) 100,00 %
04.12.2018 14:02 8,8 C 3,9 C 8,3 C 87 % 1017,0 hPa 0,0 l/m 14,1 km/h (3 Bft) W-NW 292 0 min 0,000 mm 0,0 UV-I 49 W/m 6,8 C 4,1 C 19,3 km/h (3 Bft) 100,00 %
04.12.2018 14:04 8,8 C 3,9 C 7,8 C 88 % 1017,2 hPa 0,0 l/m 6,3 km/h (2 Bft) NW 311 0 min 0,000 mm 0,0 UV-I 39 W/m 6,9 C 8,8 C 11,3 km/h (2 Bft) 100,00 %
04.12.2018 14:06 8,7 C 3,9 C 7,8 C 89 % 1017,2 hPa 0,0 l/m 6,5 km/h (2 Bft) NW 309 0 min 0,000 mm 0,0 UV-I 30 W/m 7,0 C 8,6 C 12,9 km/h (3 Bft) 100,00 %
04.12.2018 14:09 8,2 C 3,9 C 7,2 C 88 % 1017,3 hPa 0,2 l/m 11,1 km/h (2 Bft) N-NW 335 0 min 0,000 mm 0,0 UV-I 23 W/m 6,3 C 4,9 C 24,1 km/h (4 Bft) 100,00 %
04.12.2018 14:10 8,0 C 3,9 C 7,2 C 88 % 1017,3 hPa 0,2 l/m 13,8 km/h (3 Bft) NW 307 0 min 0,000 mm 0,0 UV-I 23 W/m 6,1 C 3,3 C 22,5 km/h (4 Bft) 100,00 %
04.12.2018 14:12 7,7 C 3,9 C 6,7 C 90 % 1017,3 hPa 0,0 l/m 8,0 km/h (2 Bft) NW 304 0 min 0,000 mm 0,0 UV-I 18 W/m 6,2 C 6,4 C 14,5 km/h (3 Bft) 100,00 %
04.12.2018 14:14 7,5 C 3,9 C 6,7 C 90 % 1017,3 hPa 0,2 l/m 7,1 km/h (2 Bft) W-NW 296 0 min 0,000 mm 0,0 UV-I 15 W/m 6,0 C 6,9 C 14,5 km/h (3 Bft) 97,14 %
04.12.2018 14:16 7,4 C 3,9 C 6,7 C 91 % 1017,3 hPa 0,2 l/m 10,2 km/h (2 Bft) W-NW 292 0 min 0,000 mm 0,0 UV-I 18 W/m 6,0 C 4,6 C 17,7 km/h (3 Bft) 100,00 %
04.12.2018 14:18 7,3 C 3,9 C 6,7 C 92 % 1017,5 hPa 0,4 l/m 12,1 km/h (2 Bft) W-NW 296 0 min 0,000 mm 0,0 UV-I 16 W/m 6,1 C 3,3 C 17,7 km/h (3 Bft) 100,00 %
04.12.2018 14:20 7,3 C 3,9 C 6,7 C 92 % 1017,5 hPa 0,6 l/m 20,5 km/h (4 Bft) W 267 0 min 0,000 mm 0,0 UV-I 21 W/m 6,1 C -0,4 C 30,6 km/h (5 Bft) 100,00 %
04.12.2018 14:22 7,3 C 3,9 C 6,7 C 93 % 1017,6 hPa 0,0 l/m 14,3 km/h (3 Bft) W 278 0 min 0,000 mm 0,0 UV-I 18 W/m 6,2 C 2,2 C 27,4 km/h (4 Bft) 97,62 %
04.12.2018 14:24 7,2 C 3,9 C 6,7 C 93 % 1017,6 hPa 0,2 l/m 17,3 km/h (3 Bft) W 262 0 min 0,000 mm 0,0 UV-I 15 W/m 6,1 C 0,7 C 24,1 km/h (4 Bft) 100,00 %
04.12.2018 14:26 7,2 C 3,9 C 6,7 C 93 % 1017,6 hPa 0,2 l/m 21,3 km/h (4 Bft) W 277 0 min 0,000 mm 0,0 UV-I 16 W/m 6,1 C -0,8 C 38,6 km/h (5 Bft) 97,92 %
04.12.2018 14:28 7,2 C 3,9 C 6,7 C 93 % 1017,7 hPa 0,0 l/m 21,4 km/h (4 Bft) W 264 0 min 0,000 mm 0,0 UV-I 18 W/m 6,1 C -0,8 C 33,8 km/h (5 Bft) 96,00 %
04.12.2018 14:30 7,2 C 3,9 C 6,7 C 93 % 1017,7 hPa 0,2 l/m 17,8 km/h (3 Bft) W-NW 293 0 min 0,000 mm 0,0 UV-I 18 W/m 6,1 C 0,5 C 30,6 km/h (5 Bft) 97,37 %
04.12.2018 14:32 7,1 C 3,9 C 6,7 C 93 % 1017,8 hPa 0,2 l/m 19,3 km/h (3 Bft) W 259 0 min 0,000 mm 0,0 UV-I 20 W/m 6,0 C -0,2 C 30,6 km/h (5 Bft) 97,87 %
04.12.2018 14:34 7,1 C 3,9 C 6,7 C 93 % 1017,8 hPa 0,0 l/m 14,0 km/h (3 Bft) W-SW 257 0 min 0,000 mm 0,0 UV-I 23 W/m 6,0 C 2,1 C 19,3 km/h (3 Bft) 96,23 %
04.12.2018 14:36 7,1 C 3,9 C 6,7 C 93 % 1017,8 hPa 0,0 l/m 18,1 km/h (3 Bft) W-SW 256 0 min 0,000 mm 0,0 UV-I 21 W/m 6,0 C 0,3 C 22,5 km/h (4 Bft) 95,74 %
04.12.2018 14:38 7,0 C 3,9 C 6,7 C 93 % 1017,9 hPa 0,0 l/m 15,4 km/h (3 Bft) W 262 0 min 0,000 mm 0,0 UV-I 19 W/m 5,9 C 1,3 C 20,9 km/h (4 Bft) 98,00 %
04.12.2018 14:40 6,9 C 3,9 C 6,7 C 93 % 1017,9 hPa 0,0 l/m 12,8 km/h (3 Bft) W-SW 258 0 min 0,000 mm 0,0 UV-I 20 W/m 5,8 C 2,5 C 17,7 km/h (3 Bft) 94,74 %
04.12.2018 14:42 6,9 C 3,9 C 6,7 C 93 % 1017,9 hPa 0,0 l/m 16,6 km/h (3 Bft) W-SW 244 0 min 0,000 mm 0,0 UV-I 24 W/m 5,8 C 0,6 C 22,5 km/h (4 Bft) 98,00 %
04.12.2018 14:44 6,8 C 3,9 C 6,7 C 93 % 1018,0 hPa 0,0 l/m 15,4 km/h (3 Bft) W-SW 258 0 min 0,000 mm 0,0 UV-I 23 W/m 5,7 C 1,1 C 22,5 km/h (4 Bft) 97,37 %
04.12.2018 14:46 6,8 C 3,9 C 6,1 C 93 % 1017,9 hPa 0,0 l/m 15,3 km/h (3 Bft) W-SW 254 0 min 0,000 mm 0,0 UV-I 22 W/m 5,7 C 1,1 C 20,9 km/h (4 Bft) 96,23 %
04.12.2018 14:48 6,8 C 3,9 C 6,1 C 93 % 1018,0 hPa 0,0 l/m 19,0 km/h (3 Bft) W-SW 256 0 min 0,000 mm 0,0 UV-I 22 W/m 5,7 C -0,5 C 24,1 km/h (4 Bft) 96,23 %
04.12.2018 14:50 6,7 C 3,9 C 6,1 C 93 % 1018,0 hPa 0,0 l/m 18,4 km/h (3 Bft) W-SW 252 0 min 0,000 mm 0,0 UV-I 23 W/m 5,6 C -0,4 C 27,4 km/h (4 Bft) 94,29 %
04.12.2018 14:52 6,7 C 3,9 C 6,1 C 93 % 1018,1 hPa 0,0 l/m 12,8 km/h (3 Bft) W-SW 252 0 min 0,000 mm 0,0 UV-I 23 W/m 5,6 C 2,3 C 20,9 km/h (4 Bft) 98,11 %
04.12.2018 14:54 6,7 C 3,9 C 6,1 C 93 % 1018,2 hPa 0,2 l/m 15,1 km/h (3 Bft) W 267 0 min 0,000 mm 0,0 UV-I 29 W/m 5,6 C 1,1 C 20,9 km/h (4 Bft) 98,00 %
04.12.2018 14:56 6,7 C 3,9 C 6,1 C 93 % 1018,2 hPa 0,0 l/m 18,5 km/h (3 Bft) W 275 0 min 0,000 mm 0,0 UV-I 34 W/m 5,6 C -0,4 C 24,1 km/h (4 Bft) 95,12 %
04.12.2018 14:58 6,7 C 3,9 C 6,1 C 93 % 1018,3 hPa 0,0 l/m 17,4 km/h (3 Bft) W 265 0 min 0,000 mm 0,0 UV-I 33 W/m 5,6 C 0,1 C 27,4 km/h (4 Bft) 97,87 %
04.12.2018 15:00 6,7 C 3,9 C 6,1 C 93 % 1018,3 hPa 0,0 l/m 17,3 km/h (3 Bft) W-SW 250 0 min 0,025 mm 0,0 UV-I 31 W/m 5,6 C 0,1 C 25,7 km/h (4 Bft) 95,74 %
04.12.2018 15:02 6,6 C 3,9 C 6,1 C 93 % 1018,3 hPa 0,0 l/m 19,3 km/h (3 Bft) W 280 0 min 0,000 mm 0,0 UV-I 30 W/m 5,6 C -0,8 C 27,4 km/h (4 Bft) 96,23 %
04.12.2018 15:04 6,6 C 3,9 C 6,1 C 93 % 1018,4 hPa 0,0 l/m 16,4 km/h (3 Bft) W 259 0 min 0,000 mm 0,0 UV-I 33 W/m 5,6 C 0,4 C 25,7 km/h (4 Bft) 100,00 %
04.12.2018 15:06 6,6 C 3,9 C 6,1 C 94 % 1018,5 hPa 0,0 l/m 16,2 km/h (3 Bft) W 272 0 min 0,000 mm 0,0 UV-I 27 W/m 5,7 C 0,5 C 20,9 km/h (4 Bft) 96,43 %
04.12.2018 15:08 6,6 C 3,9 C 6,1 C 94 % 1018,5 hPa 0,0 l/m 16,4 km/h (3 Bft) W 263 0 min 0,000 mm 0,0 UV-I 19 W/m 5,7 C 0,4 C 25,7 km/h (4 Bft) 92,16 %
04.12.2018 15:10 6,6 C 3,9 C 6,1 C 94 % 1018,6 hPa 0,0 l/m 16,9 km/h (3 Bft) W-SW 254 0 min 0,000 mm 0,0 UV-I 16 W/m 5,7 C 0,1 C 24,1 km/h (4 Bft) 97,87 %
04.12.2018 15:12 6,6 C 3,9 C 6,1 C 94 % 1018,6 hPa 0,0 l/m 13,7 km/h (3 Bft) SW 215 0 min 0,000 mm 0,0 UV-I 16 W/m 5,7 C 1,7 C 17,7 km/h (3 Bft) 98,00 %
04.12.2018 15:14 6,6 C 3,9 C 6,1 C 94 % 1018,6 hPa 0,0 l/m 14,8 km/h (3 Bft) W-SW 256 0 min 0,000 mm 0,0 UV-I 15 W/m 5,7 C 1,1 C 22,5 km/h (4 Bft) 98,00 %
04.12.2018 15:16 6,7 C 3,9 C 6,1 C 94 % 1018,6 hPa 0,0 l/m 14,2 km/h (3 Bft) W 267 0 min 0,000 mm 0,0 UV-I 18 W/m 5,8 C 1,5 C 19,3 km/h (3 Bft) 97,56 %
04.12.2018 15:18 6,7 C 3,9 C 6,1 C 94 % 1018,6 hPa 0,0 l/m 13,2 km/h (3 Bft) W-NW 287 0 min 0,000 mm 0,0 UV-I 17 W/m 5,8 C 2,0 C 20,9 km/h (4 Bft) 92,00 %
04.12.2018 15:20 6,7 C 3,9 C 6,1 C 93 % 1018,6 hPa 0,0 l/m 16,1 km/h (3 Bft) W 267 0 min 0,000 mm 0,0 UV-I 20 W/m 5,6 C 0,6 C 29,0 km/h (5 Bft) 95,12 %
04.12.2018 15:22 6,7 C 3,9 C 6,1 C 93 % 1018,6 hPa 0,0 l/m 12,2 km/h (2 Bft) W-SW 252 0 min 0,000 mm 0,0 UV-I 17 W/m 5,6 C 2,6 C 17,7 km/h (3 Bft) 94,44 %
04.12.2018 15:24 6,7 C 3,9 C 6,1 C 93 % 1018,7 hPa 0,0 l/m 14,1 km/h (3 Bft) W 263 0 min 0,000 mm 0,0 UV-I 15 W/m 5,6 C 1,6 C 20,9 km/h (4 Bft) 95,12 %
04.12.2018 15:26 6,7 C 3,9 C 6,1 C 93 % 1018,7 hPa 0,0 l/m 14,4 km/h (3 Bft) W 265 0 min 0,000 mm 0,0 UV-I 14 W/m 5,6 C 1,4 C 19,3 km/h (3 Bft) 95,74 %
04.12.2018 15:28 6,8 C 3,9 C 6,1 C 93 % 1018,8 hPa 0,0 l/m 11,3 km/h (2 Bft) W-SW 256 0 min 0,000 mm 0,0 UV-I 14 W/m 5,7 C 3,2 C 14,5 km/h (3 Bft) 94,34 %
04.12.2018 15:30 6,7 C 3,9 C 6,1 C 94 % 1018,9 hPa 0,0 l/m 14,9 km/h (3 Bft) W 264 0 min 0,000 mm 0,0 UV-I 15 W/m 5,8 C 1,2 C 24,1 km/h (4 Bft) 95,12 %
04.12.2018 15:32 6,8 C 3,9 C 6,1 C 94 % 1018,9 hPa 0,0 l/m 13,7 km/h (3 Bft) W 261 0 min 0,000 mm 0,0 UV-I 17 W/m 5,9 C 1,9 C 17,7 km/h (3 Bft) 96,43 %
04.12.2018 15:34 6,8 C 3,9 C 6,1 C 94 % 1018,9 hPa 0,0 l/m 13,0 km/h (3 Bft) W 268 0 min 0,000 mm 0,0 UV-I 20 W/m 5,9 C 2,3 C 19,3 km/h (3 Bft) 92,59 %
04.12.2018 15:36 6,8 C 3,9 C 6,7 C 94 % 1019,0 hPa 0,0 l/m 12,9 km/h (3 Bft) W-NW 287 0 min 0,000 mm 0,0 UV-I 23 W/m 5,9 C 2,3 C 19,3 km/h (3 Bft) 96,23 %
04.12.2018 15:38 6,8 C 3,9 C 6,1 C 94 % 1019,0 hPa 0,0 l/m 9,1 km/h (2 Bft) W 274 0 min 0,000 mm 0,0 UV-I 21 W/m 5,9 C 4,7 C 14,5 km/h (3 Bft) 94,83 %
04.12.2018 15:40 6,8 C 3,9 C 6,1 C 94 % 1019,0 hPa 0,0 l/m 17,4 km/h (3 Bft) W-NW 294 0 min 0,000 mm 0,0 UV-I 20 W/m 5,9 C 0,2 C 32,2 km/h (5 Bft) 95,56 %
04.12.2018 15:42 6,8 C 3,9 C 6,1 C 94 % 1019,0 hPa 0,0 l/m 14,7 km/h (3 Bft) W 265 0 min 0,000 mm 0,0 UV-I 18 W/m 5,9 C 1,4 C 19,3 km/h (3 Bft) 95,74 %
04.12.2018 15:44 6,9 C 3,9 C 6,1 C 94 % 1019,0 hPa 0,0 l/m 15,4 km/h (3 Bft) W 262 0 min 0,000 mm 0,0 UV-I 18 W/m 6,0 C 1,2 C 20,9 km/h (4 Bft) 96,00 %
04.12.2018 15:46 6,9 C 3,9 C 6,1 C 93 % 1019,0 hPa 0,0 l/m 13,0 km/h (3 Bft) W 279 0 min 0,000 mm 0,0 UV-I 16 W/m 5,8 C 2,4 C 19,3 km/h (3 Bft) 95,12 %
04.12.2018 15:48 6,9 C 3,9 C 6,1 C 93 % 1019,1 hPa 0,0 l/m 12,6 km/h (3 Bft) W 273 0 min 0,000 mm 0,0 UV-I 14 W/m 5,8 C 2,6 C 19,3 km/h (3 Bft) 93,62 %
04.12.2018 15:50 6,9 C 3,9 C 6,1 C 93 % 1019,1 hPa 0,0 l/m 14,2 km/h (3 Bft) W-SW 244 0 min 0,000 mm 0,0 UV-I 13 W/m 5,8 C 1,8 C 19,3 km/h (3 Bft) 90,57 %
04.12.2018 15:52 6,9 C 3,9 C 6,1 C 93 % 1019,1 hPa 0,0 l/m 13,7 km/h (3 Bft) W-SW 253 0 min 0,000 mm 0,0 UV-I 12 W/m 5,8 C 2,0 C 22,5 km/h (4 Bft) 92,68 %
04.12.2018 15:54 6,9 C 3,9 C 6,1 C 93 % 1019,1 hPa 0,0 l/m 12,5 km/h (3 Bft) W 275 0 min 0,000 mm 0,0 UV-I 12 W/m 5,8 C 2,7 C 20,9 km/h (4 Bft) 94,00 %
04.12.2018 15:56 6,9 C 3,9 C 6,1 C 93 % 1019,1 hPa 0,0 l/m 16,6 km/h (3 Bft) W-SW 251 0 min 0,000 mm 0,0 UV-I 11 W/m 5,8 C 0,6 C 22,5 km/h (4 Bft) 96,00 %
04.12.2018 15:58 6,9 C 3,9 C 6,1 C 93 % 1019,2 hPa 0,0 l/m 13,9 km/h (3 Bft) W-NW 288 0 min 0,000 mm 0,0 UV-I 9 W/m 5,8 C 1,9 C 22,5 km/h (4 Bft) 97,37 %
04.12.2018 16:00 6,8 C 3,9 C 6,1 C 93 % 1019,2 hPa 0,0 l/m 13,4 km/h (3 Bft) W 271 0 min 0,026 mm 0,0 UV-I 9 W/m 5,7 C 2,1 C 17,7 km/h (3 Bft) 97,87 %
04.12.2018 16:02 6,8 C 3,9 C 6,1 C 93 % 1019,4 hPa 0,0 l/m 15,2 km/h (3 Bft) W-NW 287 0 min 0,000 mm 0,0 UV-I 7 W/m 5,7 C 1,2 C 22,5 km/h (4 Bft) 98,11 %
04.12.2018 16:04 6,8 C 3,9 C 6,1 C 93 % 1019,4 hPa 0,0 l/m 13,7 km/h (3 Bft) W-NW 284 0 min 0,000 mm 0,0 UV-I 7 W/m 5,7 C 1,9 C 17,7 km/h (3 Bft) 97,56 %
04.12.2018 16:06 6,8 C 3,9 C 6,1 C 93 % 1019,3 hPa 0,0 l/m 14,1 km/h (3 Bft) W-SW 245 0 min 0,000 mm 0,0 UV-I 7 W/m 5,7 C 1,7 C 19,3 km/h (3 Bft) 98,21 %
04.12.2018 16:08 6,8 C 3,9 C 6,1 C 93 % 1019,5 hPa 0,0 l/m 13,4 km/h (3 Bft) W-SW 241 0 min 0,000 mm 0,0 UV-I 6 W/m 5,7 C 2,1 C 17,7 km/h (3 Bft) 97,56 %
04.12.2018 16:10 6,8 C 3,9 C 6,1 C 93 % 1019,4 hPa 0,0 l/m 15,0 km/h (3 Bft) W 273 0 min 0,000 mm 0,0 UV-I 5 W/m 5,7 C 1,3 C 22,5 km/h (4 Bft) 98,00 %
04.12.2018 16:12 6,8 C 3,9 C 6,1 C 93 % 1019,4 hPa 0,0 l/m 13,0 km/h (3 Bft) W-SW 245 0 min 0,000 mm 0,0 UV-I 5 W/m 5,7 C 2,3 C 20,9 km/h (4 Bft) 100,00 %
04.12.2018 16:14 6,8 C 3,9 C 6,1 C 93 % 1019,5 hPa 0,0 l/m 12,1 km/h (2 Bft) W 269 0 min 0,000 mm 0,0 UV-I 5 W/m 5,7 C 2,8 C 17,7 km/h (3 Bft) 95,74 %
04.12.2018 16:16 6,8 C 3,9 C 6,1 C 93 % 1019,5 hPa 0,0 l/m 12,2 km/h (2 Bft) W-SW 242 0 min 0,000 mm 0,0 UV-I 5 W/m 5,7 C 2,7 C 17,7 km/h (3 Bft) 100,00 %
04.12.2018 16:18 6,8 C 3,9 C 6,1 C 93 % 1019,6 hPa 0,0 l/m 14,3 km/h (3 Bft) W 271 0 min 0,000 mm 0,0 UV-I 5 W/m 5,7 C 1,6 C 22,5 km/h (4 Bft) 97,62 %
04.12.2018 16:20 6,8 C 3,9 C 6,1 C 93 % 1019,6 hPa 0,0 l/m 13,3 km/h (3 Bft) W-SW 241 0 min 0,000 mm 0,0 UV-I 3 W/m 5,7 C 2,1 C 20,9 km/h (4 Bft) 100,00 %
04.12.2018 16:22 6,8 C 3,9 C 6,1 C 93 % 1019,6 hPa 0,0 l/m 15,2 km/h (3 Bft) W 259 0 min 0,000 mm 0,0 UV-I 0 W/m 5,7 C 1,2 C 20,9 km/h (4 Bft) 100,00 %
04.12.2018 16:24 6,8 C 3,9 C 6,1 C 93 % 1019,8 hPa 0,0 l/m 15,4 km/h (3 Bft) W 269 0 min 0,000 mm 0,0 UV-I 0 W/m 5,7 C 1,1 C 24,1 km/h (4 Bft) 100,00 %
04.12.2018 16:26 6,8 C 3,9 C 6,1 C 93 % 1019,9 hPa 0,0 l/m 15,4 km/h (3 Bft) W 265 0 min 0,000 mm 0,0 UV-I 0 W/m 5,7 C 1,1 C 20,9 km/h (4 Bft) 100,00 %
04.12.2018 16:28 6,8 C 3,9 C 6,1 C 93 % 1019,8 hPa 0,0 l/m 15,4 km/h (3 Bft) W-SW 254 0 min 0,000 mm 0,0 UV-I 0 W/m 5,7 C 1,1 C 20,9 km/h (4 Bft) 100,00 %
04.12.2018 16:30 6,8 C 3,9 C 6,1 C 93 % 1019,9 hPa 0,0 l/m 14,4 km/h (3 Bft) W-NW 288 0 min 0,000 mm 0,0 UV-I 0 W/m 5,7 C 1,5 C 19,3 km/h (3 Bft) 100,00 %
04.12.2018 16:32 6,8 C 3,9 C 6,1 C 93 % 1020,0 hPa 0,0 l/m 14,7 km/h (3 Bft) W 277 0 min 0,000 mm 0,0 UV-I 0 W/m 5,7 C 1,4 C 20,9 km/h (4 Bft) 100,00 %
04.12.2018 16:34 6,7 C 3,9 C 6,1 C 93 % 1020,0 hPa 0,0 l/m 15,3 km/h (3 Bft) W 271 0 min 0,000 mm 0,0 UV-I 0 W/m 5,6 C 1,0 C 20,9 km/h (4 Bft) 100,00 %
04.12.2018 16:36 6,7 C 3,9 C 6,1 C 92 % 1020,1 hPa 0,0 l/m 14,6 km/h (3 Bft) W 277 0 min 0,000 mm 0,0 UV-I 0 W/m 5,5 C 1,3 C 20,9 km/h (4 Bft) 100,00 %
04.12.2018 16:38 6,7 C 3,9 C 6,1 C 92 % 1020,1 hPa 0,0 l/m 14,7 km/h (3 Bft) W-SW 254 0 min 0,000 mm 0,0 UV-I 0 W/m 5,5 C 1,3 C 24,1 km/h (4 Bft) 100,00 %
04.12.2018 16:40 6,7 C 3,9 C 6,1 C 92 % 1020,1 hPa 0,0 l/m 9,1 km/h (2 Bft) W-NW 283 0 min 0,000 mm 0,0 UV-I 0 W/m 5,5 C 4,6 C 16,1 km/h (3 Bft) 100,00 %
04.12.2018 16:42 6,7 C 3,9 C 5,6 C 92 % 1020,1 hPa 0,0 l/m 12,0 km/h (2 Bft) W 259 0 min 0,000 mm 0,0 UV-I 0 W/m 5,5 C 2,7 C 17,7 km/h (3 Bft) 100,00 %
04.12.2018 16:44 6,6 C 3,9 C 5,6 C 92 % 1020,2 hPa 0,0 l/m 14,2 km/h (3 Bft) W 271 0 min 0,000 mm 0,0 UV-I 0 W/m 5,4 C 1,4 C 20,9 km/h (4 Bft) 97,06 %
04.12.2018 16:46 6,6 C 3,9 C 5,6 C 92 % 1020,3 hPa 0,0 l/m 12,8 km/h (3 Bft) W-NW 285 0 min 0,000 mm 0,0 UV-I 0 W/m 5,4 C 2,1 C 16,1 km/h (3 Bft) 100,00 %
04.12.2018 16:48 6,6 C 3,9 C 5,6 C 92 % 1020,3 hPa 0,0 l/m 10,4 km/h (2 Bft) W 277 0 min 0,000 mm 0,0 UV-I 0 W/m 5,4 C 3,6 C 16,1 km/h (3 Bft) 98,00 %
04.12.2018 16:50 6,6 C 3,9 C 5,6 C 92 % 1020,3 hPa 0,0 l/m 9,9 km/h (2 Bft) W-SW 253 0 min 0,000 mm 0,0 UV-I 0 W/m 5,4 C 3,9 C 12,9 km/h (3 Bft) 100,00 %
04.12.2018 16:52 6,5 C 3,9 C 5,6 C 92 % 1020,4 hPa 0,0 l/m 9,7 km/h (2 Bft) W-SW 249 0 min 0,000 mm 0,0 UV-I 0 W/m 5,3 C 3,9 C 16,1 km/h (3 Bft) 100,00 %
04.12.2018 16:54 6,5 C 3,9 C 5,6 C 92 % 1020,4 hPa 0,0 l/m 8,6 km/h (2 Bft) W 281 0 min 0,000 mm 0,0 UV-I 0 W/m 5,3 C 4,7 C 14,5 km/h (3 Bft) 100,00 %
04.12.2018 16:56 6,4 C 3,9 C 5,6 C 92 % 1020,4 hPa 0,0 l/m 11,7 km/h (2 Bft) W 271 0 min 0,000 mm 0,0 UV-I 0 W/m 5,2 C 2,5 C 17,7 km/h (3 Bft) 95,74 %
04.12.2018 16:58 6,4 C 3,9 C 5,6 C 92 % 1020,6 hPa 0,0 l/m 12,0 km/h (2 Bft) W 260 0 min 0,000 mm 0,0 UV-I 0 W/m 5,2 C 2,4 C 17,7 km/h (3 Bft) 97,92 %
04.12.2018 17:00 6,4 C 3,9 C 5,6 C 92 % 1020,7 hPa 0,0 l/m 10,5 km/h (2 Bft) W-SW 255 0 min 0,000 mm 0,0 UV-I 0 W/m 5,2 C 3,3 C 14,5 km/h (3 Bft) 97,87 %
04.12.2018 17:02 6,4 C 3,9 C 5,6 C 92 % 1020,7 hPa 0,0 l/m 12,5 km/h (3 Bft) W 277 0 min 0,000 mm 0,0 UV-I 0 W/m 5,2 C 2,1 C 17,7 km/h (3 Bft) 100,00 %
04.12.2018 17:04 6,5 C 3,9 C 5,6 C 91 % 1020,7 hPa 0,0 l/m 13,7 km/h (3 Bft) W 269 0 min 0,000 mm 0,0 UV-I 0 W/m 5,1 C 1,5 C 19,3 km/h (3 Bft) 100,00 %
04.12.2018 17:06 6,5 C 3,9 C 5,6 C 91 % 1020,7 hPa 0,0 l/m 13,4 km/h (3 Bft) W 269 0 min 0,000 mm 0,0 UV-I 0 W/m 5,1 C 1,7 C 19,3 km/h (3 Bft) 97,50 %
04.12.2018 17:08 6,6 C 3,9 C 5,6 C 91 % 1020,7 hPa 0,0 l/m 12,2 km/h (2 Bft) W 278 0 min 0,000 mm 0,0 UV-I 0 W/m 5,2 C 2,5 C 16,1 km/h (3 Bft) 98,39 %
04.12.2018 17:10 6,5 C 3,9 C 5,6 C 91 % 1020,7 hPa 0,0 l/m 11,0 km/h (2 Bft) W-SW 246 0 min 0,000 mm 0,0 UV-I 0 W/m 5,1 C 3,1 C 17,7 km/h (3 Bft) 96,00 %
04.12.2018 17:12 6,6 C 3,9 C 5,6 C 91 % 1020,8 hPa 0,0 l/m 8,6 km/h (2 Bft) W-SW 252 0 min 0,000 mm 0,0 UV-I 0 W/m 5,2 C 4,8 C 12,9 km/h (3 Bft) 97,87 %
04.12.2018 17:14 6,5 C 3,9 C 5,6 C 90 % 1020,9 hPa 0,0 l/m 11,3 km/h (2 Bft) W 259 0 min 0,000 mm 0,0 UV-I 0 W/m 5,0 C 2,9 C 19,3 km/h (3 Bft) 97,14 %
04.12.2018 17:16 6,5 C 3,9 C 5,6 C 90 % 1021,0 hPa 0,0 l/m 11,3 km/h (2 Bft) W 263 0 min 0,000 mm 0,0 UV-I 0 W/m 5,0 C 2,9 C 16,1 km/h (3 Bft) 96,08 %
04.12.2018 17:18 6,5 C 3,9 C 5,6 C 90 % 1021,0 hPa 0,0 l/m 9,1 km/h (2 Bft) W-SW 240 0 min 0,000 mm 0,0 UV-I 0 W/m 5,0 C 4,4 C 16,1 km/h (3 Bft) 98,11 %
04.12.2018 17:20 6,5 C 3,9 C 5,6 C 90 % 1021,1 hPa 0,0 l/m 10,8 km/h (2 Bft) W 263 0 min 0,000 mm 0,0 UV-I 0 W/m 5,0 C 3,2 C 14,5 km/h (3 Bft) 97,87 %
04.12.2018 17:22 6,5 C 3,9 C 5,6 C 90 % 1021,0 hPa 0,0 l/m 10,2 km/h (2 Bft) SW 235 0 min 0,000 mm 0,0 UV-I 0 W/m 5,0 C 3,6 C 14,5 km/h (3 Bft) 97,87 %
04.12.2018 17:24 6,4 C 3,9 C 5,6 C 90 % 1021,0 hPa 0,0 l/m 10,4 km/h (2 Bft) W-SW 248 0 min 0,000 mm 0,0 UV-I 0 W/m 4,9 C 3,4 C 17,7 km/h (3 Bft) 93,62 %
04.12.2018 17:26 6,4 C 3,9 C 5,6 C 90 % 1021,1 hPa 0,0 l/m 10,2 km/h (2 Bft) W-SW 257 0 min 0,000 mm 0,0 UV-I 0 W/m 4,9 C 3,5 C 14,5 km/h (3 Bft) 94,74 %
04.12.2018 17:28 6,4 C 3,9 C 5,6 C 90 % 1021,2 hPa 0,0 l/m 12,6 km/h (3 Bft) W 273 0 min 0,000 mm 0,0 UV-I 0 W/m 4,9 C 2,0 C 17,7 km/h (3 Bft) 93,62 %
04.12.2018 17:30 6,5 C 3,9 C 5,6 C 90 % 1021,2 hPa 0,0 l/m 11,2 km/h (2 Bft) W-SW 254 0 min 0,000 mm 0,0 UV-I 0 W/m 5,0 C 3,0 C 14,5 km/h (3 Bft) 95,83 %
04.12.2018 17:32 6,4 C 3,9 C 5,6 C 90 % 1021,1 hPa 0,0 l/m 12,7 km/h (3 Bft) SW 234 0 min 0,000 mm 0,0 UV-I 0 W/m 4,9 C 2,0 C 19,3 km/h (3 Bft) 97,87 %
04.12.2018 17:34 6,4 C 3,9 C 5,6 C 90 % 1021,1 hPa 0,0 l/m 11,5 km/h (2 Bft) W-SW 252 0 min 0,000 mm 0,0 UV-I 0 W/m 4,9 C 2,7 C 16,1 km/h (3 Bft) 97,87 %
04.12.2018 17:36 6,4 C 3,9 C 5,6 C 90 % 1021,2 hPa 0,0 l/m 10,3 km/h (2 Bft) W-SW 255 0 min 0,000 mm 0,0 UV-I 0 W/m 4,9 C 3,4 C 16,1 km/h (3 Bft) 97,87 %
04.12.2018 17:38 6,4 C 3,9 C 5,6 C 90 % 1021,3 hPa 0,0 l/m 13,7 km/h (3 Bft) W-NW 283 0 min 0,000 mm 0,0 UV-I 0 W/m 4,9 C 1,4 C 19,3 km/h (3 Bft) 96,23 %
04.12.2018 17:40 6,4 C 3,9 C 5,6 C 90 % 1021,3 hPa 0,0 l/m 11,4 km/h (2 Bft) W 275 0 min 0,000 mm 0,0 UV-I 0 W/m 4,9 C 2,7 C 16,1 km/h (3 Bft) 95,74 %
04.12.2018 17:42 6,4 C 3,9 C 5,6 C 90 % 1021,3 hPa 0,0 l/m 11,2 km/h (2 Bft) W 271 0 min 0,000 mm 0,0 UV-I 0 W/m 4,9 C 2,8 C 14,5 km/h (3 Bft) 97,87 %
04.12.2018 17:44 6,4 C 3,9 C 5,6 C 90 % 1021,3 hPa 0,0 l/m 11,1 km/h (2 Bft) W-SW 250 0 min 0,000 mm 0,0 UV-I 0 W/m 4,9 C 2,9 C 17,7 km/h (3 Bft) 97,87 %
04.12.2018 17:46 6,4 C 3,9 C 5,6 C 90 % 1021,4 hPa 0,0 l/m 10,4 km/h (2 Bft) W-SW 240 0 min 0,000 mm 0,0 UV-I 0 W/m 4,9 C 3,4 C 14,5 km/h (3 Bft) 95,74 %
04.12.2018 17:48 6,3 C 3,9 C 5,6 C 90 % 1021,5 hPa 0,0 l/m 10,5 km/h (2 Bft) W 277 0 min 0,000 mm 0,0 UV-I 0 W/m 4,8 C 3,2 C 14,5 km/h (3 Bft) 95,74 %
04.12.2018 17:50 6,3 C 3,9 C 5,6 C 90 % 1021,5 hPa 0,0 l/m 9,0 km/h (2 Bft) W-SW 257 0 min 0,000 mm 0,0 UV-I 0 W/m 4,8 C 4,2 C 14,5 km/h (3 Bft) 97,37 %
04.12.2018 17:52 6,3 C 3,9 C 5,6 C 91 % 1021,7 hPa 0,0 l/m 10,7 km/h (2 Bft) W-SW 252 0 min 0,000 mm 0,0 UV-I 0 W/m 4,9 C 3,0 C 14,5 km/h (3 Bft) 94,34 %
04.12.2018 17:54 6,3 C 3,9 C 5,6 C 91 % 1021,6 hPa 0,0 l/m 11,4 km/h (2 Bft) SW 216 0 min 0,000 mm 0,0 UV-I 0 W/m 4,9 C 2,6 C 17,7 km/h (3 Bft) 95,74 %
04.12.2018 17:56 6,3 C 3,9 C 5,6 C 91 % 1021,6 hPa 0,0 l/m 13,6 km/h (3 Bft) W-SW 237 0 min 0,000 mm 0,0 UV-I 0 W/m 4,9 C 1,4 C 17,7 km/h (3 Bft) 97,87 %
04.12.2018 17:58 6,3 C 3,9 C 5,6 C 91 % 1021,6 hPa 0,0 l/m 13,2 km/h (3 Bft) W-SW 258 0 min 0,000 mm 0,0 UV-I 0 W/m 4,9 C 1,6 C 19,3 km/h (3 Bft) 97,87 %
04.12.2018 18:00 6,3 C 3,9 C 5,6 C 90 % 1021,6 hPa 0,0 l/m 9,0 km/h (2 Bft) W 263 0 min 0,000 mm 0,0 UV-I 0 W/m 4,8 C 4,2 C 14,5 km/h (3 Bft) 97,87 %
04.12.2018 18:02 6,3 C 3,9 C 5,6 C 90 % 1021,6 hPa 0,0 l/m 9,7 km/h (2 Bft) W 270 0 min 0,000 mm 0,0 UV-I 0 W/m 4,8 C 3,7 C 12,9 km/h (3 Bft) 100,00 %
04.12.2018 18:04 6,3 C 3,9 C 5,6 C 91 % 1021,6 hPa 0,0 l/m 11,8 km/h (2 Bft) W-SW 248 0 min 0,000 mm 0,0 UV-I 0 W/m 4,9 C 2,4 C 17,7 km/h (3 Bft) 100,00 %
04.12.2018 18:06 6,3 C 3,9 C 5,6 C 91 % 1021,7 hPa 0,0 l/m 11,4 km/h (2 Bft) W 264 0 min 0,000 mm 0,0 UV-I 0 W/m 4,9 C 2,6 C 17,7 km/h (3 Bft) 97,92 %
04.12.2018 18:08 6,3 C 3,9 C 5,6 C 91 % 1021,8 hPa 0,0 l/m 11,2 km/h (2 Bft) SW 232 0 min 0,000 mm 0,0 UV-I 0 W/m 4,9 C 2,7 C 16,1 km/h (3 Bft) 100,00 %
04.12.2018 18:10 6,3 C 3,9 C 5,6 C 91 % 1021,8 hPa 0,0 l/m 11,2 km/h (2 Bft) W 265 0 min 0,000 mm 0,0 UV-I 0 W/m 4,9 C 2,7 C 16,1 km/h (3 Bft) 98,00 %
04.12.2018 18:12 6,3 C 3,9 C 5,6 C 91 % 1021,9 hPa 0,0 l/m 8,0 km/h (2 Bft) W-SW 243 0 min 0,000 mm 0,0 UV-I 0 W/m 4,9 C 5,0 C 16,1 km/h (3 Bft) 100,00 %
04.12.2018 18:14 6,2 C 3,9 C 5,6 C 91 % 1021,9 hPa 0,0 l/m 9,7 km/h (2 Bft) W 273 0 min 0,000 mm 0,0 UV-I 0 W/m 4,8 C 3,6 C 14,5 km/h (3 Bft) 96,00 %
04.12.2018 18:16 6,2 C 3,9 C 5,6 C 91 % 1021,9 hPa 0,0 l/m 10,8 km/h (2 Bft) W-SW 238 0 min 0,000 mm 0,0 UV-I 0 W/m 4,8 C 2,9 C 14,5 km/h (3 Bft) 100,00 %
04.12.2018 18:18 6,2 C 3,9 C 5,6 C 91 % 1022,0 hPa 0,0 l/m 10,5 km/h (2 Bft) W-SW 258 0 min 0,000 mm 0,0 UV-I 0 W/m 4,8 C 3,1 C 16,1 km/h (3 Bft) 100,00 %
04.12.2018 18:20 6,2 C 3,9 C 5,6 C 91 % 1022,0 hPa 0,0 l/m 11,2 km/h (2 Bft) W-SW 257 0 min 0,000 mm 0,0 UV-I 0 W/m 4,8 C 2,6 C 19,3 km/h (3 Bft) 100,00 %
04.12.2018 18:22 6,2 C 3,9 C 5,6 C 91 % 1022,0 hPa 0,0 l/m 11,9 km/h (2 Bft) W-SW 244 0 min 0,000 mm 0,0 UV-I 0 W/m 4,8 C 2,2 C 17,7 km/h (3 Bft) 100,00 %
04.12.2018 18:25 6,2 C 3,9 C 5,6 C 91 % 1022,0 hPa 0,0 l/m 11,4 km/h (2 Bft) W 261 0 min 0,000 mm 0,0 UV-I 0 W/m 4,8 C 2,5 C 16,1 km/h (3 Bft) 100,00 %
04.12.2018 18:26 6,2 C 3,9 C 5,6 C 91 % 1022,0 hPa 0,0 l/m 10,3 km/h (2 Bft) W 261 0 min 0,000 mm 0,0 UV-I 0 W/m 4,8 C 3,2 C 14,5 km/h (3 Bft) 100,00 %
04.12.2018 18:28 6,2 C 3,9 C 5,6 C 91 % 1022,1 hPa 0,0 l/m 10,4 km/h (2 Bft) W 268 0 min 0,000 mm 0,0 UV-I 0 W/m 4,8 C 3,1 C 14,5 km/h (3 Bft) 100,00 %
04.12.2018 18:30 6,2 C 3,9 C 5,6 C 91 % 1022,1 hPa 0,0 l/m 11,5 km/h (2 Bft) W-SW 250 0 min 0,000 mm 0,0 UV-I 0 W/m 4,8 C 2,4 C 17,7 km/h (3 Bft) 97,87 %
04.12.2018 18:32 6,2 C 3,9 C 5,6 C 91 % 1022,1 hPa 0,0 l/m 10,5 km/h (2 Bft) W-SW 249 0 min 0,000 mm 0,0 UV-I 0 W/m 4,8 C 3,1 C 14,5 km/h (3 Bft) 98,00 %
04.12.2018 18:34 6,2 C 3,9 C 5,6 C 91 % 1022,2 hPa 0,0 l/m 12,1 km/h (2 Bft) W 261 0 min 0,000 mm 0,0 UV-I 0 W/m 4,8 C 2,1 C 19,3 km/h (3 Bft) 96,00 %
04.12.2018 18:36 6,2 C 3,9 C 5,6 C 91 % 1022,2 hPa 0,0 l/m 13,1 km/h (3 Bft) W-NW 284 0 min 0,000 mm 0,0 UV-I 0 W/m 4,8 C 1,5 C 16,1 km/h (3 Bft) 100,00 %
04.12.2018 18:38 6,1 C 3,9 C 5,6 C 91 % 1022,2 hPa 0,0 l/m 12,4 km/h (3 Bft) W 265 0 min 0,000 mm 0,0 UV-I 0 W/m 4,7 C 1,8 C 19,3 km/h (3 Bft) 96,00 %
04.12.2018 18:40 6,2 C 3,9 C 5,6 C 91 % 1022,3 hPa 0,0 l/m 13,0 km/h (3 Bft) W-SW 237 0 min 0,000 mm 0,0 UV-I 0 W/m 4,8 C 1,6 C 19,3 km/h (3 Bft) 98,00 %
04.12.2018 18:42 6,1 C 3,9 C 5,6 C 91 % 1022,4 hPa 0,0 l/m 11,6 km/h (2 Bft) W-NW 289 0 min 0,000 mm 0,0 UV-I 0 W/m 4,7 C 2,3 C 16,1 km/h (3 Bft) 91,49 %
04.12.2018 18:44 6,1 C 3,9 C 5,6 C 90 % 1022,4 hPa 0,0 l/m 10,1 km/h (2 Bft) W 267 0 min 0,000 mm 0,0 UV-I 0 W/m 4,6 C 3,2 C 16,1 km/h (3 Bft) 93,62 %
04.12.2018 18:46 6,1 C 3,9 C 5,6 C 90 % 1022,4 hPa 0,0 l/m 11,2 km/h (2 Bft) W-SW 250 0 min 0,000 mm 0,0 UV-I 0 W/m 4,6 C 2,5 C 17,7 km/h (3 Bft) 97,87 %
04.12.2018 18:48 6,1 C 3,9 C 5,6 C 90 % 1022,4 hPa 0,0 l/m 12,2 km/h (2 Bft) W 267 0 min 0,000 mm 0,0 UV-I 0 W/m 4,6 C 1,9 C 16,1 km/h (3 Bft) 95,74 %
04.12.2018 18:50 6,1 C 3,9 C 5,0 C 90 % 1022,4 hPa 0,0 l/m 9,4 km/h (2 Bft) W 269 0 min 0,000 mm 0,0 UV-I 0 W/m 4,6 C 3,7 C 12,9 km/h (3 Bft) 94,44 %
04.12.2018 18:52 6,1 C 3,9 C 5,0 C 90 % 1022,5 hPa 0,0 l/m 9,8 km/h (2 Bft) W 266 0 min 0,000 mm 0,0 UV-I 0 W/m 4,6 C 3,4 C 12,9 km/h (3 Bft) 98,21 %
04.12.2018 18:54 6,1 C 3,9 C 5,0 C 90 % 1022,5 hPa 0,0 l/m 10,4 km/h (2 Bft) SW 225 0 min 0,000 mm 0,0 UV-I 0 W/m 4,6 C 3,0 C 14,5 km/h (3 Bft) 97,87 %
04.12.2018 18:56 6,1 C 3,9 C 5,0 C 90 % 1022,5 hPa 0,0 l/m 10,5 km/h (2 Bft) W-SW 257 0 min 0,000 mm 0,0 UV-I 0 W/m 4,6 C 3,0 C 16,1 km/h (3 Bft) 95,74 %
04.12.2018 18:58 6,1 C 3,9 C 5,0 C 90 % 1022,5 hPa 0,0 l/m 11,6 km/h (2 Bft) W 275 0 min 0,000 mm 0,0 UV-I 0 W/m 4,6 C 2,3 C 14,5 km/h (3 Bft) 97,87 %
04.12.2018 19:00 6,1 C 3,9 C 5,0 C 90 % 1022,5 hPa 0,0 l/m 12,6 km/h (3 Bft) W 273 0 min 0,000 mm 0,0 UV-I 0 W/m 4,6 C 1,7 C 19,3 km/h (3 Bft) 95,74 %
04.12.2018 19:02 6,1 C 3,9 C 5,0 C 90 % 1022,6 hPa 0,0 l/m 9,3 km/h (2 Bft) W 267 0 min 0,000 mm 0,0 UV-I 0 W/m 4,6 C 3,8 C 14,5 km/h (3 Bft) 95,74 %
04.12.2018 19:04 6,1 C 3,9 C 5,0 C 90 % 1022,7 hPa 0,0 l/m 12,3 km/h (3 Bft) W-SW 244 0 min 0,000 mm 0,0 UV-I 0 W/m 4,6 C 1,8 C 17,7 km/h (3 Bft) 96,00 %
04.12.2018 19:06 6,1 C 3,9 C 5,0 C 90 % 1022,7 hPa 0,0 l/m 10,9 km/h (2 Bft) W-SW 258 0 min 0,000 mm 0,0 UV-I 0 W/m 4,6 C 2,7 C 16,1 km/h (3 Bft) 97,87 %
04.12.2018 19:08 6,1 C 3,9 C 5,0 C 90 % 1022,8 hPa 0,0 l/m 11,9 km/h (2 Bft) W 265 0 min 0,000 mm 0,0 UV-I 0 W/m 4,6 C 2,1 C 16,1 km/h (3 Bft) 97,87 %
04.12.2018 19:10 6,1 C 3,9 C 5,0 C 89 % 1022,8 hPa 0,0 l/m 9,5 km/h (2 Bft) W 267 0 min 0,000 mm 0,0 UV-I 0 W/m 4,4 C 3,6 C 14,5 km/h (3 Bft) 95,74 %
04.12.2018 19:12 6,1 C 3,9 C 5,0 C 89 % 1022,8 hPa 0,0 l/m 8,5 km/h (2 Bft) W-SW 257 0 min 0,000 mm 0,0 UV-I 0 W/m 4,4 C 4,4 C 12,9 km/h (3 Bft) 95,74 %
04.12.2018 19:14 6,1 C 3,9 C 5,0 C 89 % 1022,8 hPa 0,0 l/m 10,6 km/h (2 Bft) W 277 0 min 0,000 mm 0,0 UV-I 0 W/m 4,4 C 2,9 C 14,5 km/h (3 Bft) 100,00 %
04.12.2018 19:16 6,1 C 3,9 C 5,0 C 89 % 1022,9 hPa 0,0 l/m 8,9 km/h (2 Bft) W-SW 241 0 min 0,000 mm 0,0 UV-I 0 W/m 4,4 C 4,1 C 14,5 km/h (3 Bft) 97,87 %
04.12.2018 19:18 6,1 C 3,9 C 5,0 C 89 % 1023,0 hPa 0,0 l/m 11,7 km/h (2 Bft) W 270 0 min 0,000 mm 0,0 UV-I 0 W/m 4,4 C 2,2 C 16,1 km/h (3 Bft) 97,14 %
04.12.2018 19:20 6,1 C 3,9 C 5,0 C 89 % 1023,0 hPa 0,0 l/m 9,9 km/h (2 Bft) W-SW 257 0 min 0,000 mm 0,0 UV-I 0 W/m 4,4 C 3,4 C 16,1 km/h (3 Bft) 98,11 %
04.12.2018 19:22 6,1 C 3,9 C 5,0 C 89 % 1023,0 hPa 0,0 l/m 8,5 km/h (2 Bft) W-SW 248 0 min 0,000 mm 0,0 UV-I 0 W/m 4,4 C 4,4 C 12,9 km/h (3 Bft) 93,62 %
04.12.2018 19:24 6,1 C 3,9 C 5,0 C 89 % 1023,1 hPa 0,0 l/m 11,4 km/h (2 Bft) W 265 0 min 0,000 mm 0,0 UV-I 0 W/m 4,4 C 2,4 C 17,7 km/h (3 Bft) 97,87 %
04.12.2018 19:26 6,1 C 3,9 C 5,0 C 89 % 1023,0 hPa 0,0 l/m 9,7 km/h (2 Bft) W-SW 256 0 min 0,000 mm 0,0 UV-I 0 W/m 4,4 C 3,5 C 14,5 km/h (3 Bft) 97,87 %
04.12.2018 19:28 6,1 C 3,9 C 5,0 C 89 % 1023,0 hPa 0,0 l/m 9,9 km/h (2 Bft) W-SW 238 0 min 0,000 mm 0,0 UV-I 0 W/m 4,4 C 3,4 C 16,1 km/h (3 Bft) 97,92 %
04.12.2018 19:30 6,1 C 3,9 C 5,0 C 89 % 1023,0 hPa 0,0 l/m 10,0 km/h (2 Bft) W-SW 255 0 min 0,000 mm 0,0 UV-I 0 W/m 4,4 C 3,3 C 16,1 km/h (3 Bft) 97,87 %
04.12.2018 19:32 6,1 C 3,9 C 5,0 C 89 % 1023,0 hPa 0,0 l/m 8,6 km/h (2 Bft) W-SW 249 0 min 0,000 mm 0,0 UV-I 0 W/m 4,4 C 4,3 C 16,1 km/h (3 Bft) 98,00 %
04.12.2018 19:34 6,1 C 3,9 C 5,0 C 89 % 1023,1 hPa 0,0 l/m 10,7 km/h (2 Bft) W-SW 242 0 min 0,000 mm 0,0 UV-I 0 W/m 4,4 C 2,8 C 14,5 km/h (3 Bft) 94,74 %
04.12.2018 19:36 6,0 C 3,9 C 5,0 C 89 % 1023,3 hPa 0,0 l/m 8,0 km/h (2 Bft) W-SW 254 0 min 0,000 mm 0,0 UV-I 0 W/m 4,3 C 4,7 C 12,9 km/h (3 Bft) 94,00 %
04.12.2018 19:39 5,9 C 3,9 C 5,0 C 89 % 1023,4 hPa 0,0 l/m 11,4 km/h (2 Bft) SW 232 0 min 0,000 mm 0,0 UV-I 0 W/m 4,2 C 2,2 C 17,7 km/h (3 Bft) 94,74 %
04.12.2018 19:40 5,9 C 3,9 C 5,0 C 89 % 1023,4 hPa 0,0 l/m 10,9 km/h (2 Bft) W-SW 244 0 min 0,000 mm 0,0 UV-I 0 W/m 4,2 C 2,5 C 16,1 km/h (3 Bft) 91,67 %
04.12.2018 19:42 5,9 C 3,9 C 5,0 C 90 % 1023,4 hPa 0,0 l/m 9,7 km/h (2 Bft) W 278 0 min 0,000 mm 0,0 UV-I 0 W/m 4,4 C 3,3 C 14,5 km/h (3 Bft) 94,74 %
04.12.2018 19:44 5,8 C 3,9 C 5,0 C 90 % 1023,5 hPa 0,0 l/m 8,9 km/h (2 Bft) W-SW 254 0 min 0,000 mm 0,0 UV-I 0 W/m 4,3 C 3,7 C 12,9 km/h (3 Bft) 93,62 %
04.12.2018 19:46 5,8 C 3,9 C 5,0 C 90 % 1023,5 hPa 0,0 l/m 6,2 km/h (2 Bft) SW 228 0 min 0,000 mm 0,0 UV-I 0 W/m 4,3 C 5,8 C 11,3 km/h (2 Bft) 93,62 %
04.12.2018 19:48 5,8 C 3,9 C 5,0 C 91 % 1023,5 hPa 0,0 l/m 7,7 km/h (2 Bft) SW 220 0 min 0,000 mm 0,0 UV-I 0 W/m 4,4 C 4,7 C 11,3 km/h (2 Bft) 98,00 %
04.12.2018 19:50 5,8 C 3,9 C 5,0 C 91 % 1023,4 hPa 0,0 l/m 9,8 km/h (2 Bft) W-SW 243 0 min 0,000 mm 0,0 UV-I 0 W/m 4,4 C 3,1 C 17,7 km/h (3 Bft) 96,00 %
04.12.2018 19:52 5,8 C 3,9 C 5,0 C 91 % 1023,4 hPa 0,0 l/m 12,1 km/h (2 Bft) W-SW 247 0 min 0,000 mm 0,0 UV-I 0 W/m 4,4 C 1,6 C 22,5 km/h (4 Bft) 95,74 %
04.12.2018 19:54 5,8 C 3,9 C 5,0 C 91 % 1023,5 hPa 0,0 l/m 9,3 km/h (2 Bft) SW 226 0 min 0,000 mm 0,0 UV-I 0 W/m 4,4 C 3,4 C 12,9 km/h (3 Bft) 93,62 %
04.12.2018 19:56 5,8 C 3,9 C 5,0 C 91 % 1023,5 hPa 0,0 l/m 10,9 km/h (2 Bft) W-SW 250 0 min 0,000 mm 0,0 UV-I 0 W/m 4,4 C 2,4 C 14,5 km/h (3 Bft) 91,49 %
04.12.2018 19:58 5,8 C 3,9 C 5,0 C 91 % 1023,6 hPa 0,0 l/m 12,0 km/h (2 Bft) W-SW 257 0 min 0,000 mm 0,0 UV-I 0 W/m 4,4 C 1,7 C 17,7 km/h (3 Bft) 93,62 %
04.12.2018 20:00 5,8 C 3,9 C 5,0 C 91 % 1023,6 hPa 0,0 l/m 12,1 km/h (2 Bft) W-NW 288 0 min 0,000 mm 0,0 UV-I 0 W/m 4,4 C 1,6 C 17,7 km/h (3 Bft) 95,74 %
04.12.2018 20:02 5,8 C 3,9 C 5,0 C 91 % 1023,7 hPa 0,0 l/m 12,7 km/h (3 Bft) W 265 0 min 0,000 mm 0,0 UV-I 0 W/m 4,4 C 1,3 C 19,3 km/h (3 Bft) 93,62 %
04.12.2018 20:04 5,8 C 3,9 C 5,0 C 91 % 1023,7 hPa 0,0 l/m 9,5 km/h (2 Bft) W-SW 248 0 min 0,000 mm 0,0 UV-I 0 W/m 4,4 C 3,3 C 14,5 km/h (3 Bft) 95,74 %
04.12.2018 20:06 5,8 C 3,9 C 5,0 C 90 % 1023,8 hPa 0,0 l/m 12,9 km/h (3 Bft) W-NW 288 0 min 0,000 mm 0,0 UV-I 0 W/m 4,3 C 1,2 C 19,3 km/h (3 Bft) 95,24 %
04.12.2018 20:08 5,8 C 3,9 C 5,0 C 90 % 1023,7 hPa 0,0 l/m 10,3 km/h (2 Bft) W 270 0 min 0,000 mm 0,0 UV-I 0 W/m 4,3 C 2,8 C 16,1 km/h (3 Bft) 95,74 %
04.12.2018 20:10 5,8 C 3,9 C 5,0 C 90 % 1023,6 hPa 0,0 l/m 10,3 km/h (2 Bft) W 279 0 min 0,000 mm 0,0 UV-I 0 W/m 4,3 C 2,8 C 14,5 km/h (3 Bft) 96,00 %
04.12.2018 20:12 5,8 C 3,9 C 5,0 C 90 % 1023,6 hPa 0,0 l/m 7,7 km/h (2 Bft) W 269 0 min 0,000 mm 0,0 UV-I 0 W/m 4,3 C 4,7 C 11,3 km/h (2 Bft) 100,00 %
04.12.2018 20:14 5,8 C 3,9 C 5,0 C 90 % 1023,6 hPa 0,0 l/m 6,6 km/h (2 Bft) W 269 0 min 0,000 mm 0,0 UV-I 0 W/m 4,3 C 5,7 C 11,3 km/h (2 Bft) 100,00 %
04.12.2018 20:16 5,8 C 3,9 C 5,0 C 90 % 1023,6 hPa 0,0 l/m 8,9 km/h (2 Bft) W 265 0 min 0,000 mm 0,0 UV-I 0 W/m 4,3 C 3,7 C 12,9 km/h (3 Bft) 100,00 %
04.12.2018 20:18 5,8 C 3,9 C 4,4 C 90 % 1023,7 hPa 0,0 l/m 9,6 km/h (2 Bft) W-SW 256 0 min 0,000 mm 0,0 UV-I 0 W/m 4,3 C 3,2 C 14,5 km/h (3 Bft) 97,87 %
04.12.2018 20:20 5,8 C 3,9 C 5,0 C 90 % 1023,8 hPa 0,0 l/m 13,0 km/h (3 Bft) W-SW 254 0 min 0,000 mm 0,0 UV-I 0 W/m 4,3 C 1,1 C 16,1 km/h (3 Bft) 98,11 %
04.12.2018 20:22 5,7 C 3,9 C 4,4 C 90 % 1023,9 hPa 0,0 l/m 11,9 km/h (2 Bft) W-SW 257 0 min 0,000 mm 0,0 UV-I 0 W/m 4,2 C 1,6 C 14,5 km/h (3 Bft) 100,00 %
04.12.2018 20:24 5,7 C 3,9 C 4,4 C 90 % 1024,0 hPa 0,0 l/m 11,9 km/h (2 Bft) W 275 0 min 0,000 mm 0,0 UV-I 0 W/m 4,2 C 1,6 C 17,7 km/h (3 Bft) 100,00 %
04.12.2018 20:26 5,7 C 3,9 C 4,4 C 90 % 1024,0 hPa 0,0 l/m 11,0 km/h (2 Bft) W 265 0 min 0,000 mm 0,0 UV-I 0 W/m 4,2 C 2,2 C 16,1 km/h (3 Bft) 100,00 %
04.12.2018 20:28 5,7 C 3,9 C 4,4 C 91 % 1023,9 hPa 0,0 l/m 11,2 km/h (2 Bft) W 262 0 min 0,000 mm 0,0 UV-I 0 W/m 4,3 C 2,1 C 16,1 km/h (3 Bft) 97,87 %
04.12.2018 20:30 5,7 C 3,9 C 4,4 C 90 % 1023,9 hPa 0,0 l/m 9,0 km/h (2 Bft) W 271 0 min 0,000 mm 0,0 UV-I 0 W/m 4,2 C 3,6 C 11,3 km/h (2 Bft) 100,00 %
04.12.2018 20:32 5,6 C 3,9 C 4,4 C 91 % 1024,0 hPa 0,0 l/m 10,1 km/h (2 Bft) W-SW 251 0 min 0,000 mm 0,0 UV-I 0 W/m 4,2 C 2,7 C 14,5 km/h (3 Bft) 100,00 %
04.12.2018 20:34 5,6 C 3,9 C 4,4 C 91 % 1024,0 hPa 0,0 l/m 12,3 km/h (3 Bft) W 264 0 min 0,000 mm 0,0 UV-I 0 W/m 4,2 C 1,3 C 14,5 km/h (3 Bft) 100,00 %
04.12.2018 20:36 5,6 C 3,9 C 4,4 C 91 % 1024,1 hPa 0,0 l/m 10,4 km/h (2 Bft) W 269 0 min 0,000 mm 0,0 UV-I 0 W/m 4,2 C 2,5 C 14,5 km/h (3 Bft) 97,87 %
04.12.2018 20:38 5,6 C 3,9 C 4,4 C 91 % 1024,0 hPa 0,0 l/m 10,2 km/h (2 Bft) W-SW 252 0 min 0,000 mm 0,0 UV-I 0 W/m 4,2 C 2,6 C 14,5 km/h (3 Bft) 100,00 %
04.12.2018 20:40 5,6 C 3,9 C 4,4 C 91 % 1024,0 hPa 0,0 l/m 12,3 km/h (3 Bft) W 269 0 min 0,000 mm 0,0 UV-I 0 W/m 4,2 C 1,3 C 16,1 km/h (3 Bft) 100,00 %
04.12.2018 20:42 5,6 C 3,9 C 4,4 C 91 % 1024,0 hPa 0,0 l/m 9,9 km/h (2 Bft) W 265 0 min 0,000 mm 0,0 UV-I 0 W/m 4,2 C 2,8 C 12,9 km/h (3 Bft) 97,87 %
04.12.2018 20:44 5,6 C 3,9 C 4,4 C 91 % 1024,1 hPa 0,0 l/m 11,1 km/h (2 Bft) W-SW 255 0 min 0,000 mm 0,0 UV-I 0 W/m 4,2 C 2,0 C 14,5 km/h (3 Bft) 95,74 %
04.12.2018 20:46 5,6 C 3,9 C 4,4 C 90 % 1024,1 hPa 0,0 l/m 7,7 km/h (2 Bft) W 273 0 min 0,000 mm 0,0 UV-I 0 W/m 4,1 C 4,5 C 12,9 km/h (3 Bft) 100,00 %
04.12.2018 20:48 5,6 C 3,9 C 4,4 C 91 % 1024,2 hPa 0,0 l/m 9,1 km/h (2 Bft) W 270 0 min 0,000 mm 0,0 UV-I 0 W/m 4,2 C 3,4 C 11,3 km/h (2 Bft) 98,00 %
04.12.2018 20:50 5,6 C 3,9 C 4,4 C 91 % 1024,3 hPa 0,0 l/m 11,3 km/h (2 Bft) W 261 0 min 0,000 mm 0,0 UV-I 0 W/m 4,2 C 1,9 C 14,5 km/h (3 Bft) 95,74 %
04.12.2018 20:52 5,6 C 3,9 C 4,4 C 91 % 1024,3 hPa 0,0 l/m 7,7 km/h (2 Bft) W 268 0 min 0,000 mm 0,0 UV-I 0 W/m 4,2 C 4,5 C 12,9 km/h (3 Bft) 100,00 %
04.12.2018 20:54 5,6 C 3,9 C 5,0 C 91 % 1024,3 hPa 0,0 l/m 10,1 km/h (2 Bft) W 278 0 min 0,000 mm 0,0 UV-I 0 W/m 4,2 C 2,7 C 17,7 km/h (3 Bft) 100,00 %
04.12.2018 20:56 5,6 C 3,9 C 4,4 C 91 % 1024,3 hPa 0,0 l/m 7,9 km/h (2 Bft) W 263 0 min 0,000 mm 0,0 UV-I 0 W/m 4,2 C 4,3 C 12,9 km/h (3 Bft) 100,00 %
04.12.2018 20:58 5,6 C 3,9 C 4,4 C 91 % 1024,2 hPa 0,0 l/m 6,8 km/h (2 Bft) W 266 0 min 0,000 mm 0,0 UV-I 0 W/m 4,2 C 5,3 C 9,7 km/h (2 Bft) 100,00 %
04.12.2018 21:00 5,6 C 3,9 C 4,4 C 91 % 1024,3 hPa 0,0 l/m 9,6 km/h (2 Bft) W 281 0 min 0,000 mm 0,0 UV-I 0 W/m 4,2 C 3,0 C 14,5 km/h (3 Bft) 100,00 %
04.12.2018 21:02 5,6 C 3,9 C 4,4 C 91 % 1024,3 hPa 0,0 l/m 5,9 km/h (2 Bft) W 270 0 min 0,000 mm 0,0 UV-I 0 W/m 4,2 C 5,6 C 9,7 km/h (2 Bft) 97,87 %
04.12.2018 21:04 5,6 C 3,9 C 4,4 C 90 % 1024,3 hPa 0,0 l/m 7,4 km/h (2 Bft) W 276 0 min 0,000 mm 0,0 UV-I 0 W/m 4,1 C 4,7 C 9,7 km/h (2 Bft) 100,00 %
04.12.2018 21:06 5,6 C 3,9 C 4,4 C 90 % 1024,3 hPa 0,0 l/m 6,4 km/h (2 Bft) W 261 0 min 0,000 mm 0,0 UV-I 0 W/m 4,1 C 5,6 C 9,7 km/h (2 Bft) 97,87 %
04.12.2018 21:08 5,6 C 3,9 C 4,4 C 90 % 1024,3 hPa 0,0 l/m 5,9 km/h (2 Bft) W 267 0 min 0,000 mm 0,0 UV-I 0 W/m 4,1 C 5,6 C 9,7 km/h (2 Bft) 98,00 %
04.12.2018 21:10 5,5 C 3,9 C 4,4 C 90 % 1024,3 hPa 0,0 l/m 5,5 km/h (1 Bft) W-SW 258 0 min 0,000 mm 0,0 UV-I 0 W/m 4,0 C 5,5 C 9,7 km/h (2 Bft) 97,83 %
04.12.2018 21:12 5,5 C 3,9 C 4,4 C 91 % 1024,4 hPa 0,0 l/m 5,7 km/h (1 Bft) W 265 0 min 0,000 mm 0,0 UV-I 0 W/m 4,2 C 5,5 C 6,4 km/h (2 Bft) 97,14 %
04.12.2018 21:14 5,4 C 3,9 C 4,4 C 90 % 1024,4 hPa 0,0 l/m 6,2 km/h (2 Bft) W 260 0 min 0,000 mm 0,0 UV-I 0 W/m 3,9 C 5,4 C 9,7 km/h (2 Bft) 96,00 %
04.12.2018 21:16 5,4 C 3,9 C 4,4 C 91 % 1024,4 hPa 0,0 l/m 4,7 km/h (1 Bft) W 271 0 min 0,000 mm 0,0 UV-I 0 W/m 4,1 C 5,4 C 6,4 km/h (2 Bft) 97,87 %
04.12.2018 21:18 5,4 C 3,9 C 4,4 C 91 % 1024,4 hPa 0,0 l/m 6,6 km/h (2 Bft) W 265 0 min 0,000 mm 0,0 UV-I 0 W/m 4,1 C 5,2 C 9,7 km/h (2 Bft) 97,92 %
04.12.2018 21:20 5,3 C 3,9 C 4,4 C 91 % 1024,4 hPa 0,0 l/m 4,8 km/h (1 Bft) W 268 0 min 0,000 mm 0,0 UV-I 0 W/m 4,0 C 5,3 C 6,4 km/h (2 Bft) 93,62 %
04.12.2018 21:22 5,3 C 3,9 C 4,4 C 91 % 1024,3 hPa 0,0 l/m 3,8 km/h (1 Bft) W-SW 248 0 min 0,000 mm 0,0 UV-I 0 W/m 4,0 C 5,3 C 6,4 km/h (2 Bft) 95,74 %
04.12.2018 21:24 5,3 C 3,9 C 4,4 C 91 % 1024,4 hPa 0,0 l/m 4,9 km/h (1 Bft) W 259 0 min 0,000 mm 0,0 UV-I 0 W/m 4,0 C 5,3 C 6,4 km/h (2 Bft) 97,87 %
04.12.2018 21:26 5,3 C 3,9 C 4,4 C 91 % 1024,5 hPa 0,0 l/m 5,1 km/h (1 Bft) W-SW 248 0 min 0,000 mm 0,0 UV-I 0 W/m 4,0 C 5,3 C 6,4 km/h (2 Bft) 97,87 %
04.12.2018 21:28 5,2 C 3,9 C 3,9 C 91 % 1024,6 hPa 0,0 l/m 5,6 km/h (1 Bft) W-SW 248 0 min 0,000 mm 0,0 UV-I 0 W/m 3,9 C 5,2 C 8,0 km/h (2 Bft) 97,87 %
04.12.2018 21:30 5,2 C 3,9 C 3,9 C 91 % 1024,6 hPa 0,0 l/m 4,7 km/h (1 Bft) W-SW 244 0 min 0,000 mm 0,0 UV-I 0 W/m 3,9 C 5,2 C 6,4 km/h (2 Bft) 100,00 %
04.12.2018 21:32 5,2 C 3,9 C 3,9 C 92 % 1024,6 hPa 0,0 l/m 4,3 km/h (1 Bft) SW 235 0 min 0,000 mm 0,0 UV-I 0 W/m 4,0 C 5,2 C 6,4 km/h (2 Bft) 100,00 %
04.12.2018 21:34 5,1 C 3,9 C 3,9 C 92 % 1024,6 hPa 0,0 l/m 4,7 km/h (1 Bft) W-SW 248 0 min 0,000 mm 0,0 UV-I 0 W/m 3,9 C 5,1 C 6,4 km/h (2 Bft) 96,00 %
04.12.2018 21:36 5,1 C 3,9 C 3,9 C 92 % 1024,6 hPa 0,0 l/m 5,0 km/h (1 Bft) W-SW 249 0 min 0,000 mm 0,0 UV-I 0 W/m 3,9 C 5,1 C 8,0 km/h (2 Bft) 96,00 %
04.12.2018 21:38 5,1 C 3,9 C 3,9 C 92 % 1024,7 hPa 0,0 l/m 4,2 km/h (1 Bft) W-SW 242 0 min 0,000 mm 0,0 UV-I 0 W/m 3,9 C 5,1 C 6,4 km/h (2 Bft) 97,87 %
04.12.2018 21:40 5,1 C 3,9 C 3,9 C 92 % 1024,7 hPa 0,0 l/m 5,5 km/h (1 Bft) SW 232 0 min 0,000 mm 0,0 UV-I 0 W/m 3,9 C 5,1 C 8,0 km/h (2 Bft) 95,74 %
04.12.2018 21:42 5,0 C 3,9 C 3,9 C 93 % 1024,8 hPa 0,0 l/m 4,2 km/h (1 Bft) SW 234 0 min 0,000 mm 0,0 UV-I 0 W/m 4,0 C 5,0 C 6,4 km/h (2 Bft) 97,37 %
04.12.2018 21:44 4,9 C 3,9 C 3,9 C 92 % 1024,8 hPa 0,0 l/m 2,9 km/h (1 Bft) SW 234 0 min 0,000 mm 0,0 UV-I 0 W/m 3,7 C 4,9 C 4,8 km/h (1 Bft) 98,00 %
04.12.2018 21:46 4,9 C 3,9 C 3,9 C 93 % 1024,8 hPa 0,0 l/m 3,2 km/h (1 Bft) SW 234 0 min 0,000 mm 0,0 UV-I 0 W/m 3,9 C 4,9 C 4,8 km/h (1 Bft) 95,74 %
04.12.2018 21:48 4,9 C 3,9 C 3,3 C 93 % 1024,9 hPa 0,0 l/m 2,9 km/h (1 Bft) SW 235 0 min 0,000 mm 0,0 UV-I 0 W/m 3,9 C 4,9 C 4,8 km/h (1 Bft) 96,00 %
04.12.2018 21:50 4,9 C 3,9 C 3,3 C 93 % 1024,9 hPa 0,0 l/m 4,7 km/h (1 Bft) SW 222 0 min 0,000 mm 0,0 UV-I 0 W/m 3,9 C 4,9 C 8,0 km/h (2 Bft) 97,87 %
04.12.2018 21:52 4,8 C 3,9 C 3,3 C 93 % 1025,0 hPa 0,0 l/m 5,0 km/h (1 Bft) SW 228 0 min 0,000 mm 0,0 UV-I 0 W/m 3,8 C 4,8 C 6,4 km/h (2 Bft) 98,00 %
04.12.2018 21:54 4,8 C 3,9 C 3,3 C 93 % 1025,1 hPa 0,0 l/m 4,9 km/h (1 Bft) SW 221 0 min 0,000 mm 0,0 UV-I 0 W/m 3,8 C 4,8 C 6,4 km/h (2 Bft) 97,22 %
04.12.2018 21:56 4,8 C 3,9 C 3,9 C 93 % 1025,1 hPa 0,0 l/m 5,0 km/h (1 Bft) SW 215 0 min 0,000 mm 0,0 UV-I 0 W/m 3,8 C 4,8 C 8,0 km/h (2 Bft) 96,00 %
04.12.2018 21:58 4,8 C 3,9 C 3,9 C 93 % 1025,1 hPa 0,0 l/m 4,7 km/h (1 Bft) SW 219 0 min 0,000 mm 0,0 UV-I 0 W/m 3,8 C 4,8 C 6,4 km/h (2 Bft) 96,00 %
04.12.2018 22:00 4,8 C 3,9 C 3,9 C 94 % 1025,1 hPa 0,0 l/m 4,8 km/h (1 Bft) SW 221 0 min 0,000 mm 0,0 UV-I 0 W/m 3,9 C 4,8 C 6,4 km/h (2 Bft) 97,87 %
04.12.2018 22:02 4,8 C 3,9 C 3,9 C 94 % 1025,1 hPa 0,0 l/m 6,2 km/h (2 Bft) SW 219 0 min 0,000 mm 0,0 UV-I 0 W/m 3,9 C 4,8 C 9,7 km/h (2 Bft) 97,87 %
04.12.2018 22:04 4,7 C 3,9 C 3,9 C 94 % 1025,1 hPa 0,0 l/m 5,0 km/h (1 Bft) S-SW 213 0 min 0,000 mm 0,0 UV-I 0 W/m 3,8 C 4,7 C 6,4 km/h (2 Bft) 97,87 %
04.12.2018 22:06 4,7 C 3,9 C 3,3 C 94 % 1025,1 hPa 0,0 l/m 4,4 km/h (1 Bft) S-SW 213 0 min 0,000 mm 0,0 UV-I 0 W/m 3,8 C 4,7 C 6,4 km/h (2 Bft) 91,49 %
04.12.2018 22:08 4,7 C 3,9 C 3,3 C 94 % 1025,1 hPa 0,0 l/m 5,0 km/h (1 Bft) S-SW 211 0 min 0,000 mm 0,0 UV-I 0 W/m 3,8 C 4,7 C 8,0 km/h (2 Bft) 98,00 %
04.12.2018 22:10 4,6 C 3,9 C 3,3 C 94 % 1025,1 hPa 0,0 l/m 6,0 km/h (2 Bft) SW 215 0 min 0,000 mm 0,0 UV-I 0 W/m 3,7 C 4,6 C 8,0 km/h (2 Bft) 97,87 %
04.12.2018 22:12 4,7 C 3,9 C 3,3 C 94 % 1025,1 hPa 0,0 l/m 5,4 km/h (1 Bft) SW 223 0 min 0,000 mm 0,0 UV-I 0 W/m 3,8 C 4,7 C 8,0 km/h (2 Bft) 95,74 %
04.12.2018 22:14 4,6 C 3,9 C 3,3 C 94 % 1025,2 hPa 0,0 l/m 4,5 km/h (1 Bft) W-SW 238 0 min 0,000 mm 0,0 UV-I 0 W/m 3,7 C 4,6 C 6,4 km/h (2 Bft) 95,74 %
04.12.2018 22:16 4,6 C 3,9 C 2,8 C 94 % 1025,2 hPa 0,0 l/m 4,8 km/h (1 Bft) W-SW 238 0 min 0,000 mm 0,0 UV-I 0 W/m 3,7 C 4,6 C 8,0 km/h (2 Bft) 95,74 %
04.12.2018 22:18 4,6 C 3,9 C 2,8 C 94 % 1025,3 hPa 0,0 l/m 4,8 km/h (1 Bft) SW 232 0 min 0,000 mm 0,0 UV-I 0 W/m 3,7 C 4,6 C 8,0 km/h (2 Bft) 97,37 %
04.12.2018 22:20 4,5 C 3,9 C 2,2 C 94 % 1025,4 hPa 0,0 l/m 5,1 km/h (1 Bft) W-SW 242 0 min 0,000 mm 0,0 UV-I 0 W/m 3,6 C 4,5 C 6,4 km/h (2 Bft) 92,00 %
04.12.2018 22:22 4,4 C 3,9 C 2,2 C 94 % 1025,4 hPa 0,0 l/m 4,6 km/h (1 Bft) W-SW 242 0 min 0,000 mm 0,0 UV-I 0 W/m 3,5 C 4,4 C 6,4 km/h (2 Bft) 98,00 %
04.12.2018 22:24 4,4 C 3,9 C 1,7 C 94 % 1025,3 hPa 0,0 l/m 3,4 km/h (1 Bft) W-SW 241 0 min 0,000 mm 0,0 UV-I 0 W/m 3,5 C 4,4 C 4,8 km/h (1 Bft) 97,87 %
04.12.2018 22:26 4,4 C 3,9 C 1,7 C 94 % 1025,4 hPa 0,0 l/m 4,0 km/h (1 Bft) W-SW 242 0 min 0,000 mm 0,0 UV-I 0 W/m 3,5 C 4,4 C 6,4 km/h (2 Bft) 93,62 %
04.12.2018 22:29 4,3 C 3,9 C 1,1 C 94 % 1025,5 hPa 0,0 l/m 4,2 km/h (1 Bft) W-SW 257 0 min 0,000 mm 0,0 UV-I 0 W/m 3,4 C 4,3 C 6,4 km/h (2 Bft) 95,77 %
04.12.2018 22:30 4,3 C 3,9 C 1,1 C 94 % 1025,5 hPa 0,0 l/m 4,1 km/h (1 Bft) W-SW 256 0 min 0,000 mm 0,0 UV-I 0 W/m 3,4 C 4,3 C 4,8 km/h (1 Bft) 100,00 %
04.12.2018 22:32 4,3 C 3,9 C 1,1 C 94 % 1025,5 hPa 0,0 l/m 3,5 km/h (1 Bft) W-SW 256 0 min 0,000 mm 0,0 UV-I 0 W/m 3,4 C 4,3 C 4,8 km/h (1 Bft) 97,22 %
04.12.2018 22:34 4,2 C 3,9 C 1,1 C 94 % 1025,5 hPa 0,0 l/m 2,6 km/h (1 Bft) W-SW 256 0 min 0,000 mm 0,0 UV-I 0 W/m 3,3 C 4,2 C 4,8 km/h (1 Bft) 96,15 %
04.12.2018 22:36 4,2 C 3,9 C 1,1 C 95 % 1025,5 hPa 0,0 l/m 2,6 km/h (1 Bft) W-SW 256 0 min 0,000 mm 0,0 UV-I 0 W/m 3,5 C 4,2 C 4,8 km/h (1 Bft) 96,00 %
04.12.2018 22:38 4,1 C 3,9 C 0,6 C 94 % 1025,5 hPa 0,0 l/m 3,5 km/h (1 Bft) W-SW 255 0 min 0,000 mm 0,0 UV-I 0 W/m 3,2 C 4,1 C 4,8 km/h (1 Bft) 95,83 %
04.12.2018 22:40 4,2 C 3,9 C 0,6 C 95 % 1025,5 hPa 0,0 l/m 3,3 km/h (1 Bft) W-SW 255 0 min 0,000 mm 0,0 UV-I 0 W/m 3,5 C 4,2 C 4,8 km/h (1 Bft) 93,62 %
04.12.2018 22:42 4,2 C 3,9 C 1,1 C 95 % 1025,5 hPa 0,0 l/m 2,8 km/h (1 Bft) W-SW 255 0 min 0,000 mm 0,0 UV-I 0 W/m 3,5 C 4,2 C 4,8 km/h (1 Bft) 93,62 %
04.12.2018 22:44 4,2 C 3,9 C 1,1 C 95 % 1025,6 hPa 0,0 l/m 3,4 km/h (1 Bft) W-SW 255 0 min 0,000 mm 0,0 UV-I 0 W/m 3,5 C 4,2 C 4,8 km/h (1 Bft) 95,12 %
04.12.2018 22:46 4,1 C 3,9 C 0,6 C 95 % 1025,6 hPa 0,0 l/m 3,3 km/h (1 Bft) W-SW 255 0 min 0,000 mm 0,0 UV-I 0 W/m 3,4 C 4,1 C 4,8 km/h (1 Bft) 95,74 %
04.12.2018 22:48 3,8 C 3,9 C 0,6 C 94 % 1025,6 hPa 0,0 l/m 3,0 km/h (1 Bft) W-SW 242 0 min 0,000 mm 0,0 UV-I 0 W/m 2,9 C 3,8 C 4,8 km/h (1 Bft) 93,62 %
04.12.2018 22:50 3,7 C 3,9 C 0,6 C 94 % 1025,6 hPa 0,0 l/m 5,1 km/h (1 Bft) SW 231 0 min 0,000 mm 0,0 UV-I 0 W/m 2,8 C 3,7 C 6,4 km/h (2 Bft) 97,87 %
04.12.2018 22:52 3,7 C 3,9 C 0,6 C 95 % 1025,7 hPa 0,0 l/m 4,4 km/h (1 Bft) SW 234 0 min 0,000 mm 0,0 UV-I 0 W/m 3,0 C 3,7 C 6,4 km/h (2 Bft) 95,74 %
04.12.2018 22:54 3,6 C 3,9 C 0,0 C 95 % 1025,7 hPa 0,0 l/m 2,1 km/h (1 Bft) SW 234 0 min 0,000 mm 0,0 UV-I 0 W/m 2,9 C 3,6 C 3,2 km/h (1 Bft) 97,87 %
04.12.2018 22:56 3,6 C 3,9 C 0,0 C 95 % 1025,7 hPa 0,0 l/m 1,9 km/h (1 Bft) SW 234 0 min 0,000 mm 0,0 UV-I 0 W/m 2,9 C 3,6 C 3,2 km/h (1 Bft) 97,87 %
04.12.2018 22:58 3,6 C 3,9 C -0,6 C 95 % 1025,9 hPa 0,0 l/m 3,2 km/h (1 Bft) W-SW 245 0 min 0,000 mm 0,0 UV-I 0 W/m 2,9 C 3,6 C 6,4 km/h (2 Bft) 95,74 %
04.12.2018 23:00 3,6 C 3,9 C 0,0 C 95 % 1026,0 hPa 0,0 l/m 3,9 km/h (1 Bft) W-SW 246 0 min 0,000 mm 0,0 UV-I 0 W/m 2,9 C 3,6 C 4,8 km/h (1 Bft) 97,87 %
04.12.2018 23:02 3,7 C 3,9 C 0,6 C 95 % 1026,0 hPa 0,0 l/m 3,7 km/h (1 Bft) W-SW 247 0 min 0,000 mm 0,0 UV-I 0 W/m 3,0 C 3,7 C 4,8 km/h (1 Bft) 97,87 %
04.12.2018 23:04 3,7 C 3,9 C 1,1 C 95 % 1026,0 hPa 0,0 l/m 3,6 km/h (1 Bft) W-SW 249 0 min 0,000 mm 0,0 UV-I 0 W/m 3,0 C 3,7 C 4,8 km/h (1 Bft) 95,74 %
04.12.2018 23:06 3,6 C 3,9 C 1,1 C 95 % 1026,0 hPa 0,0 l/m 2,7 km/h (1 Bft) W-SW 250 0 min 0,000 mm 0,0 UV-I 0 W/m 2,9 C 3,6 C 4,8 km/h (1 Bft) 95,74 %
04.12.2018 23:08 3,5 C 3,9 C 1,1 C 95 % 1026,0 hPa 0,0 l/m 2,4 km/h (1 Bft) W-SW 250 0 min 0,000 mm 0,0 UV-I 0 W/m 2,8 C 3,5 C 3,2 km/h (1 Bft) 97,87 %
04.12.2018 23:10 3,4 C 3,9 C 1,1 C 95 % 1026,0 hPa 0,0 l/m 4,3 km/h (1 Bft) W 261 0 min 0,000 mm 0,0 UV-I 0 W/m 2,7 C 3,4 C 6,4 km/h (2 Bft) 95,74 %
04.12.2018 23:12 3,4 C 3,9 C 1,1 C 95 % 1026,0 hPa 0,0 l/m 3,2 km/h (1 Bft) W 261 0 min 0,000 mm 0,0 UV-I 0 W/m 2,7 C 3,4 C 4,8 km/h (1 Bft) 98,00 %
04.12.2018 23:14 3,4 C 3,9 C 1,7 C 95 % 1026,1 hPa 0,0 l/m 2,9 km/h (1 Bft) W 260 0 min 0,000 mm 0,0 UV-I 0 W/m 2,7 C 3,4 C 4,8 km/h (1 Bft) 97,87 %
04.12.2018 23:16 3,3 C 3,9 C 1,1 C 95 % 1026,1 hPa 0,0 l/m 3,9 km/h (1 Bft) W 263 0 min 0,000 mm 0,0 UV-I 0 W/m 2,6 C 3,3 C 4,8 km/h (1 Bft) 93,75 %
04.12.2018 23:18 3,3 C 3,9 C 1,1 C 95 % 1026,2 hPa 0,0 l/m 3,9 km/h (1 Bft) W 270 0 min 0,000 mm 0,0 UV-I 0 W/m 2,6 C 3,3 C 4,8 km/h (1 Bft) 97,87 %
04.12.2018 23:20 3,4 C 3,9 C 1,1 C 96 % 1026,3 hPa 0,0 l/m 4,0 km/h (1 Bft) W-NW 282 0 min 0,000 mm 0,0 UV-I 0 W/m 2,8 C 3,4 C 6,4 km/h (2 Bft) 100,00 %
04.12.2018 23:22 3,4 C 3,9 C 1,1 C 96 % 1026,2 hPa 0,0 l/m 3,6 km/h (1 Bft) W-NW 282 0 min 0,000 mm 0,0 UV-I 0 W/m 2,8 C 3,4 C 4,8 km/h (1 Bft) 95,74 %
04.12.2018 23:24 3,5 C 3,9 C 1,1 C 96 % 1026,3 hPa 0,0 l/m 3,6 km/h (1 Bft) W 281 0 min 0,000 mm 0,0 UV-I 0 W/m 2,9 C 3,5 C 6,4 km/h (2 Bft) 93,62 %
04.12.2018 23:26 3,6 C 3,9 C 1,1 C 96 % 1026,3 hPa 0,0 l/m 3,7 km/h (1 Bft) W-NW 282 0 min 0,000 mm 0,0 UV-I 0 W/m 3,0 C 3,6 C 6,4 km/h (2 Bft) 98,00 %
04.12.2018 23:28 3,6 C 3,9 C 1,1 C 96 % 1026,4 hPa 0,0 l/m 4,0 km/h (1 Bft) W-NW 282 0 min 0,000 mm 0,0 UV-I 0 W/m 3,0 C 3,6 C 6,4 km/h (2 Bft) 98,00 %
04.12.2018 23:30 3,6 C 3,9 C 1,1 C 96 % 1026,4 hPa 0,0 l/m 3,9 km/h (1 Bft) W-NW 282 0 min 0,000 mm 0,0 UV-I 0 W/m 3,0 C 3,6 C 6,4 km/h (2 Bft) 97,87 %
04.12.2018 23:32 3,6 C 3,9 C 1,1 C 96 % 1026,4 hPa 0,0 l/m 3,5 km/h (1 Bft) W-NW 283 0 min 0,000 mm 0,0 UV-I 0 W/m 3,0 C 3,6 C 4,8 km/h (1 Bft) 97,87 %
04.12.2018 23:34 3,6 C 3,9 C 1,1 C 96 % 1026,4 hPa 0,0 l/m 2,8 km/h (1 Bft) W-NW 283 0 min 0,000 mm 0,0 UV-I 0 W/m 3,0 C 3,6 C 3,2 km/h (1 Bft) 97,87 %
04.12.2018 23:36 3,6 C 3,9 C 0,6 C 96 % 1026,3 hPa 0,0 l/m 2,1 km/h (1 Bft) W-NW 282 0 min 0,000 mm 0,0 UV-I 0 W/m 3,0 C 3,6 C 3,2 km/h (1 Bft) 97,87 %
04.12.2018 23:38 3,6 C 3,9 C 0,6 C 96 % 1026,3 hPa 0,0 l/m 2,0 km/h (1 Bft) W-NW 283 0 min 0,000 mm 0,0 UV-I 0 W/m 3,0 C 3,6 C 3,2 km/h (1 Bft) 97,87 %
04.12.2018 23:40 3,6 C 3,9 C 0,6 C 96 % 1026,3 hPa 0,0 l/m 1,9 km/h (1 Bft) W-NW 283 0 min 0,000 mm 0,0 UV-I 0 W/m 3,0 C 3,6 C 4,8 km/h (1 Bft) 98,00 %
04.12.2018 23:42 3,6 C 3,9 C 0,6 C 95 % 1026,3 hPa 0,0 l/m 1,8 km/h (1 Bft) W-NW 283 0 min 0,000 mm 0,0 UV-I 0 W/m 2,9 C 3,6 C 3,2 km/h (1 Bft) 95,74 %
04.12.2018 23:44 3,5 C 3,9 C 0,0 C 95 % 1026,3 hPa 0,0 l/m 1,9 km/h (1 Bft) W-NW 283 0 min 0,000 mm 0,0 UV-I 0 W/m 2,8 C 3,5 C 3,2 km/h (1 Bft) 97,87 %
04.12.2018 23:46 3,4 C 3,9 C 0,0 C 95 % 1026,3 hPa 0,0 l/m 1,8 km/h (1 Bft) W-NW 283 0 min 0,000 mm 0,0 UV-I 0 W/m 2,7 C 3,4 C 3,2 km/h (1 Bft) 97,14 %
04.12.2018 23:48 3,4 C 3,9 C 0,0 C 95 % 1026,3 hPa 0,0 l/m 1,7 km/h (1 Bft) W-NW 283 0 min 0,000 mm 0,0 UV-I 0 W/m 2,7 C 3,4 C 3,2 km/h (1 Bft) 96,23 %
04.12.2018 23:50 3,4 C 3,9 C 0,6 C 95 % 1026,3 hPa 0,0 l/m 2,1 km/h (1 Bft) W 274 0 min 0,000 mm 0,0 UV-I 0 W/m 2,7 C 3,4 C 4,8 km/h (1 Bft) 95,74 %
04.12.2018 23:52 3,2 C 3,9 C 0,6 C 95 % 1026,3 hPa 0,0 l/m 2,0 km/h (1 Bft) W 274 0 min 0,000 mm 0,0 UV-I 0 W/m 2,5 C 3,2 C 3,2 km/h (1 Bft) 94,00 %
04.12.2018 23:54 3,1 C 3,9 C 0,6 C 95 % 1026,3 hPa 0,0 l/m 2,3 km/h (1 Bft) W 272 0 min 0,000 mm 0,0 UV-I 0 W/m 2,4 C 3,1 C 3,2 km/h (1 Bft) 97,87 %
04.12.2018 23:56 3,0 C 3,9 C 0,6 C 95 % 1026,4 hPa 0,0 l/m 2,7 km/h (1 Bft) W 272 0 min 0,000 mm 0,0 UV-I 0 W/m 2,3 C 3,0 C 4,8 km/h (1 Bft) 97,92 %
04.12.2018 23:59 2,7 C 3,9 C 0,6 C 95 % 1026,4 hPa 0,0 l/m 1,8 km/h (1 Bft) W 272 0 min 0,000 mm 0,0 UV-I 0 W/m 2,0 C 2,7 C 3,2 km/h (1 Bft) 95,71 %
_ Min-Zeit 23:59 00:00 22:58 10:14 00:34 - 23:48 - - - - - - 23:59 15:02 22:54 09:00
Minimum _ 2,7 C 3,3 C -0,6 C 77 % 1008,0 hPa - 1,7 km/h (1 Bft) - - - - - - 2,0 C -0,8 C 3,2 km/h (1 Bft) 86,67 %
_ Max-Zeit 01:34 06:40 09:20 00:00 23:28 14:20 01:04 - - 07:55 09:02 00:00 08:56 01:04 11:36 01:12 00:04
Maximum _ 10,8 C 3,9 C 10,0 C 99 % 1026,4 hPa 0,6 l/m 31,1 km/h
W (5 Bft)
- - 3 min 0,076 mm 0,0 UV-I 172 W/m 9,6 C 9,6 C 49,9 km/h
W-SW (6 Bft)
100,00 %
Durchschnitt _ 7,8 C 3,6 C 6,8 C 89 % 1016,6 hPa #5,4 l/m 14,6 km/h (3 Bft) W - #21 min. #0,610 mm 0,0 UV-I 50 W/m 6,1 C 3,2 C 21,9 km/h (4 Bft) 97,29 %